     2              OBSERVATION DATA    GPS                 RINEX VERSION / TYPE
ASRINEXO V2.8.2 VM                                          PGM / RUN BY / DATE
                                                            COMMENT
BIT 2 OF LLI (+4) FLAGS DATA COLLECTED UNDER "AS" CONDITION COMMENT
Original Marker Name: 0607                                  COMMENT
Campaign Name: HPGN 1991                                    COMMENT
4-Character Station Name: 0607                              COMMENT
6-Character Antenna Code: ASHL12                            COMMENT
Vertical Measurement Point: BAS                             COMMENT
Vertical Offset to Rinex Ref. Point: 0.0000                 COMMENT
Radial Measurement Point: RRP                               COMMENT
Radial Offset to Rinex Ref. Point: 0.0000                   COMMENT
Antenna Height from Field Measurement: 2.2200 m             COMMENT
Original XYZ: 6378137.0000 0.0000 0.0000                    COMMENT
New XYZ position is based on association with SCEC monument COMMENT
E1F7A7B9+0011. Position of that monument is believed to be  COMMENT
valid to within 1 m horizontally; vertical accuracy         COMMENT
should be no worse than 3-times this value.                 COMMENT
                                                            COMMENT
Revised Rinex header created by UCSD GPS archive for        COMMENT
GSAC on 19-Apr-1999 (1999:109) 06:41:26 GMT                 COMMENT
For assistance contact dagnew@ucsd.edu or hjohnson@ucsd.edu COMMENT
                                                            COMMENT
HPGN CALIF 06 07                                            MARKER NAME
WGV CALIF DEPT TRANSPORTATION                               OBSERVER / AGENCY
577 ASHTECH L-XII3 6A                                       REC # / TYPE / VERS
631 ASHTECH GEODETIC L                                      ANT # / TYPE
 -2593993.0000 -4429526.0000  3773069.0000                  APPROX POSITION XYZ
        2.2200        0.0000        0.0000                  ANTENNA: DELTA H/E/N
     1     2     0                                          WAVELENGTH FACT L1/2
     3    C1    L1    L2                                    # / TYPES OF OBSERV
     0                                                      INTERVAL
  1991     5    14    18    22   45.000000                  TIME OF FIRST OBS
  1991     5    15     0    20    0.000000                  TIME OF LAST OBS
     0                                                      # OF SATELLITES
                                                            END OF HEADER
 91  5 14 18 22 45.0000000  0  2 02 11
  32914066.462           0.914 2         0.058 1
  32998100.690           0.902 2         0.013 1
 91  5 14 18 23  0.0000000  0  2 02 11
  32905238.179      -46402.075 2    -36158.188 1
  32991841.324      -32921.981 2    -25654.082 1
 91  5 14 18 23 15.0000000  0  3 02 19 11
  32896369.114      -93014.604 2    -72479.664 1
  29640575.955           0.998 3         0.226 3
  32985542.388      -66014.097 2    -51440.020 1
 91  5 14 18 23 30.0000000  0  3 02 19 11
  32887471.580     -139767.976 2   -108910.920 1
  29640574.759          -2.192 3        -2.269 3
  32979226.055      -99206.428 2    -77304.023 1
 91  5 14 18 23 45.0000000  0  4 16 02 19 11
  30349359.973           0.686 2         0.255 1
  29880623.977        -646.007 2      -504.385 1
  26642639.985       -1080.355 3      -842.232 3
  29974974.355        -497.345 2      -387.738 1
 91  5 14 18 24  0.0000000  0  4 16 02 19 11
  30343093.416      -32933.377 2    -25662.648 1
  29871713.546      -47514.079 2    -37025.044 1
  26642620.799       -1175.343 3      -916.272 3
  29968653.232      -33722.046 2    -26276.928 1
 91  5 14 18 24 15.0000000  0  4 16 02 19 11
  24340975.295          33.707 2        25.857 1
  23866926.973        -743.859 2      -580.546 1
  20646749.454       -1125.687 3      -877.493 3
  23966474.558        -505.888 2      -394.109 1
 91  5 14 18 24 30.0000000  0  4 16 02 19 11
  24334723.720      -32801.328 2    -25559.929 1
  23858006.343      -47639.374 2    -37122.570 1
  20646734.159       -1226.320 3      -955.935 3
  23960163.024      -33675.118 2    -26240.132 1
 91  5 14 18 24 45.0000000  0  5 16 18 02 19 11
  24328495.231      -65554.355 2    -51081.807 1
  20554598.946           0.724 3         0.233 3
  23849083.026      -94515.791 2    -73649.695 1
  20646717.974       -1297.295 3     -1011.254 2
  23953864.088      -66783.614 2    -52038.749 1
 91  5 14 18 25  0.0000000  0  5 16 18 02 19 11
  24322276.636      -98200.653 2    -76520.526 1
  20558573.600       20872.965 3     16264.271 3
  23840169.594     -141348.787 2   -110143.038 1
  20646714.676       -1314.507 3     -1024.685 3
  23947575.937      -99806.910 2    -77771.095 1
 91  5 14 18 25 15.0000000  0  5 16 18 02 19 11
  24316089.225     -130727.903 2   -101866.470 1
  20562568.932       41869.394 4     32625.070 3
  23831272.356     -188126.308 2   -146593.150 1
  20646723.375       -1266.121 3      -986.989 2
  23941315.375     -132732.605 2   -103427.344 1
 91  5 14 18 25 30.0000000  0  5 16 18 02 19 11
  24309921.891     -163123.340 2   -127109.706 1
  20566590.945       63002.839 3     49092.637 3
  23822380.807     -234835.185 2   -182989.746 1
  20646745.859       -1139.229 3      -888.136 3
  23935062.901     -165547.402 2   -128997.173 1
 91  5 14 18 25 45.0000000  0  5 16 18 02 19 11
  24303794.134     -195367.868 2   -152235.344 1
  20570641.141       84291.988 3     65681.538 3
  23813511.446     -281456.597 2   -219318.220 1
  20646789.921        -915.123 3      -713.521 3
  23928844.603     -198232.133 2   -154465.644 1
 91  5 14 18 26  0.0000000  0  5 16 18 02 19 11
  24297680.764     -227460.359 2   -177242.551 1
  20574723.419      105737.626 3     82392.371 3
  23804653.480     -327989.553 2   -255577.765 1
  20646855.578        -593.199 3      -462.683 3
  23922655.988     -230785.693 2   -179831.899 1
 91  5 14 18 26 15.0000000  0  5 16 18 02 19 11
  24291602.775     -259399.909 2   -202130.559 1
  20578832.369      127340.442 3     99225.692 3
  23795817.100     -374433.174 2   -291767.685 1
  20646932.926        -172.739 3      -135.060 2
  23916481.761     -263207.014 2   -205095.134 1
 91  5 14 18 26 30.0000000  0  5 16 18 02 19 11
  24285558.961     -291158.415 2   -226877.498 1
  20582979.701      149128.289 4    116203.189 3
  23786999.304     -420759.409 2   -327866.144 1
  20647039.049         373.953 3       290.928 3
  23910345.313     -295467.898 2   -230233.329 1
 91  5 14 18 26 45.0000000  0  5 16 18 02 19 11
  24279548.723     -322735.693 2   -251483.168 1
  20587162.108      171100.877 4    133324.630 3
  23778212.989     -466967.986 2   -363872.964 1
  20647163.766        1046.895 3       815.288 3
  23904243.635     -327567.768 2   -255246.056 1
 91  5 14 18 27  0.0000000  0  5 16 18 02 19 11
  24273577.153     -354134.962 2   -275950.197 1
  20591377.182      193254.676 4    150587.279 3
  23769441.959     -513062.341 2   -399790.719 1
  20647316.656        1842.424 3      1435.176 3
  23898160.245     -359510.103 2   -280136.082 1
 91  5 14 18 27 15.0000000  0  5 16 18 02 19 11
  24267632.265     -385348.025 2   -300272.126 1
  20595627.942      215597.809 4    167997.466 3
  23760691.016     -559034.424 2   -435613.234 1
  20647490.539        2768.684 3      2156.936 3
  23892109.539     -391286.479 2   -304896.717 1
 91  5 14 18 27 30.0000000  0  5 16 18 02 19 11
  24261735.950     -416372.521 2   -324447.140 1
  20599916.472      238132.140 4    185556.629 3
  23751967.355     -604882.175 2   -471338.866 1
  20647696.198        3827.361 3      2981.875 2
  23886092.398     -422894.467 2   -329526.182 1
 91  5 14 18 27 45.0000000  0  5 16 18 02 19 11
  24255868.707     -447192.785 2   -348462.940 1
  20604244.275      260873.614 4    203277.215 3
  23743265.280     -650589.491 2   -506955.051 1
  20647923.138        5034.269 3      3922.322 2
  23880112.139     -454317.932 2   -354011.824 1
 91  5 14 18 28  0.0000000  0  5 16 18 02 19 11
  24250044.645     -477793.595 2   -372307.805 1
  20608613.155      283836.572 4    221170.376 3
  23734596.780     -696141.437 2   -542450.189 1
  20648184.263        6404.029 3      4989.658 3
  23874175.051     -485541.657 2   -378341.864 1
 91  5 14 18 28 15.0000000  0  5 16 18 02 19 11
  24244265.543     -508178.002 2   -395984.035 1
  20613025.800      307017.790 4    239233.616 3
  23725959.760     -741541.290 2   -577826.821 1
  20648473.562        7933.245 3      6181.248 3
  23868272.437     -516568.725 2   -402518.670 1
 91  5 14 18 28 30.0000000  0  5 16 18 02 19 11
  24238523.016     -538335.455 2   -419483.380 1
  20617481.312      330427.610 4    257474.979 3
  23717351.821     -786778.189 2   -613076.475 1
  20648795.536        9632.463 3      7505.313 3
  23862411.493     -547388.250 2   -426533.739 1
 91  5 14 18 28 45.0000000  0  5 16 18 02 19 11
  24232838.058     -568249.496 2   -442793.080 1
  20621980.598      354081.839 4    275906.788 3
  23708775.056     -831836.305 2   -648186.793 1
  20649155.883       11517.662 3      8974.290 3
  23856582.632     -577983.949 2   -450374.397 1
 91  5 14 18 29  0.0000000  0  5 16 18 02 19 11
  24227185.470     -597919.274 2   -465912.434 1
  20626529.355      377981.285 4    294529.684 3
  23700236.071     -876714.475 2   -683156.915 1
  20649554.612       13589.710 3     10588.868 3
  23850805.929     -608354.640 2   -474039.748 1
 91  5 14 18 29 15.0000000  0  5 16 18 02 19 11
  24221577.851     -627356.708 2   -488850.728 1
  20631121.275      402113.854 4    313334.233 3
  23691728.261     -921424.643 2   -717996.132 1
  20649980.013       15836.319 3     12339.461 3
  23845060.105     -638512.200 2   -497538.986 1
 91  5 14 18 29 30.0000000  0  5 16 18 02 19 11
  24216023.299     -656564.447 2   -511610.062 1
  20635758.461      426476.645 4    332318.171 3
  23683257.018     -965969.602 2   -752706.602 1
  20650442.295       18254.578 3     14223.807 3
  23839367.652     -668459.054 2   -520874.049 1
 91  5 14 18 29 45.0000000  0  5 16 18 02 19 11
  24210514.309     -685543.145 2   -534190.893 1
  20640436.419      451068.561 4    351480.653 3
  23674806.776    -1010350.155 2   -787288.978 1
  20650932.760       20843.389 3     16241.044 3
  23833704.568     -698195.658 2   -544045.349 1
 91  5 14 18 30  0.0000000  0  5 16 18 02 19 11
  24205040.699     -714292.399 2   -556592.970 1
  20645160.551      475890.222 4    370822.153 3
  23666394.297    -1054565.647 2   -821742.712 1
  20651456.790       23603.319 3     18391.624 3
  23828088.861     -727721.255 2   -567052.185 1
 91  5 14 18 30 15.0000000  0  5 16 18 02 19 11
  24199615.356     -742797.062 2   -578804.386 1
  20649930.847      500956.071 4    390353.930 3
  23658016.892    -1098601.189 2   -856056.228 1
  20652018.303       26548.832 3     20686.832 2
  23822513.019     -757020.904 2   -589882.931 1
 91  5 14 18 30 30.0000000  0  5 16 18 02 19 11
  24194236.475     -771058.219 2   -600826.126 1
  20654749.410      526264.669 4    410074.861 3
  23649670.375    -1142457.928 2   -890230.424 1
  20652611.898       29678.403 3     23125.435 3
  23816976.754     -786095.588 2   -612538.378 1
 91  5 14 18 30 45.0000000  0  5 16 18 02 19 11
  24188905.870     -799094.402 2   -622672.549 1
  20659603.058      551797.249 4    429970.313 3
  23641350.835    -1186154.546 2   -924279.865 1
  20653240.263       32973.396 3     25692.952 3
  23811483.949     -814963.661 2   -635032.891 1
 91  5 14 18 31  0.0000000  0  5 16 18 02 19 11
  24183614.231     -826898.785 2   -644338.357 1
  20664509.457      577560.064 4    450045.181 3
  23633071.169    -1229684.336 2   -958199.277 1
  20653899.803       36440.232 3     28394.367 3
  23806037.021     -843618.230 2   -657361.038 1
 91  5 14 18 31 15.0000000  0  5 16 18 02 19 11
  24178368.460     -854477.917 2   -665828.604 1
  20669451.533      603546.276 4    470294.124 3
  23624814.581    -1273053.892 2   -991993.865 1
  20654591.425       40071.903 3     31224.225 3
  23800615.578     -872065.855 2   -679527.892 1
 91  5 14 18 31 30.0000000  0  5 16 18 02 19 11
  24173166.463     -881829.223 2   -687141.393 1
  20674441.580      629758.765 4    490719.379 3
  23616593.975    -1316260.428 2  -1025661.383 1
  20655316.324       43871.266 3     34184.754 2
  23795247.490     -900303.405 2   -701531.062 1
 91  5 14 18 31 45.0000000  0  5 16 18 02 19 11
  24167997.743     -908956.175 2   -708279.238 1
  20679471.204      656193.445 4    511317.780 3
  23608406.037    -1359307.726 2  -1059204.836 1
  20656066.701       47834.413 3     37272.906 2
  23789907.889     -928334.364 2   -723373.224 1
 91  5 14 18 32  0.0000000  0  5 16 18 02 19 11
  24162877.588     -935860.612 2   -729243.824 1
  20684543.991      682848.426 4    532087.836 3
  23600238.497    -1402197.297 2  -1092625.409 1
  20656853.654       51959.359 3     40487.143 3
  23784620.447     -956160.184 2   -745055.578 1
 91  5 14 18 32 15.0000000  0  5 16 18 02 19 11
  24157810.498     -962538.953 2   -750032.160 1
  20689662.942      709726.873 4    553032.023 3
  23592108.720    -1444925.772 2  -1125920.432 1
  20657669.390       56249.361 3     43829.982 3
  23779362.094     -983777.256 2   -766575.296 1
 91  5 14 18 32 30.0000000  0  5 16 18 02 19 11
  24152769.488     -988989.655 2   -770643.160 1
  20694815.180      736830.181 4    574151.428 3
  23584010.728    -1487491.627 2  -1159088.727 1
  20658518.404       60705.993 3     47302.662 3
  23774144.505    -1011183.770 2   -787930.889 1
 91  5 14 18 32 45.0000000  0  5 16 18 02 19 11
  24147780.636    -1015199.515 2   -791066.441 1
  20700018.373      764171.007 4    595455.921 3
  23575946.616    -1529881.917 2  -1192120.231 1
  20659400.391       65341.791 3     50914.952 2
  23768967.689    -1038366.642 2   -809112.263 1
 91  5 14 18 33  0.0000000  0  5 16 18 02 19 11
  24142834.965    -1041173.664 2   -811306.099 1
  20705266.840      791743.780 4    616941.138 3
  23567911.576    -1572101.881 2  -1225019.008 1
  20660318.962       70151.179 3     54662.517 2
  23763841.539    -1065331.073 2   -830123.382 1
 91  5 14 18 33 15.0000000  0  5 16 18 02 19 11
  24137940.249    -1066917.713 2   -831366.405 1
  20710555.783      819542.668 3    638602.556 3
  23559907.414    -1614157.220 2  -1257789.502 1
  20661262.408       75128.334 3     58540.808 2
  23758747.759    -1092082.430 2   -850968.536 1
 91  5 14 18 33 30.0000000  0  5 16 18 02 19 11
  24133081.219    -1092437.863 2   -851252.296 1
  20715889.389      847561.347 4    660435.249 3
  23551935.631    -1656053.778 2  -1290436.254 1
  20662240.929       80267.205 3     62545.109 3
  23753702.858    -1118626.528 2   -871652.106 1
 91  5 14 18 33 45.0000000  0  5 16 18 02 19 11
  24128272.541    -1117730.148 2   -870960.579 1
  20721261.072      875803.601 3    682442.146 3
  23543995.634    -1697788.028 2  -1322956.542 1
  20663250.031       85571.179 3     66678.066 3
  23748691.522    -1144959.537 2   -892171.236 1
 91  5 14 18 34  0.0000000  0  5 16 18 02 19 11
  24123499.845    -1142798.337 2   -890494.328 1
  20726678.318      904265.454 3    704620.166 3
  23536085.607    -1739363.713 2  -1355353.271 1
  20664292.106       91036.337 3     70936.617 3
  23743715.871    -1171085.027 2   -912528.671 1
 91  5 14 18 34 15.0000000  0  5 16 18 02 19 11
  24118772.721    -1167640.233 2   -909851.677 1
  20732136.938      932948.629 3    726970.644 3
  23528202.262    -1780778.607 2  -1387624.712 1
  20665360.870       96664.616 3     75322.282 2
  23738784.885    -1197000.539 2   -932722.440 1
 91  5 14 18 34 30.0000000  0  5 16 18 02 19 11
  24114089.667    -1192247.544 2   -929026.273 1
  20737637.831      961861.020 3    749499.733 3
  23520350.999    -1822024.360 2  -1419764.370 1
  20666468.602      102464.007 3     79841.285 3
  23733895.866    -1222697.654 2   -952746.102 1
 91  5 14 18 34 45.0000000  0  5 16 18 02 19 11
  24109451.573    -1216624.055 2   -948020.977 1
  20743182.795      990998.798 3    772204.450 3
  23512537.507    -1863104.889 2  -1451775.248 1
  20667601.513      108430.707 3     84490.652 3
  23729047.620    -1248179.996 2   -972602.355 1
 91  5 14 18 35  0.0000000  0  5 16 18 02 19 11
  24104855.160    -1240777.097 2   -966841.568 1
  20748768.828     1020354.149 3    795078.697 3
  23504748.602    -1904027.653 2  -1483663.172 1
  20668765.312      114557.010 3     89264.383 3
  23724238.348    -1273454.751 2   -992296.879 1
 91  5 14 18 35 15.0000000  0  5 16 18 02 19 11
  24100305.504    -1264705.467 2   -985487.105 1
  20754395.930     1049927.948 3    818123.163 3
  23496995.968    -1944791.558 2  -1515427.352 1
  20669960.582      120843.665 3     94163.071 3
  23719469.256    -1298520.674 2  -1011828.659 1
 91  5 14 18 35 30.0000000  0  5 16 18 02 19 11
  24095791.831    -1288411.729 2  -1003959.569 1
  20760069.205     1079717.617 4    841335.841 3
  23489263.419    -1985398.995 2  -1547069.588 1
  20671190.037      127288.032 3     99184.653 2
  23714740.326    -1323380.126 2  -1031199.575 1
 91  5 14 18 35 45.0000000  0  5 16 18 02 19 11
  24091323.720    -1311896.331 2  -1022259.301 1
  20765774.257     1109722.422 3    864716.162 3
  23481568.352    -2025850.460 2  -1578590.264 1
  20672444.062      133889.571 3    104328.705 3
  23710043.477    -1348033.084 2  -1050409.618 1
 91  5 14 18 36  0.0000000  0  5 16 18 02 19 11
  24086893.991    -1335159.874 2  -1040386.786 1
  20771525.770     1139941.346 3    888263.327 3
  23473898.458    -2066146.659 2  -1609989.982 1
  20673729.873      140647.190 3    109594.372 3
  23705393.099    -1372480.313 2  -1069459.255 1
 91  5 14 18 36 15.0000000  0  5 16 18 02 19 11
  24082513.725    -1358204.401 2  -1058343.581 1
  20777318.361     1170371.817 3    911975.332 3
  23466260.646    -2106289.970 2  -1641270.535 1
  20675044.764      147558.387 3    114979.713 3
  23700777.796    -1396723.913 2  -1088350.287 1
 91  5 14 18 36 30.0000000  0  5 16 18 02 19 11
  24078168.533    -1381028.384 2  -1076128.563 1
  20783147.528     1201015.100 3    935853.159 3
  23458651.610    -2146278.865 2  -1672430.748 1
  20676390.534      154624.408 3    120485.698 3
  23696209.852    -1420762.222 2  -1107081.294 1
 91  5 14 18 36 45.0000000  0  5 16 18 02 19 11
  24073863.512    -1403628.053 2  -1093738.720 1
  20789019.858     1231874.885 3    959899.700 3
  23451074.359    -2186109.528 2  -1703467.728 1
  20677764.180      161849.310 3    126115.488 2
  23691670.702    -1444591.070 2  -1125649.153 1
 91  5 14 18 37  0.0000000  0  5 16 18 02 19 11
  24069601.959    -1426006.819 2  -1111176.767 1
  20794932.663     1262947.498 3    984112.070 3
  23443521.686    -2225785.317 2  -1734383.968 1
  20679173.808      169229.139 3    131866.000 3
  23687173.213    -1468213.932 2  -1144056.458 1
 91  5 14 18 37 15.0000000  0  5 16 18 02 19 11
  24065390.777    -1448168.644 2  -1128445.757 1
  20800885.648     1294228.802 3   1008487.070 3
  23435998.993    -2265310.024 2  -1765182.472 1
  20680601.114      176759.970 3    137734.169 3
  23682716.794    -1491634.350 2  -1162306.045 1
 91  5 14 18 37 30.0000000  0  5 16 18 02 19 11
  24061214.067    -1470114.119 2  -1145546.180 1
  20806879.999     1325717.470 3   1033023.642 3
  23428505.085    -2304684.649 2  -1795864.051 1
  20682068.302      184440.481 3    143718.966 2
  23678299.359    -1514853.161 2  -1180398.514 1
 91  5 14 18 37 45.0000000  0  5 16 18 02 19 11
  24057083.531    -1491841.054 2  -1162476.312 1
  20812909.721     1357415.368 3   1057723.256 3
  23421044.148    -2343907.132 2  -1826427.086 2
  20683554.075      192272.887 3    149822.137 3
  23673917.592    -1537867.877 2  -1198331.966 1
 91  5 14 18 38  0.0000000  0  5 16 18 02 19 11
  24052988.061    -1513352.331 2  -1179238.377 1
  20818981.123     1389319.692 3   1082583.722 3
  23413611.394    -2382980.205 2  -1856873.689 1
  20685072.820      200254.106 3    156041.266 3
  23669574.791    -1560681.094 2  -1216108.385 1
 91  5 14 18 38 15.0000000  0  5 16 18 02 19 11
  24048932.473    -1534646.080 2  -1195830.938 1
  20825091.788     1421431.973 3   1107606.230 3
  23406203.227    -2421902.101 2  -1887202.460 1
  20686620.349      208385.727 3    162377.585 3
  23665277.867    -1583290.854 2  -1233726.256 1
 91  5 14 18 38 30.0000000  0  5 16 18 02 19 11
  24044927.247    -1555724.330 2  -1212255.594 1
  20831242.632     1453750.003 3   1132789.059 3
  23398821.435    -2460674.700 2  -1917414.912 1
  20688196.060      216665.617 3    168829.433 3
  23661013.321    -1605698.955 2  -1251187.027 1
 91  5 14 18 38 45.0000000  0  5 16 18 02 19 11
  24040951.695    -1576594.576 2  -1228518.140 1
  20837430.348     1486266.273 3   1158126.360 3
  23391472.023    -2499305.528 2  -1947516.913 1
  20689798.452      225086.218 3    175390.931 3
  23656784.453    -1627912.683 2  -1268496.299 1
 91  5 14 18 39  0.0000000  0  5 16 18 02 19 11
  24037022.316    -1597250.353 2  -1244613.579 1
  20843655.835     1518986.578 3   1183622.650 3
  23384151.692    -2537788.215 2  -1977503.432 1
  20691434.122      233653.604 3    182066.803 2
  23652597.247    -1649925.461 2  -1285649.007 1
 91  5 14 18 39 15.0000000  0  5 16 18 02 19 11
  24033129.207    -1617691.922 2  -1260542.073 1
  20849920.900     1551910.250 3   1209277.415 3
  23376855.939    -2576123.148 2  -2007374.852 1
  20693086.274      242367.094 3    188856.532 3
  23648443.921    -1671737.667 2  -1302645.474 1
 91  5 14 18 39 30.0000000  0  5 16 18 02 19 11
  24029279.872    -1637918.109 2  -1276302.770 1
  20856225.532     1585038.184 3   1235091.330 3
  23369585.969    -2614309.328 2  -2037130.357 1
  20694773.806      251227.552 3    195760.778 3
  23644330.172    -1693347.995 2  -1319484.542 1
 91  5 14 18 39 45.0000000  0  5 16 18 02 19 11
  24025465.918    -1657936.502 2  -1291901.521 1
  20862567.648     1618362.642 3   1261058.392 3
  23362345.987    -2652354.300 2  -2066775.792 1
  20696485.620      260227.414 3    202773.644 3
  23640255.389    -1714763.787 2  -1336172.063 1
 91  5 14 18 40  0.0000000  0  5 16 18 02 19 11
  24021709.819    -1677742.810 2  -1307335.028 1
  20868945.127     1651887.781 3   1287181.829 3
  23355136.874    -2690253.700 2  -2096307.806 1
  20698228.617      269370.647 3    209898.243 3
  23636218.988    -1735980.473 2  -1352704.416 1
 91  5 14 18 40 15.0000000  0  6 16 06 18 02 19 11
  24017975.298    -1697348.248 2  -1322612.003 1
  24627268.401           0.305 2         0.218 1
  20875363.684     1685601.721 3   1313452.382 3
  23347947.254    -2728019.103 2  -2125735.414 1
  20699988.393      278645.563 3    217125.442 2
  23632221.256    -1757009.393 2  -1369090.459 1
 91  5 14 18 40 30.0000000  0  6 16 06 18 02 19 11
  24014273.767    -1716780.755 2  -1337754.257 1
  24622008.836      -27768.438 2    -21637.685 1
  20881808.023     1719476.503 3   1339848.264 3
  23340781.017    -2765678.087 2  -2155080.087 1
  20701774.859      288024.319 3    224433.562 2
  23628250.206    -1777878.218 2  -1385351.777 1
 91  5 14 18 40 45.0000000  0  6 16 06 18 02 19 11
  24010613.898    -1735999.918 2  -1352730.264 1
  24616744.480      -55421.823 2    -43185.713 1
  20888294.033     1753552.054 3   1366400.592 3
  23333643.258    -2803190.372 2  -2184310.468 1
  20703586.209      297546.836 3    231853.693 3
  23624315.723    -1798546.600 2  -1401456.901 1
 91  5 14 18 41  0.0000000  0  6 16 06 18 02 19 11
  24007005.594    -1754995.972 2  -1367532.417 1
  24611502.312      -82950.133 2    -64636.196 1
  20894818.120     1787838.176 3   1393117.001 3
  23326533.673    -2840546.032 2  -2213418.787 1
  20705427.233      307223.078 3    239393.611 3
  23620421.419    -1819004.305 2  -1417397.886 1
 91  5 14 18 41 15.0000000  0  6 16 06 18 02 19 11
  24003435.969    -1773760.249 2  -1382153.968 1
  24606291.616     -110344.928 2    -85982.725 1
  20901384.471     1822343.123 3   1420003.924 3
  23319460.977    -2877736.724 2  -2242398.549 1
  20707299.432      317061.391 3    247059.826 3
  23616566.692    -1839242.576 2  -1433167.834 1
 91  5 14 18 41 30.0000000  0  6 16 06 18 02 19 11
  23999911.007    -1792297.791 2  -1396598.831 1
  24601095.919     -137611.487 2   -107229.306 1
  20907992.799     1857061.555 3   1447057.197 3
  23312410.156    -2914767.368 2  -2271253.616 1
  20709204.316      327056.366 3    254848.115 3
  23612757.528    -1859266.202 2  -1448770.537 1
 91  5 14 18 42  0.0000000  0  6 16 06 18 02 19 11
  23992982.207    -1828682.838 2  -1424950.826 1
  24590797.743     -191751.043 2   -149415.832 1
  20921326.964     1927147.676 3   1501669.652 3
  23298410.448    -2988338.873 2  -2328582.044 1
  20713098.620      347525.638 3    270798.176 3
  23605260.914    -1898659.232 2  -1479466.211 1
 91  5 14 18 42 15.0000000  0  6 16 06 18 02 19 11
  23989587.057    -1846525.474 2  -1438854.264 1
  24585682.988     -218619.855 2   -170352.509
  20928057.007     1962519.591 3   1529232.129 3
  23291459.459    -3024875.055 2  -2357051.836 1
  20715092.543      358004.282 3    278963.347 3
  23601582.164    -1918023.618 2  -1494555.212 1
 91  5 14 18 42 30.0000000  0  6 16 06 18 02 19 11
  23986235.673    -1864136.345 2  -1452577.044 1
  24580597.907     -245356.507 2   -191186.143 1
  20934830.815     1998108.629 3   1556963.794 3
  23284538.747    -3061246.424 2  -2385393.155 1
  20717116.742      368643.754 3    287253.835 3
  23597937.887    -1937167.845 2  -1509472.650 1
 91  5 14 18 42 45.0000000  0  6 16 06 18 02 19 11
  23982925.070    -1881513.706 2  -1466117.893 1
  24575528.418     -271959.260 2   -211915.502 1
  20941644.802     2033916.306 3   1584865.828 3
  23277650.718    -3097451.419 2  -2413604.825 1
  20719172.116      379445.605 3    295670.849 3
  23594334.678    -1956089.940 2  -1524217.008 1
 91  5 14 18 43  0.0000000  0  6 16 06 18 02 19 11
  23979660.928    -1898661.373 2  -1479479.715 1
  24570496.997     -298432.448 2   -232543.914 1
  20948500.757     2069939.026 3   1612935.424 3
  23270787.870    -3133493.898 2  -2441689.866 1
  20721258.368      390405.666 3    304211.141 3
  23590776.448    -1974793.701 2  -1538791.284 1
 91  5 14 18 43 15.0000000  0  6 16 06 18 02 19 11
  23976445.656    -1915587.792 2  -1492669.144 1
  24565481.769     -324784.602 2   -253077.970 1
  20955395.382     2106167.749 3   1641165.550 3
  23263960.394    -3169381.988 2  -2469654.601 2
  20723370.708      401515.499 3    312868.133 3
  23587254.785    -1993287.556 2  -1553201.928 1
 91  5 14 18 43 30.0000000  0  6 16 06 18 02 19 11
  23973265.153    -1932291.780 2  -1505685.299 1
  24560488.424     -351014.789 2   -273517.009 1
  20962329.278     2142603.343 3   1669556.863 2
  23257167.400    -3205114.530 2  -2497498.132 1
  20725516.020      412776.112 3    321642.620 3
  23583773.597    -2011570.040 2  -1567447.942 1
 91  5 14 18 43 45.0000000  0  6 16 06 18 02 19 11
  23970129.628    -1948780.395 2  -1518533.596 1
  24555513.376     -377130.274 2   -293866.613 1
  20969301.556     2179238.417 3   1698103.628 2
  23250389.691    -3240698.854 2  -2525226.162 1
  20727686.522      424180.120 3    330528.846 3
  23580332.571    -2029648.142 2  -1581534.623 1
 91  5 14 18 44  0.0000000  0  6 16 06 18 02 19 11
  23967027.372    -1965064.368 2  -1531222.437 1
  24550567.993     -403142.015 2   -314135.453 1
  20976306.501     2216062.073 3   1726797.325 2
  23243641.963    -3276145.391 2  -2552846.813 2
  20729881.305      435716.757 3    339518.419 3
  23576930.529    -2047532.246 2  -1595470.192 1
 91  5 14 18 44 15.0000000  0  6 16 06 18 02 19 11
  23963972.188    -1981153.195 2  -1543759.205 1
  24545634.607     -429059.683 2   -334330.971 1
  20983349.828     2253064.581 3   1755630.393 3
  23236920.915    -3311463.779 2  -2580367.609 2
  20732097.666      447376.289 3    348603.759 3
  23573561.765    -2065231.690 2  -1609261.845 1
 91  5 14 18 44 30.0000000  0  6 16 06 18 02 19 11
  23960946.381    -1997047.009 2  -1556144.090 1
  24540722.510     -454883.652 2   -354453.482 1
  20990421.336     2290245.521 3   1784602.512 2
  23230225.049    -3346654.317 2  -2607788.785 1
  20734343.710      459158.357 3    357784.575 3
  23570231.670    -2082746.542 2  -1622909.649 1
 91  5 14 18 44 45.0000000  0  6 16 06 18 02 19 11
  23957961.949    -2012721.286 2  -1568357.838 1
  24535834.399     -480589.753 2   -374484.094 1
  20997538.408     2327628.827 3   1813732.306 3
  23223560.365    -3381692.569 2  -2635091.301 2
  20736609.542      471087.130 3    367079.706 3
  23566938.151    -2100052.308 2  -1636394.530 1
 91  5 14 18 45  0.0000000  0  6 16 06 18 02 19 11
  23955015.288    -2028212.476 2  -1580428.892 1
  24530951.078     -506214.417 2   -394451.269 1
  21004682.457     2365178.057 3   1842991.391 3
  23216912.164    -3416614.781 2  -2662303.377 1
  20738901.759      483126.256 3    376460.819 3
  23563674.908    -2117185.024 2  -1649744.586 1
 91  5 14 18 45 15.0000000  0  6 16 06 18 02 19 11
  23952100.107    -2043528.910 2  -1592363.853 1
  24526092.641     -531766.393 2   -414361.796 1
  21011857.393     2402884.568 3   1872373.032 2
  23210288.253    -3451429.297 2  -2689431.562 1
  20741213.756      495266.959 3    385921.098 3
  23560447.045    -2134153.057 2  -1662966.315 1
 91  5 14 18 45 30.0000000  0  6 16 06 18 02 19 11
  23949216.999    -2058672.441 2  -1604164.052 1
  24521247.692     -557247.693 2   -434217.237 1
  21019064.106     2440746.293 3   1901875.626 2
  23203680.824    -3486138.059 2  -2716477.334 1
  20743546.143      507507.208 3    395458.944 3
  23557252.756    -2150958.025 2  -1676060.978 1
 91  5 14 18 45 45.0000000  0  6 16 06 18 02 19 11
  23946368.976    -2073639.838 2  -1615826.982 1
  24516404.550     -582655.418 2   -454015.424 1
  21026299.298     2478765.936 3   1931501.272 3
  23197098.585    -3520737.938 2  -2743438.226 1
  20745890.222      519850.108 3    405076.770 3
  23554079.748    -2167596.700 2  -1689026.069 1
 91  5 14 18 46  0.0000000  0  6 16 06 18 02 19 11
  23943558.417    -2088426.742 2  -1627349.238 1
  24511590.183     -607985.470 2   -473753.077 1
  21033563.571     2516947.695 3   1961253.222 2
  23190537.922    -3555224.888 2  -2770311.160 1
  20748259.177      532299.668 3    414777.709 3
  23550943.621    -2184064.656 2  -1701858.109 1
 91  5 14 18 46 15.0000000  0  6 16 06 18 02 19 11
  23940774.846    -2103028.858 2  -1638727.555 1
  24506784.804     -633233.824 2   -493427.008 1
  21040859.315     2555295.301 3   1991134.424 3
  23183997.049    -3589594.425 2  -2797092.583 1
  20750649.420      544860.086 3    424565.035 3
  23547853.964    -2200357.331 2  -1714553.590 1
 91  5 14 18 46 30.0000000  0  6 16 06 18 02 19 11
  23938035.641    -2117447.143 2  -1649962.609 1
  24501997.118     -658401.565 2   -513038.178 1
  21048190.143     2593807.845 3   2021144.150 2
  23177474.471    -3623847.441 2  -2823783.212 1
  20753063.353      557530.177 3    434437.829 3
  23544782.290    -2216475.518 2  -1727113.078 1
 91  5 14 18 46 45.0000000  0  6 16 06 18 02 19 11
  23935329.113    -2131681.468 2  -1661054.286 1
  24497221.124     -683488.809 2   -532586.585 1
  21055549.449     2632484.901 3   2051282.062 2
  23170981.865    -3657983.973 2  -2850383.069 1
  20755493.173      570309.947 3    444396.081 3
  23541745.690    -2232418.844 2  -1739536.356 1
 91  5 14 18 47  0.0000000  0  6 16 06 18 02 19 11
  23932651.071    -2145738.180 2  -1672007.600 1
  24492466.420     -708501.526 2   -552076.936 1
  21062939.032     2671320.528 3   2081543.542 3
  23164506.944    -3692009.998 2  -2876896.831 1
  20757946.971      583193.233 3    454434.995 3
  23538749.863    -2248193.215 2  -1751827.917 1
 91  5 14 18 47 15.0000000  0  6 16 06 18 02 19 11
  23930007.503    -2159624.169 2  -1682827.877 1
  24487708.714     -733447.412 2   -571515.273 1
  21070359.196     2710307.136 3   2111922.666 2
  23158053.609    -3725932.681 2  -2903330.063 1
  20760416.360      596172.525 3    464548.715 3
  23535776.817    -2263805.680 2  -1763993.351 1
 91  5 14 18 47 30.0000000  0  6 16 06 18 02 19 11
  23927400.502    -2173338.389 2  -1693514.280 1
  24482980.386     -758325.711 2   -590900.878 1
  21077809.340     2749445.317 3   2142419.897 3
  23151619.164    -3759751.047 2  -2929681.984 1
  20762904.342      609248.502 3    474737.774 3
  23532836.455    -2279255.261 2  -1776031.864 1
 91  5 14 18 47 45.0000000  0  6 16 06 18 02 19 11
  23924818.096    -2186889.391 2  -1704073.514 1
  24478259.552     -783144.954 2   -610240.479 1
  21085280.764     2788726.701 3   2173028.721 2
  23145197.912    -3793473.365 2  -2955959.072 1
  20765407.008      622412.875 3    484995.725 2
  23529922.173    -2294550.103 2  -1787949.803 1
 91  5 14 18 48  0.0000000  0  6 16 06 18 02 19 11
  23922274.352    -2200275.248 2  -1714504.084 1
  24473543.221     -807903.471 2   -629532.704 1
  21092785.771     2828152.486 3   2203750.054 3
  23138802.442    -3827098.071 2  -2982160.105 2
  20767933.355      635667.193 3    495323.760 3
  23527042.965    -2309688.303 2  -1799745.671 1
 91  5 14 18 48 15.0000000  0  6 16 06 18 02 19 11
  23919758.196    -2213486.565 2  -1724798.619 1
  24468841.574     -832592.107 2   -648770.545 1
  21100315.357     2867731.863 3   2234591.074 2
  23132425.556    -3860615.559 2  -3008277.585 1
  20770471.105      649020.775 3    505729.141 3
  23524195.535    -2324660.116 2  -1811411.900 1
 91  5 14 18 48 30.0000000  0  6 16 06 18 02 19 11
  23917275.911    -2226521.272 2  -1734955.589 1
  24464160.317     -857208.956 2   -667952.448 1
  21107878.822     2907466.623 3   2265553.175 3
  23126066.357    -3894023.797 2  -3034309.936 1
  20773032.230      662475.348 3    516213.211 3
  23521376.592    -2339463.428 2  -1822946.825 1
 91  5 14 18 48 45.0000000  0  6 16 06 18 02 19 11
  23914835.603    -2239375.013 2  -1744971.569
  24459489.845     -881750.012 2   -687075.215 1
  21115468.663     2947361.169 3   2296639.779 3
  23119727.548    -3927318.717 2  -3060253.984 1
  20775611.041      676034.998 3    526779.174 3
  23518594.512    -2354093.888 2  -1834347.076 1
 91  5 14 18 49  0.0000000  0  6 16 06 18 02 19 11
  23912417.474    -2252047.447 2  -1754846.098 1
  24454834.371     -906214.990 2   -706138.838 1
  21123094.190     2987415.093 3   2327850.579 3
  23113413.317    -3960499.690 2  -3086109.247 2
  20778212.947      689700.139 3    537427.335 3
  23515838.826    -2368550.837 2  -1845612.092 1
 91  5 14 18 49 15.0000000  0  6 16 06 18 02 19 11
  23910036.828    -2264540.701 2  -1764581.099 1
  24450193.887     -930606.532 2   -725145.091 1
  21130743.991     3027625.831 3   2359183.579 2
  23107118.875    -3993569.194 2  -3111877.625 1
  20780833.132      703468.310 3    548155.782 3
  23513123.904    -2382836.549 2  -1856743.708 1
 91  5 14 18 49 30.0000000  0  6 16 06 18 02 19 11
  23907704.441    -2276848.113 2  -1774171.286 1
  24445563.585     -954917.835 2   -744088.921 1
  21138426.772     3068000.195 3   2390644.075 3
  23100852.014    -4026520.186 2  -3137553.678 1
  20783479.396      717346.302 3    558969.794 3
  23510439.860    -2396943.913 2  -1867736.337 1
 91  5 14 18 49 45.0000000  0  6 16 06 18 02 19 11
  23905391.240    -2288987.258 2  -1783630.361 1
  24440947.985     -979166.785 2   -762984.181 1
  21146134.437     3108520.522 3   2422218.321 3
  23094601.939    -4059370.483 2  -3163151.265 1
  20786131.062      731315.984 3    569855.256 2
  23507786.397    -2410890.423 2  -1878603.624 1
 91  5 14 18 50  0.0000000  0  6 16 06 18 02 19 11
  23903110.723    -2300962.739 2  -1792961.905 1
  24436347.069    -1003358.173 2   -781834.568 1
  21153876.872     3149181.627 3   2453902.260 3
  23088365.057    -4092124.748 2  -3188673.980 1
  20788810.909      745372.753 3    580808.609 2
  23505161.117    -2424680.420 2  -1889348.952 1
 91  5 14 18 50 15.0000000  0  6 16 06 18 02 19 11
  23900859.881    -2312773.907 2  -1802165.397 1
  24431757.243    -1027491.379 2   -800639.490 1
  21161636.704     3189983.940 3   2485696.220 3
  23082155.458    -4124782.097 2  -3214121.229 1
  20791496.750      759517.353 3    591830.354 3
  23502568.808    -2438312.981 2  -1899971.593 1
 91  5 14 18 50 30.0000000  0  6 16 06 18 02 19 11
  23898649.209    -2324424.822 2  -1811244.058 1
  24427171.317    -1051570.880 2   -819402.763 1
  21169430.111     3230923.363 3   2517597.030 2
  23075956.948    -4157346.702 2  -3239496.184 1
  20794205.670      773745.278 3    602917.039 2
  23500001.087    -2451792.238 2  -1910474.790 1
 91  5 14 18 50 45.0000000  0  6 16 06 18 02 19 11
  23896458.029    -2335910.313 2  -1820193.746 1
  24422600.983    -1075591.447 2   -838120.052 1
  21177247.495     3272004.772 3   2549608.472 3
  23069779.720    -4189813.200 2  -3264794.683 1
  20796929.282      788061.563 3    614072.578 2
  23497467.246    -2465112.780 2  -1920854.328 1
 91  5 14 18 51  0.0000000  0  6 16 06 18 02 19 11
  23894306.417    -2347239.720 2  -1829021.881 1
  24418041.145    -1099562.940 2   -856798.927 1
  21185089.169     3313218.108 3   2581722.715 2
  23063616.294    -4222191.361 2  -3290024.369 1
  20799670.284      802456.529 3    625289.443 2
  23494955.880    -2478283.956 2  -1931117.417 1
 91  5 14 18 51 15.0000000  0  6 16 06 18 02 19 11
  23892176.094    -2358411.509 2  -1837727.182 1
  24413488.794    -1123484.049 2   -875438.806 1
  21192959.915     3354564.748 3   2613940.826 3
  23057474.446    -4254479.626 2  -3315183.980 1
  20802422.384      816931.498 3    636568.640 3
  23492482.591    -2491304.168 2  -1941262.949 1
 91  5 14 18 51 30.0000000  0  6 16 06 18 02 19 11
  23890076.946    -2369426.181 2  -1846310.027 1
  24408946.336    -1147355.355 2   -894039.719 1
  21200849.560     3396044.138 3   2646262.394 2
  23051346.985    -4286678.494 2  -3340273.947 2
  20805197.859      831485.994 3    647909.801 3
  23490032.389    -2504173.673 2  -1951291.017 1
 91  5 14 18 51 45.0000000  0  6 16 06 18 02 19 11
  23888020.665    -2380281.129 2  -1854768.439 1
  24404410.780    -1171174.298 2   -912599.940 1
  21208769.777     3437658.712 3   2678689.291 2
  23045235.413    -4318784.938 2  -3365291.884 1
  20807976.640      846122.771 3    659315.077 3
  23487611.563    -2516889.424 2  -1961199.282 1
 91  5 14 18 52  0.0000000  0  6 16 06 18 02 19 11
  23885979.077    -2390977.297 2  -1863103.122 1
  24399889.612    -1194942.045 2   -931120.190 1
  21216716.973     3479406.872 3   2711220.282 2
  23039143.629    -4350800.083 2  -3390238.673 1
  20810778.796      860840.541 3    670783.473 2
  23485225.220    -2529452.388 2  -1970988.456 1
 91  5 14 18 52 15.0000000  0  6 16 06 18 02 19 11
  23883973.471    -2401515.577 2  -1871314.794 1
  24395379.534    -1218659.646 2   -949601.284 1
  21224681.558     3521287.960 3   2743854.862 2
  23033066.241    -4382724.791 2  -3415115.007 2
  20813593.246      875638.506 3    682314.356 3
  23482858.656    -2541863.263 2  -1980659.130 1
 91  5 14 18 52 30.0000000  0  6 16 06 18 02 19 11
  23881992.444    -2411899.171 2  -1879405.924 1
  24390867.954    -1242330.345 2   -968045.915 1
  21232679.420     3563298.417 3   2776590.239 3
  23027007.735    -4414562.131 2  -3439923.262 1
  20816427.187      890513.296 3    693905.096 3
  23480526.566    -2554124.922 2  -1990213.574 1
 91  5 14 18 52 45.0000000  0  6 16 06 18 02 19 11
  23880056.377    -2422125.409 2  -1887374.430 1
  24386377.062    -1265952.100 2   -986452.374 1
  21240700.072     3605440.083 3   2809427.861 2
  23020967.814    -4446309.856 2  -3464661.656 1
  20819270.116      905466.933 3    705557.281 3
  23478221.165    -2566235.081 2  -1999649.917 1
 91  5 14 18 53  0.0000000  0  6 16 06 18 02 19 11
  23878138.607    -2432189.587 2  -1895216.674 1
  24381889.468    -1289520.604 2  -1004817.373 1
  21248742.302     3647717.274 3   2842371.085 2
  23014945.586    -4477963.451 2  -3489326.730 1
  20822133.740      920503.743 3    717274.288 2
  23475945.744    -2578188.909 2  -2008964.465 1
 91  5 14 18 53 15.0000000  0  6 16 06 18 02 19 11
  23876249.917    -2442094.711 2  -1902934.952 1
  24377419.263    -1313038.654 2  -1023143.041 1
  21256812.713     3690127.019 3   2875417.605 2
  23008937.145    -4509525.653 2  -3513920.545 1
  20825008.149      935620.893 3    729053.887 3
  23473706.593    -2589988.932 2  -2018159.174 1
 91  5 14 18 53 30.0000000  0  6 16 06 18 02 19 11
  23874398.397    -2451839.470 2  -1910528.267 1
  24372951.458    -1336505.126 2  -1041428.495 1
  21264910.705     3732670.481 3   2908568.324 2
  23002949.094    -4540995.077 2  -3538442.104 1
  20827897.844      950819.726 3    740897.138 3
  23471484.831    -2601633.757 2  -2027232.944 1
 91  5 14 18 53 45.0000000  0  6 16 06 18 02 19 11
  23872570.260    -2461424.044 2  -1917996.767 1
  24368498.040    -1359920.251 2  -1059673.960 1
  21273029.384     3775347.594 3   2941823.179 2
  22996979.025    -4572371.725 2  -3562891.345 1
  20830807.030      966099.960 3    752803.827 2
  23469298.441    -2613123.144 2  -2036185.639 1
 91  5 14 18 54  0.0000000  0  6 16 06 18 02 19 11
  23870781.403    -2470848.242 2  -1925340.311 1
  24364050.320    -1383284.248 2  -1077879.599 1
  21281175.948     3818157.942 3   2975181.850 2
  22991030.237    -4603655.602 2  -3587268.307 1
  20833733.606      981461.485 3    764773.861 3
  23467142.633    -2624457.100 2  -2045017.153 1
 91  5 14 18 54 15.0000000  0  6 16 06 18 02 19 11
  23869017.125    -2480108.447 2  -1932556.074 1
  24359621.184    -1406593.567 2  -1096042.555 1
  21289346.489     3861104.998 3   3008647.056 2
  22985088.351    -4634842.906 2  -3611570.026 1
  20836669.475      996907.945 3    776810.071 3
  23465010.809    -2635631.716 2  -2053724.507 1
 91  5 14 18 54 30.0000000  0  6 16 06 18 02 19 11
  23867292.118    -2489204.100 2  -1939643.577 1
  24355189.649    -1429847.558 2  -1114162.484 1
  21297547.315     3904189.132 3   3042219.073 2
  22979176.147    -4665932.970 2  -3635795.944 1
  20839628.124     1012439.951 3    788912.950 2
  23462921.556    -2646646.130 2  -2062307.065 1
 91  5 14 18 54 45.0000000  0  6 16 06 18 02 19 11
  23865588.096    -2498133.772 2  -1946601.761 1
  24350775.808    -1453045.211 2  -1132238.491 1
  21305772.423     3947411.203 3   3075898.562 2
  22973276.534    -4696924.464 2  -3659945.084 1
  20842599.669     1028058.481 3    801083.246 2
  23460852.388    -2657498.866 2  -2070763.628 1
 91  5 14 18 55  0.0000000  0  6 16 06 18 02 19 11
  23863927.551    -2506885.768 2  -1953421.471 1
  24346371.557    -1476175.205 2  -1150261.740 1
  21314025.111     3990782.678 3   3109694.488 2
  22967400.898    -4727805.865 2  -3684008.433 2
  20845590.995     1043774.873 3    813329.802 3
  23458822.491    -2668178.308 2  -2079085.160 1
 91  5 14 18 55 15.0000000  0  6 16 06 18 02 19 11
  23862296.374    -2515463.883 2  -1960105.752 1
  24341977.199    -1499241.411 2  -1168235.284 1
  21322307.769     4034299.481 3   3143603.644 2
  22961546.254    -4758581.028 2  -3707988.969 1
  20848597.318     1059585.193 3    825649.546 2
  23456822.583    -2678688.034 2  -2087274.466 1
 91  5 14 18 55 30.0000000  0  6 16 06 18 02 19 11
  23860693.388    -2523856.316 2  -1966645.294 1
  24337607.124    -1522232.467 2  -1186150.327 1
  21330616.821     4077972.984 3   3177634.902 2
  22955706.896    -4789238.155 2  -3731877.528 1
  20851628.517     1075501.094 3    838051.574 3
  23454854.739    -2689016.314 2  -2095322.328 1
 91  5 14 18 55 45.0000000  0  6 16 06 18 02 19 11
  23859134.168    -2532063.863 2  -1973040.796 1
  24333252.640    -1545149.072 2  -1204007.354 1
  21338954.945     4121802.135 3   3211787.459 2
  22949897.518    -4819777.964 3  -3755674.683 2
  20854673.807     1091521.970 3    850535.395 3
  23452926.481    -2699163.500 2  -2103229.160 1
 91  5 14 18 56  0.0000000  0  6 16 06 18 02 19 11
  23857608.522    -2540087.209 2  -1979292.761 1
  24328908.949    -1567992.110 2  -1221807.048 1
  21347326.356     4165786.007 3   3246060.564 2
  22944107.928    -4850201.180 2  -3779380.971 1
  20857747.279     1107646.933 3    863100.315 2
  23451028.194    -2709130.121 2  -2110995.288 1
 91  5 14 18 56 15.0000000  0  6 16 06 18 02 19 11
  23856117.357    -2547932.229 2  -1985405.738 1
  24324567.955    -1590767.354 2  -1239553.875 1
  21355725.041     4209918.945 3   3280449.828 2
  22938343.519    -4880513.365 2  -3803000.750 1
  20860831.544     1123870.049 3    875741.726 2
  23449167.678    -2718921.685 2  -2118624.961 1
 91  5 14 18 56 30.0000000  0  6 16 06 18 02 19 11
  23854652.568    -2555603.792 2  -1991383.621 1
  24320246.146    -1613480.275 2  -1257252.156 1
  21364153.104     4254195.461 3   3314950.968 2
  22932593.193    -4910719.694 2  -3826538.021 1
  20863936.199     1140186.063 3    888455.519 3
  23447334.149    -2728543.362 2  -2126122.282 1
 91  5 14 18 56 45.0000000  0  6 16 06 18 02 19 11
  23853225.856    -2563103.421 2  -1997227.491 1
  24315933.631    -1636132.192 2  -1274902.925 1
  21372603.956     4298613.841 3   3349562.654 2
  22926862.663    -4940821.497 2  -3849993.886 1
  20867059.439     1156593.510 3    901240.558 3
  23445537.492    -2737996.191 2  -2133488.055 1
 91  5 14 18 57  0.0000000  0  6 16 06 18 02 19 11
  23851832.124    -2570436.504 2  -2002941.588 1
  24311629.212    -1658728.724 2  -1292510.551 1
  21381084.483     4343168.294 3   3384280.378 2
  22921153.720    -4970824.186 3  -3873372.492 2
  20870197.067     1173087.123 3    914092.755 3
  23443770.212    -2747285.369 2  -2140726.258 1
 91  5 14 18 57 15.0000000  0  6 16 06 18 02 19 11
  23850468.660    -2577603.833 2  -2008526.509 1
  24307351.168    -1681270.945 2  -1310075.895 1
  21389586.901     4387857.740 3   3419103.281 2
  22915464.251    -5000728.623 3  -3896674.523 2
  20873352.380     1189665.754 3    927011.184 3
  23442033.218    -2756411.825 2  -2147837.724 1
 91  5 14 18 57 30.0000000  0  6 16 06 18 02 19 11
  23849129.792    -2584609.546 2  -2013985.502 1
  24303065.037    -1703763.191 2  -1327602.239 1
  21398115.991     4432678.148 3   3454028.232 2
  22909790.382    -5030538.826 3  -3919903.137 2
  20876525.685     1206325.065 3    939992.486 2
  23440323.201    -2765379.317 2  -2154825.270 1
 91  5 14 18 57 45.0000000  0  6 16 06 18 02 19 11
  23847829.289    -2591451.081 2  -2019316.549 1
  24298795.397    -1726203.191 2  -1345087.865 1
  21406669.669     4477631.472 3   3489056.757 2
  22904135.700    -5060252.625 2  -3943056.636 2
  20879706.781     1223067.269 3    953038.389 2
  23438650.057    -2774185.387 2  -2161687.056 1
 91  5 14 18 58  0.0000000  0  6 16 06 18 02 19 11
  23846559.968    -2598132.076 2  -2024522.517 1
  24294527.544    -1748594.459 2  -1362535.539 1
  21415251.529     4522714.065 4   3524186.014 2
  22898497.797    -5089873.214 3  -3966137.504 1
  20882911.557     1239889.109 3    966146.334 2
  23437001.805    -2782833.223 2  -2168425.543 1
 91  5 14 18 58 15.0000000  0  6 16 06 18 02 19 11
  23845317.330    -2604654.877 2  -2029605.189 1
  24290278.888    -1770939.476 2  -1379947.122 1
  21423852.279     4567923.276 3   3559413.927 2
  22892881.488    -5119402.752 3  -3989147.428 2
  20886125.940     1256788.049 3    979314.352 3
  23435388.916    -2791325.054 2  -2175042.461 1
 91  5 14 18 58 30.0000000  0  6 16 06 18 02 19 11
  23844104.671    -2611015.369 2  -2034561.442 1
  24286036.827    -1793234.391 2  -1397319.696 1
  21432480.304     4613262.811 3   3594743.392 2
  22887278.066    -5148837.305 3  -4012083.303 2
  20889355.303     1273768.024 3    992545.526 3
  23433801.514    -2799656.643 2  -2181534.541 1
 91  5 14 18 58 45.0000000  0  6 16 06 18 02 19 11
  23842930.986    -2617209.604 2  -2039388.121 1
  24281804.660    -1815475.362 2  -1414650.269 1
  21441131.415     4658736.507 3   3630177.404 2
  22881695.933    -5178172.765 3  -4034942.001 2
  20892603.251     1290832.859 3   1005842.808 3
  23432249.195    -2807823.861 2  -2187898.516 1
 91  5 14 18 59  0.0000000  0  6 16 06 18 02 19 11
  23841782.474    -2623237.471 2  -2044085.122 1
  24277578.785    -1837662.528 2  -1431938.940 1
  21449813.404     4704344.264 3   3665715.870 2
  22876133.886    -5207409.206 3  -4057723.527 1
  20895868.893     1307982.336 3   1019206.049 2
  23430725.948    -2815826.650 2  -2194134.372 1
 91  5 14 18 59 15.0000000  0  6 16 06 18 02 19 11
  23840671.750    -2629099.197 2  -2048652.677 1
  24273369.696    -1859796.314 2  -1449185.911 1
  21458519.972     4750085.256 3   3701358.154 2
  22870588.625    -5236546.816 3  -4080428.034 1
  20899145.922     1325216.218 3   1032635.067 2
  23429235.080    -2823664.957 2  -2200242.067 1
 91  5 14 18 59 30.0000000  0  6 16 06 18 02 19 11
  23839583.799    -2634800.295 2  -2053095.147 1
  24269167.204    -1881882.503 2  -1466395.868 1
  21467246.032     4795953.724 3   3737099.772 2
  22865060.449    -5265591.282 3  -4103059.988 1
  20902443.342     1342528.749 3   1046125.359 3
  23427773.589    -2831344.392 2  -2206225.948 1
 91  5 14 18 59 45.0000000  0  6 16 06 18 02 19 11
  23838530.626    -2640336.206 2  -2057408.822 1
  24264977.005    -1903916.517 2  -1483565.129 1
  21475999.977     4841954.312 3   3772944.340 2
  22859553.858    -5294537.843 3  -4125615.635 2
  20905751.545     1359924.544 3   1059680.530 3
  23426349.276    -2838859.802 2  -2212082.056 1
 91  5 14 19  0  0.0000000  0  6 16 06 18 02 19 11
  23837508.637    -2645711.090 2  -2061597.051 1
  24260789.503    -1925902.703 2  -1500697.191 1
  21484778.196     4888082.410 3   3808888.262 2
  22854061.960    -5323390.677 3  -4148098.236 1
  20909075.646     1377399.280 3   1073297.217 2
  23424943.548    -2846215.430 2  -2217813.595 1
 91  5 14 19  0 15.0000000  0  6 16 06 18 02 19 11
  23836514.227    -2650916.780 2  -2065653.413 1
  24256615.498    -1947833.004 2  -1517785.611 1
  21493581.901     4934345.841 3   3844937.641 2
  22848593.751    -5352141.535 3  -4170501.375 2
  20912418.331     1394961.097 3   1086981.757 2
  23423573.199    -2853402.969 2  -2223414.220 1
 91  5 14 19  0 30.0000000  0  6 16 06 18 02 19 11
  23835559.988    -2655959.530 2  -2069582.847 1
  24252451.981    -1969713.738 2  -1534835.475 1
  21502407.497     4980738.484 3   3881087.705 2
  22843142.321    -5380796.549 3  -4192829.843 1
  20915779.906     1412603.869 3   1100729.372 3
  23422238.825    -2860428.425 2  -2228888.521 1
 91  5 14 19  0 45.0000000  0  6 16 06 18 02 19 11
  23834626.428    -2660836.110 2  -2073382.783 1
  24248297.450    -1991541.727 2  -1551844.235 1
  21511263.665     5027262.989 3   3917340.509 2
  22837705.287    -5409352.403 3  -4215081.030 2
  20919148.671     1430330.757 3   1114542.536 3
  23420932.624    -2867288.368 2  -2234233.871 1
 91  5 14 19  1  0.0000000  0  6 16 06 18 02 19 11
  23833729.748    -2665553.349 2  -2077058.522 1
  24244149.525    -2013323.966 2  -1568817.316 1
  21520141.115     5073912.322 3   3953690.591 2
  22832290.737    -5437815.876 3  -4237260.241 1
  20922539.030     1448134.676 3   1128415.728 3
  23419657.309    -2873989.416 2  -2239455.387 1
 91  5 14 19  1 15.0000000  0  6 16 06 18 02 19 11
  23832866.652    -2670110.602 2  -2080609.664 1
  24240015.690    -2035060.137 2  -1585754.550 1
  21529039.260     5120686.711 3   3990138.122 2
  22826889.074    -5466186.574 3  -4259367.179 1
  20925938.672     1466015.815 3   1142349.090 3
  23418410.169    -2880530.974 2  -2244552.623 1
 91  5 14 19  1 30.0000000  0  6 16 06 18 02 19 11
  23832025.734    -2674508.523 2  -2084036.631 1
  24235886.044    -2056750.918 2  -1602656.345 1
  21537964.680     5167585.640 3   4026682.690 2
  22821508.099    -5494465.143 3  -4281402.313 2
  20929357.807     1483973.732 3   1156342.277 3
  23417196.916    -2886913.530 2  -2249525.951 1
 91  5 14 19  1 45.0000000  0  6 16 06 18 02 19 11
  23831221.088    -2678745.900 2  -2087338.479 1
  24231776.492    -2078395.447 2  -1619522.110 1
  21546914.382     5214609.992 3   4063324.983 2
  22816143.309    -5522650.215 3  -4303364.597 2
  20932789.235     1502009.500 3   1170396.133 3
  23416014.830    -2893135.755 2  -2254374.354 1
 91  5 14 19  2  0.0000000  0  6 16 06 18 02 19 11
  23830447.624    -2682824.717 2  -2090516.796 1
  24227654.942    -2099996.023 2  -1636353.668 1
  21555885.975     5261757.031 3   4100062.882 2
  22810795.018    -5550744.101 3  -4325255.809 2
  20936240.443     1520120.821 3   1184508.863 2
  23414859.433    -2899199.731 2  -2259099.454 1
 91  5 14 19  2 15.0000000  0  6 16 06 18 02 19 11
  23829704.437    -2686746.370 2  -2093572.588 1
  24223567.874    -2121553.831 2  -1653151.864 1
  21564881.841     5309025.405 3   4136895.329 2
  22805463.505    -5578747.664 3  -4347076.683 2
  20939698.248     1538306.475 3   1198679.517 3
  23413734.610    -2905106.350 2  -2263701.971 2
 91  5 14 19  2 30.0000000  0  6 16 06 18 02 19 11
  23828981.937    -2690508.275 2  -2096503.951 1
  24219468.513    -2143066.276 2  -1669914.689 1
  21573898.098     5356417.549 3   4173824.230 2
  22800157.182    -5606658.285 3  -4368825.076 2
  20943171.940     1556569.032 3   1212910.093 2
  23412635.569    -2910852.756 2  -2268179.648 1
 91  5 14 19  2 45.0000000  0  6 16 06 18 02 19 11
  23828300.514    -2694109.911 2  -2099310.432 2
  24215378.443    -2164533.062 2  -1686641.981 1
  21582944.038     5403933.803 3   4210849.823 2
  22794865.840    -5634475.511 3  -4390500.733 2
  20946658.529     1574908.924 3   1227200.929 3
  23411575.206    -2916438.280 2  -2272531.942 1
 91  5 14 19  3  0.0000000  0  6 16 06 18 02 19 11
  23827641.865    -2697546.256 2  -2101988.110 1
  24211304.865    -2185949.516 2  -1703330.023 1
  21592008.266     5451578.849 3   4247975.776 2
  22789588.300    -5662194.505 3  -4412099.851 2
  20950165.804     1593330.860 3   1241555.692 3
  23410550.512    -2921858.076 2  -2276755.106 1
 91  5 14 19  3 15.0000000  0  6 16 06 18 02 19 11
  23827023.097    -2700813.715 2  -2104534.140 1
  24207237.882    -2207312.092 2  -1719976.129 1
  21601097.369     5499355.802 3   4285204.514 2
  22784333.830    -5689811.516 3  -4433619.497 2
  20953687.468     1611838.509 3   1255977.243 2
  23409550.405    -2927108.307 3  -2280846.114 1
 91  5 14 19  3 30.0000000  0  6 16 06 18 02 19 11
  23826435.505    -2703911.534 2  -2106948.044 1
  24203180.488    -2228619.983 2  -1736579.579 1
  21610218.859     5547265.486 3   4322536.688 2
  22779096.462    -5717325.414 3  -4455058.805 2
  20957226.511     1630432.618 3   1270466.173 2
  23408582.974    -2932187.913 3  -2284804.120 1
 91  5 14 19  3 45.0000000  0  6 16 06 18 02 19 11
  23825874.594    -2706839.308 2  -2109229.442 1
  24199138.983    -2249872.931 2  -1753140.192 1
  21619360.426     5595307.863 3   4359972.238 2
  22773882.468    -5744735.890 3  -4476417.509 2
  20960780.257     1649113.445 3   1285022.683 2
  23407649.125    -2937096.353 2  -2288628.785 1
 91  5 14 19  4  0.0000000  0  6 16 06 18 02 19 11
  23825349.656    -2709596.814 2  -2111378.118 1
  24195107.677    -2271071.216 2  -1769658.250 1
  21628524.181     5643482.957 3   4397511.212 2
  22768687.363    -5772043.128 3  -4497695.774 2
  20964360.379     1667880.859 3   1299646.646 2
  23406746.443    -2941833.521 2  -2292319.973 1
 91  5 14 19  4 15.0000000  0  6 16 06 18 02 19 11
  23824853.800    -2712183.232 2  -2113393.521 1
  24191079.364    -2292213.885 2  -1786132.914 1
  21637717.619     5691791.500 3   4435154.171 2
  22763507.249    -5799245.977 3  -4518892.702 2
  20967940.500     1686736.075 3   1314339.038 2
  23405872.850    -2946398.127 2  -2295876.752 1
 91  5 14 19  4 30.0000000  0  6 16 06 18 02 19 11
  23824398.715    -2714595.102 2  -2115272.889 1
  24187066.643    -2313297.611 2  -1802561.670 1
  21646938.035     5740236.630 3   4472903.559 2
  22758352.620    -5826341.104 3  -4540005.692 1
  20971547.896     1705682.218 3   1329102.278 3
  23405033.434    -2950786.824 2  -2299296.471 1
 91  5 14 19  4 45.0000000  0  6 16 06 18 02 19 11
  23823976.001    -2716833.087 2  -2117016.793 1
  24183065.012    -2334323.123 2  -1818945.118 1
  21656181.241     5788817.619 3   4510758.811 2
  22753218.679    -5853328.892 3  -4561035.034 2
  20975169.096     1724718.716 3   1343935.926 3
  23404242.284    -2954999.853 2  -2302579.285 1
 91  5 14 19  5  0.0000000  0  6 16 06 18 02 19 11
  23823577.578    -2718900.847 2  -2118628.045 1
  24179082.872    -2355294.225 2  -1835286.125 1
  21665450.823     5837530.393 3   4548716.752 2
  22748099.116    -5880212.928 3  -4581983.527 2
  20978811.872     1743841.696 3   1358836.959 2
  23403469.414    -2959040.851 2  -2305728.046 1
 91  5 14 19  5 15.0000000  0  6 16 06 18 02 19 11
  23823220.529    -2720792.284 2  -2120101.869 1
  24175097.425    -2376204.828 2  -1851580.022 1
  21674750.986     5886380.749 3   4586781.896 2
  22743002.047    -5906987.123 3  -4602846.462 2
  20982464.247     1763057.283 3   1373810.153 2
  23402741.522    -2962903.549 3  -2308737.860 1
 91  5 14 19  5 30.0000000  0  6 16 06 18 02 19 11
  23822891.357    -2722510.933 2  -2121441.086 1
  24171125.180    -2397058.908 2  -1867829.944 1
  21684069.132     5935364.586 3   4624951.056 2
  22737931.660    -5933655.228 3  -4623626.725 2
  20986139.097     1782361.554 3   1388852.448 2
  23402032.214    -2966591.500 3  -2311611.498 1
 91  5 14 19  5 45.0000000  0  6 16 06 18 02 19 11
  23822595.759    -2724062.661 2  -2122650.227 1
  24167170.612    -2417862.192 2  -1884040.162 1
  21693416.359     5984476.353 3   4663219.896 2
  22732873.863    -5960222.598 3  -4644328.480 2
  20989827.444     1801748.823 3   1403959.407 2
  23401367.867    -2970110.199 3  -2314353.264 1
 91  5 14 19  6  0.0000000  0  6 16 06 18 02 19 11
  23822330.743    -2725441.452 2  -2123724.596 1
  24163227.447    -2438608.794 2  -1900206.230 1
  21702785.171     6033721.527 3   4701592.699 2
  22727840.644    -5986683.559 3  -4664947.329 2
  20993530.485     1821225.132 3   1419135.772 2
  23400728.709    -2973453.572 2  -2316958.423 1
 91  5 14 19  6 15.0000000  0  6 16 06 18 02 19 11
  23822107.397    -2726651.050 2  -2124667.120 1
  24159288.776    -2459302.704 2  -1916331.309 1
  21712181.869     6083096.113 3   4740066.338 2
  22722823.916    -6013041.667 3  -4685486.037 2
  20997255.103     1840786.576 3   1434378.456 2
  23400121.930    -2976625.129 2  -2319429.648 1
 91  5 14 19  6 30.0000000  0  6 16 06 18 02 19 11
  23821907.138    -2727693.648 2  -2125479.541 1
  24155359.091    -2479946.285 2  -1932417.083 1
  21721602.544     6132597.660 3   4778638.913 2
  22717820.982    -6039299.249 3  -4705946.413 2
  21000996.212     1860430.755 3   1449685.604 3
  23399549.633    -2979627.117 2  -2321768.778 1
 91  5 14 19  6 45.0000000  0  6 16 06 18 02 19 11
  23821741.353    -2728566.525 2  -2126159.712 1
  24151444.702    -2500536.834 2  -1948461.657 1
  21731046.313     6182228.675 3   4817312.363 2
  22712852.216    -6065453.558 3  -4726326.296 2
  21004746.613     1880160.306 3   1465059.282 2
  23399009.706    -2982456.542 2  -2323973.479 1
 91  5 14 19  7  0.0000000  0  6 16 06 18 02 19 11
  23821607.047    -2729269.775 2  -2126707.695 1
  24147529.414    -2521074.586 2  -1964465.018 1
  21740515.857     6231989.055 3   4856086.620 2
  22707891.852    -6091504.493 3  -4746625.640 2
  21008520.702     1899975.219 3   1480499.486 2
  23398507.550    -2985113.385 2  -2326043.657 1
 91  5 14 19  7 15.0000000  0  6 16 06 18 02 19 11
  23821501.517    -2729808.456 2  -2127127.449 1
  24143633.906    -2541564.505 2  -1980431.091 1
  21750009.980     6281873.429 3   4894957.491 2
  22702954.574    -6117456.774 3  -4766848.136 2
  21012301.685     1919870.563 3   1496002.345 3
  23398035.678    -2987602.272 3  -2327982.962 1
 91  5 14 19  7 30.0010000  0  6 16 06 18 02 19 11
  23821434.066    -2730178.122 2  -2127415.525 1
  24139746.804    -2562003.839 2  -1996357.774 1
  21759526.294     6331889.047 3   4933930.633 2
  22698033.476    -6143308.030 3  -4786991.898 1
  21016108.749     1939851.742 3   1511572.096 2
  23397596.782    -2989919.091 3  -2329788.194 2
 91  5 14 19  7 45.0010000  0  6 16 06 18 02 19 11
  23821393.294    -2730380.477 2  -2127573.217 1
  24135865.387    -2582391.638 2  -2012244.296 1
  21769065.394     6382027.452 3   4972999.456 2
  22693133.673    -6169056.425 3  -4807055.514 2
  21019925.705     1959914.452 3   1527205.371 2
  23397189.067    -2992065.017 3  -2331460.275 1
 91  5 14 19  8  0.0010000  0  6 16 06 18 02 19 11
  23821387.893    -2730410.373 2  -2127596.512 1
  24131995.365    -2602724.034 2  -2028087.713 1
  21778631.464     6432297.163 3   5012170.587 2
  22688257.245    -6194698.314 3  -4827036.123 2
  21023761.551     1980065.282 3   1542907.326 2
  23396811.924    -2994034.765 3  -2332995.052 1
 91  5 14 19  8 15.0010000  0  6 16 06 18 02 19 11
  23821417.279    -2730269.012 2  -2127486.382 1
  24128137.636    -2623002.718 2  -2043889.165 1
  21788223.630     6482696.220 3   5051442.504 2
  22683395.213    -6220235.178 3  -4846934.888 2
  21027609.987     2000302.568 3   1558676.639 3
  23396472.561    -2995829.726 2  -2334393.648 1
 91  5 14 19  8 30.0010000  0  6 16 06 18 02 19 11
  23821475.432    -2729961.567 2  -2127246.797 1
  24124285.309    -2643232.692 2  -2059652.707 1
  21797838.569     6533219.225 3   5090811.007 2
  22678554.767    -6245671.889 3  -4866755.639 2
  21031477.907     2020621.462 3   1574509.532 3
  23396157.480    -2997454.604 2  -2335659.710 1
 91  5 14 19  8 45.0010000  0  6 16 06 18 02 19 11
  23821566.269    -2729482.810 2  -2126873.765 1
  24120443.469    -2663408.683 2  -2075374.162 1
  21807476.002     6583871.356 3   5130280.130 2
  22673733.499    -6271003.083 3  -4886494.159 2
  21035360.824     2041027.114 3   1590410.045 3
  23395881.670    -2998904.016 2  -2336789.075 1
 91  5 14 19  9  0.0010000  0  6 16 06 18 02 19 11
  23821688.892    -2728837.150 2  -2126370.655 1
  24116616.017    -2683535.558 2  -2091057.370 1
  21817139.810     6634647.871 3   5169846.190 2
  22668934.122    -6296233.352 3  -4906154.037 2
  21039261.419     2061514.812 3   1606374.490 3
  23395640.639    -3000182.535 2  -2337785.216 1
 91  5 14 19  9 15.0010000  0  6 16 06 18 02 19 11
  23821842.384    -2728019.609 2  -2125733.602 1
  24112797.254    -2703608.334 2  -2106698.412 1
  21826825.501     6685553.751 3   5209513.034 2
  22664150.938    -6321357.584 3  -4925731.276 2
  21043173.714     2082089.553 3   1622406.748 2
  23395431.376    -3001284.903 3  -2338644.122 1
 91  5 14 19  9 30.0010000  0  6 16 06 18 02 19 11
  23822034.851    -2727033.942 2  -2124965.594 1
  24108986.598    -2723630.536 2  -2122300.076 1
  21836535.483     6736585.182 3   5249277.715 2
  22659392.325    -6346379.158 3  -4945228.539 2
  21047106.993     2102747.802 3   1638504.084 2
  23395253.899    -3002214.493 3  -2339368.361 1
 91  5 14 19  9 45.0010000  0  6 16 06 18 02 19 11
  23822254.898    -2725879.895 2  -2124066.333 1
  24105184.632    -2743602.161 2  -2137862.278 1
  21846270.340     6787742.201 3   5289140.257 2
  22654647.812    -6371297.890 3  -4964645.664 2
  21051051.362     2123489.850 3   1654666.728 2
  23395112.700    -3002970.920 3  -2339957.670 1
 91  5 14 19 10  0.0010000  0  6 16 06 18 02 19 11
  23822504.620    -2724555.000 2  -2123033.964 1
  24101396.748    -2763520.836 2  -2153383.214 1
  21856033.684     6839027.064 3   5329102.420 2
  22649924.587    -6396111.408 3  -4983980.787 2
  21055014.315     2144318.040 3   1670896.494 2
  23395001.176    -3003551.665 3  -2340410.107 1
 91  5 14 19 10 15.0010000  0  6 16 06 18 02 19 11
  23822793.019    -2723064.991 2  -2121872.936 1
  24097611.272    -2783392.301 2  -2168867.381 1
  21865814.113     6890433.593 3   5369159.380 2
  22645223.839    -6420825.280 3  -5003238.292 2
  21058993.759     2165226.749 3   1687188.996 3
  23394923.234    -3003962.277 2  -2340729.981 2
 91  5 14 19 10 30.0010000  0  6 16 06 18 02 19 11
  23823101.513    -2721404.725 2  -2120579.247 1
  24093846.475    -2803211.595 2  -2184310.904 1
  21875617.924     6941966.673 3   5409314.960 2
  22640541.378    -6445434.284 3  -5022414.060 2
  21062993.890     2186220.991 3   1703548.144 2
  23394869.872    -3004197.386 2  -2340913.131 2
 91  5 14 19 10 45.0010000  0  6 16 06 18 02 19 11
  23823449.872    -2719572.738 2  -2119151.752 1
  24090079.880    -2822977.709 2  -2199712.988 1
  21885450.817     6993627.352 3   5449569.958 2
  22635877.511    -6469937.165 3  -5041507.148 2
  21067002.118     2207301.731 3   1719974.699 2
  23394863.276    -3004255.797 2  -2340958.588 2
 91  5 14 19 11  0.0010000  0  6 16 06 18 02 19 11
  23823831.508    -2717572.012 2  -2117592.750 1
  24086328.581    -2842693.212 2  -2215075.673 1
  21895306.499     7045412.601 3   5489922.025 2
  22631237.018    -6494336.627 3  -5060519.651 2
  21071030.431     2228466.277 3   1736466.556 2
  23394886.057    -3004140.003 2  -2340868.267 1
 91  5 14 19 11 15.0010000  0  6 16 06 18 02 19 11
  23824245.820    -2715403.549 2  -2115903.072 1
  24082588.371    -2862359.122 2  -2230399.651 1
  21905183.758     7097321.353 3   5530370.345 2
  22626614.220    -6518633.524 3  -5079452.231 2
  21075073.131     2249713.882 3   1753023.124 2
  23394941.522    -3003850.752 2  -2340642.823 1
 91  5 14 19 11 30.0010000  0  6 16 06 18 02 19 11
  23824693.104    -2713059.581 2  -2114076.608 1
  24078851.756    -2881968.020 2  -2245679.248 1
  21915085.605     7149361.010 3   5570920.654 2
  22622009.413    -6542820.061 3  -5098298.809 2
  21079138.020     2271052.121 3   1769650.326 2
  23395033.851    -3003380.272 2  -2340276.125 1
 91  5 14 19 11 45.0010000  0  6 16 06 18 02 19 11
  23825170.681    -2710549.661 2  -2112120.815 1
  24075131.335    -2901529.667 2  -2260921.962 1
  21925012.929     7201521.552 3   5611565.164 2
  22617424.979    -6566905.936 3  -5117066.951 2
  21083208.597     2292471.154 3   1786340.485 2
  23395150.175    -3002738.130 3  -2339775.661 1
 91  5 14 19 12  0.0010000  0  6 16 06 18 02 19 11
  23825676.127    -2707871.342 2  -2110033.838 1
  24071416.907    -2921041.585 2  -2276125.977 1
  21934963.340     7253805.291 3   5652305.662 2
  22612862.140    -6590888.621 3  -5135754.683 2
  21087305.865     2313973.356 3   1803095.442 2
  23395309.966    -3001921.608 3  -2339139.320 1
 91  5 14 19 12 15.0010000  0  6 16 06 18 02 19 11
  23826222.354    -2705024.326 2  -2107815.405 1
  24067713.265    -2940503.336 2  -2291290.906 1
  21944935.040     7306212.709 3   5693142.541 2
  22608319.386    -6614767.346 3  -5154361.418 2
  21091406.422     2335559.495 3   1819915.801 3
  23395500.933    -3000929.991 3  -2338366.567 1
 91  5 14 19 12 30.0010000  0  6 16 06 18 02 19 11
  23826797.949    -2702004.691 2  -2105462.462 1
  24064019.525    -2959911.161 2  -2306413.794 1
  21954931.921     7358747.191 3   5734078.437 2
  22603795.521    -6638538.253 3  -5172884.126 2
  21095531.269     2357233.278 3   1836804.449 2
  23395723.981    -2999759.447 2  -2337454.348 1
 91  5 14 19 12 45.0010000  0  6 16 06 18 02 19 11
  23827403.236    -2698819.155 2  -2102980.254 1
  24060336.272    -2979271.965 2  -2321500.092 1
  21964951.880     7411401.765 3   5775107.907 2
  22599292.039    -6662208.054 3  -5191328.060 2
  21099671.700     2378987.814 3   1853756.033 3
  23395978.205    -2998416.575 2  -2336407.878 1
 91  5 14 19 13  0.0010000  0  6 16 06 18 02 19 11
  23828042.987    -2695463.032 2  -2100365.083 1
  24056667.713    -2998581.102 2  -2336546.077 1
  21974997.630     7464181.041 3   5816234.535 2
  22594804.445    -6685772.273 3  -5209689.715 2
  21103830.724     2400827.791 3   1870774.192 2
  23396262.408    -2996896.641 2  -2335223.453 1
 91  5 14 19 13 15.0010000  0  6 16 06 18 02 19 11
  23828710.031    -2691939.909 2  -2097619.804 1
  24053000.358    -3017842.317 2  -2351554.761 1
  21985061.956     7517080.966 3   5857455.181 2
  22590339.632    -6709234.432 3  -5227971.856 2
  21107999.633     2422749.507 3   1887856.043 3
  23396587.977    -2995202.929 2  -2333903.605 1
 91  5 14 19 13 30.0010000  0  6 16 06 18 02 19 11
  23829412.140    -2688248.892 2  -2094743.711 1
  24049343.787    -3037054.604 2  -2366525.293 1
  21995150.572     7570102.470 3   5898770.576 2
  22585897.906    -6732593.418 3  -5246173.587 2
  21112186.237     2444753.978 3   1905002.381 2
  23396943.237    -2993334.384 2  -2332447.529 1
 91  5 14 19 13 45.0010000  0  6 16 06 18 02 19 11
  23830144.831    -2684393.750 2  -2091739.710 1
  24045698.009    -3056221.942 2  -2381460.778 1
  22005263.174     7623241.431 3   5940177.481 2
  22581469.076    -6755852.925 3  -5264297.801 2
  21116386.626     2466837.285 3   1922210.137 2
  23397333.267    -2991294.699 2  -2330858.103 1
 91  5 14 19 14  0.0010000  0  6 16 06 18 02 19 11
  23830911.402    -2680377.062 2  -2088609.861 1
  24042055.834    -3075346.830 2  -2396363.255 1
  22015397.362     7676495.152 3   5981673.820 2
  22577063.925    -6779015.331 3  -5282346.370 2
  21120604.710     2488997.060 3   1939477.489 3
  23397751.173    -2989086.326 2  -2329137.224 1
 91  5 14 19 14 15.0010000  0  6 16 06 18 02 19 11
  23831712.149    -2676192.502 2  -2085349.176 1
  24038424.444    -3094423.042 2  -2411227.761 1
  22025554.025     7729869.797 3   6023264.371 2
  22572674.061    -6802074.062 3  -5300314.144 2
  21124839.878     2511239.706 3   1956809.410 2
  23398204.460    -2986702.644 2  -2327279.762 1
 91  5 14 19 14 30.0010000  0  6 16 06 18 02 19 11
  23832533.583    -2671838.040 2  -2081956.119 1
  24034803.253    -3113448.669 2  -2426052.821 1
  22035734.081     7783367.120 3   6064950.528 2
  22568305.190    -6825027.312 3  -5318199.722 2
  21129095.131     2533567.036 3   1974207.310 2
  23398691.923    -2984141.618 3  -2325284.065 1
 91  5 14 19 14 45.0010000  0  6 16 06 18 02 19 11
  23833399.079    -2667306.686 2  -2078425.211 1
  24031193.152    -3132417.018 2  -2440833.323 1
  22045939.911     7836993.663 3   6106737.368 2
  22563962.092    -6847868.212 3  -5335997.740 2
  21133351.885     2555985.857 3   1991676.520 2
  23399218.361    -2981396.245 3  -2323144.759 1
 91  5 14 19 15  0.0010000  0  6 16 06 18 02 19 11
  23834291.265    -2662611.025 2  -2074766.271 1
  24027590.249    -3151340.618 2  -2455578.906 1
  22056167.937     7890736.484 3   6148614.819 2
  22559631.594    -6870609.097 3  -5353717.857 2
  21137637.118     2578483.637 3   2009207.245 3
  23399772.973    -2978478.970 3  -2320871.487 1
 91  5 14 19 15 15.0010000  0  6 16 06 18 02 19 11
  23835219.119    -2657750.396 2  -2070978.782 1
  24024002.328    -3170218.336 2  -2470288.709 1
  22066416.938     7944596.588 3   6190583.654 2
  22555322.978    -6893248.870 3  -5371359.164 2
  21141931.948     2601061.456 3   2026800.339 3
  23400358.471    -2975388.513 2  -2318463.284 1
 91  5 14 19 15 30.0010000  0  6 16 06 18 02 19 11
  23836174.562    -2652728.783 2  -2067065.832 1
  24020418.908    -3189054.783 2  -2484966.370 1
  22076684.533     7998569.428 3   6232640.352 2
  22551035.041    -6915791.868 3  -5388925.075 2
  21146241.166     2623714.944 3   2044452.398 2
  23400979.036    -2972129.085 2  -2315923.392 1
 91  5 14 19 15 45.0010000  0  6 16 06 18 02 19 11
  23837158.475    -2647547.891 2  -2063028.828 1
  24016837.286    -3207851.593 2  -2499613.213 1
  22086978.207     8052652.938 3   6274783.270 2
  22546762.704    -6938239.650 3  -5406416.779 2
  21150567.764     2646442.408 3   2062162.106 2
  23401630.784    -2968702.200 2  -2313253.057 2
 91  5 14 19 16  0.0010000  0  6 16 06 18 02 19 11
  23838180.473    -2642205.073 2  -2058865.627 1
  24013270.356    -3226605.774 2  -2514226.721 1
  22097292.865     8106850.442 3   6317015.016 2
  22542508.646    -6960589.003 3  -5423831.788 2
  21154907.267     2669247.032 3   2079931.938 3
  23402313.716    -2965104.644 2  -2310449.691 1
 91  5 14 19 16 15.0010000  0  6 16 06 18 02 19 11
  23839224.048    -2636698.583 2  -2054574.842 1
  24009714.822    -3245315.809 2  -2528805.914 1
  22107628.507     8161162.817 3   6359336.273 2
  22538277.972    -6982838.521 3  -5441169.021 2
  21159261.148     2692130.394 3   2097763.128 3
  23403031.120    -2961334.867 2  -2307512.143 1
 91  5 14 19 16 30.0010000  0  6 16 06 18 02 19 11
  23840303.597    -2631031.439 2  -2050158.968 1
  24006160.178    -3263984.971 2  -2543353.231 1
  22117983.039     8215586.842 3   6401744.532 2
  22534060.193    -7004991.203 3  -5458430.786 2
  21163636.921     2715089.188 3   2115653.087 2
  23403780.599    -2957395.855 2  -2304442.717 1
 91  5 14 19 16 45.0010000  0  6 16 06 18 02 19 11
  23841407.141    -2625201.155 2  -2045615.888 1
  24002614.233    -3282610.838 2  -2557866.825 1
  22128360.954     8270124.636 3   6444241.445 2
  22529865.501    -7027044.409 3  -5475615.039 2
  21168013.593     2738125.831 3   2133603.714 2
  23404565.754    -2953284.998 2  -2301239.413 1
 91  5 14 19 17  0.0010000  0  6 16 06 18 02 19 11
  23842551.447    -2619213.668 2  -2040950.368 1
  23999075.486    -3301199.381 2  -2572351.316 1
  22138761.353     8324770.164 3   6486822.302 2
  22525686.994    -7049004.007 3  -5492726.353 2
  21172412.740     2761234.481 3   2151610.462 2
  23405376.691    -2949008.132 3  -2297906.728 1
 91  5 14 19 17 15.0010000  0  6 16 06 18 02 19 11
  23843720.935    -2613068.263 2  -2036161.764 1
  23995548.727    -3319749.894 2  -2586806.213 1
  22149182.737     8379524.075 3   6529487.614 2
  22521524.376    -7070869.211 3  -5509764.107 2
  21176822.690     2784415.900 3   2169673.897 2
  23406223.908    -2944564.288 3  -2294443.955 1
 91  5 14 19 17 30.0010000  0  6 16 06 18 02 19 11
  23844916.807    -2606768.872 2  -2031253.178 1
  23992027.665    -3338266.225 2  -2601234.377 1
  22159619.712     8434382.258 3   6572234.172 2
  22517381.842    -7092643.710 3  -5526731.185 2
  21181251.223     2807666.420 3   2187791.176 3
  23407099.604    -2939957.002 3  -2290853.833 2
 91  5 14 19 17 45.0010000  0  6 16 06 18 02 19 11
  23846148.356    -2600317.803 2  -2026226.436 1
  23988503.908    -3356750.946 2  -2615638.042 1
  22170078.570     8489341.840 3   6615059.746 2
  22513254.002    -7114330.057 3  -5543629.581 2
  21185682.759     2830983.268 3   2205960.147 2
  23408007.975    -2935188.751 2  -2287138.262 1
 91  5 14 19 18  0.0010000  0  6 16 06 18 02 19 11
  23847404.789    -2593714.174 2  -2021080.749 1
  23984992.436    -3375203.021 2  -2630016.198 1
  22180557.521     8544403.763 3   6657965.058 2
  22509142.347    -7135927.069 3  -5560458.362 2
  21190134.676     2854367.669 3   2224181.753 2
  23408946.325    -2930258.309 2  -2283296.325 1
 91  5 14 19 18 15.0010000  0  6 16 06 18 02 19 11
  23848689.099    -2586959.738 2  -2015817.537 1
  23981485.762    -3393623.998 2  -2644370.153 1
  22191052.658     8599566.283 3   6700948.760 2
  22505051.074    -7157436.141 3  -5577218.619 2
  21194598.284     2877818.112 3   2242454.824 3
  23409912.858    -2925167.237 2  -2279329.207 1
 91  5 14 19 18 30.0010000  0  6 16 06 18 02 19 11
  23850004.584    -2580061.197 2  -2010442.088 1
  23977988.084    -3412021.053 2  -2658705.468 1
  22201564.573     8654822.351 3   6744005.365 2
  22500971.501    -7178864.161 3  -5593915.708 2
  21199069.091     2901327.589 3   2260773.889 3
  23410912.363    -2919922.385 2  -2275242.270 1
 91  5 14 19 18 45.0010000  0  6 16 06 18 02 19 11
  23851341.358    -2573020.154 2  -2004955.581 1
  23974489.804    -3430395.734 2  -2673023.276 1
  22212100.186     8710170.132 3   6787133.432 2
  22496912.309    -7200212.593 3  -5610550.797 2
  21203552.183     2924894.609 3   2279137.799 2
  23411938.549    -2914525.076 2  -2271036.481 2
 91  5 14 19 19  0.0010000  0  6 16 06 18 02 19 11
  23852709.315    -2565834.326 2  -1999356.262 1
  23970997.527    -3448745.855 2  -2687322.065 1
  22222649.576     8765611.604 3   6830334.501 2
  22492862.419    -7221479.314 3  -5627122.204 2
  21208053.868     2948521.313 3   2297548.213 3
  23412995.020    -2908972.996 2  -2266710.174 1
 91  5 14 19 19 15.0010000  0  6 16 06 18 02 19 11
  23854100.952    -2558499.387 2  -1993640.768 1
  23967507.344    -3467067.280 2  -2701598.446 1
  22233219.059     8821150.436 3   6873611.438 2
  22488832.004    -7242659.922 3  -5643626.518 2
  21212557.656     2972211.805 3   2316008.340 2
  23414086.566    -2903261.791 2  -2262259.847 1
 91  5 14 19 19 30.0010000  0  6 16 06 18 02 19 11
  23855530.657    -2551018.822 2  -1987811.762 1
  23964027.945    -3485362.911 2  -2715854.733 1
  22243804.736     8876783.834 3   6916962.067 2
  22484817.188    -7263757.275 3  -5660065.952 2
  21217081.223     2995963.350 3   2334516.036 2
  23415199.096    -2897394.225 3  -2257687.660 1
 91  5 14 19 19 45.0010000  0  6 16 06 18 02 19 11
  23856976.556    -2543395.976 2  -1981871.888 1
  23960552.158    -3503636.410 2  -2730093.739 1
  22254410.490     8932507.780 3   6960383.247 2
  22480815.251    -7284774.851 3  -5676443.231 2
  21221608.682     3019772.237 3   2353068.410 2
  23416349.100    -2891373.753 3  -2252996.339 2
 91  5 14 19 20  0.0010000  0  6 16 06 18 02 19 11
  23858455.436    -2535626.837 2  -1975818.035 1
  23957079.355    -3521883.967 2  -2744312.606 1
  22265029.741     8988325.951 3   7003877.848 2
  22476835.808    -7305708.872 3  -5692755.383 2
  21226152.038     3043642.375 3   2371668.526 2
  23417523.090    -2885196.401 3  -2248182.769 1
 91  5 14 19 20 15.0010000  0  6 16 06 18 02 19 11
  23859964.287    -2527709.604 2  -1969648.780 1
  23953616.752    -3540103.516 2  -2758509.562 1
  22275672.970     9044240.424 3   7047447.502 2
  22472866.258    -7326557.052 3  -5709000.653 2
  21230707.985     3067575.836 3   2390317.967 2
  23418727.050    -2878860.049 3  -2243245.288 1
 91  5 14 19 20 30.0010000  0  6 16 06 18 02 19 11
  23861497.725    -2519641.178 2  -1963361.747 1
  23950152.657    -3558292.031 2  -2772682.397 1
  22286331.789     9100254.022 3   7091094.379 2
  22468914.691    -7347316.096 3  -5725176.464 2
  21235276.225     3091575.891 3   2409019.314 2
  23419962.500    -2872361.323 2  -2238181.306 2
 91  5 14 19 20 45.0010000  0  6 16 06 18 02 19 11
  23863064.745    -2511416.909 2  -1956953.265 1
  23946697.243    -3576444.786 2  -2786827.332 1
  22297008.906     9156371.092 3   7134821.882 2
  22464983.218    -7367981.319 3  -5741279.181 2
  21239855.851     3115647.336 3   2427776.288 3
  23421230.616    -2865695.346 2  -2232986.985 1
 91  5 14 19 21  0.0010000  0  6 16 06 18 02 19 11
  23864657.244    -2503031.544 2  -1950419.245 1
  23943254.132    -3594556.677 2  -2800940.464 1
  22307706.997     9212596.728 3   7178633.992 2
  22461071.822    -7388547.586 3  -5757304.774 2
  21244446.873     3139795.189 3   2446592.808 2
  23422532.315    -2858856.852 2  -2227658.242 1
 91  5 14 19 21 15.0010000  0  6 16 06 18 02 19 11
  23866286.911    -2494482.147 2  -1943757.431 1
  23939814.607    -3612624.890 2  -2815019.526 1
  22318427.574     9268933.744 3   7222532.884 2
  22457176.619    -7409011.780 3  -5773250.837 2
  21249056.784     3164022.316 3   2465471.090 2
  23423865.494    -2851842.927 2  -2222192.800 1
 91  5 14 19 21 30.0010000  0  6 16 06 18 02 19 11
  23867944.769    -2485766.658 2  -1936966.167 1
  23936384.086    -3630647.416 2  -2829063.010 1
  22329172.432     9325383.727 3   7266519.813 2
  22453303.901    -7429371.856 3  -5789115.772 2
  21253686.475     3188330.688 3   2484412.683 2
  23425235.851    -2844651.539 2  -2216589.084 2
 91  5 14 19 21 45.0010000  0  6 16 06 18 02 19 11
  23869631.097    -2476891.156 2  -1930050.173 1
  23932964.350    -3648630.072 2  -2843075.449 1
  22339934.382     9381940.583 3   7310590.012 2
  22449442.875    -7449633.618 3  -5804904.086 2
  21258324.569     3212714.627 3   2503413.172 2
  23426638.874    -2837288.269 2  -2210851.415 2
 91  5 14 19 22  0.0010000  0  6 16 06 18 02 19 11
  23871350.405    -2467857.036 2  -1923010.656 1
  23929547.623    -3666574.378 2  -2857057.949 1
  22350717.020     9438602.753 3   7354742.292 2
  22445609.428    -7469798.491 3  -5820616.921 2
  21262985.138     3237172.956 3   2522471.608 2
  23428068.885    -2829754.419 2  -2204980.850 1
 91  5 14 19 22 15.0010000  0  6 16 06 18 02 19 11
  23873099.100    -2458669.613 2  -1915851.662 1
  23926142.580    -3684486.079 2  -2871015.087 1
  22361516.742     9495364.396 3   7398972.054 1
  22441789.174    -7489871.751 3  -5836258.368 2
  21267645.716     3261699.842 3   2541583.472 2
  23429533.674    -2822055.522 2  -2198981.666 1
 91  5 14 19 22 30.0010000  0  6 16 06 18 02 19 11
  23874879.860    -2449334.115 2  -1908577.182 1
  23922734.238    -3702369.887 2  -2884950.466 1
  22372338.948     9552220.472 3   7443275.412 2
  22437984.809    -7509858.239 3  -5851832.188 2
  21272327.278     3286290.538 3   2560745.053 2
  23431031.731    -2814196.285 2  -2192857.524 1
 91  5 14 19 22 45.0010000  0  6 16 06 18 02 19 11
  23876684.012    -2439852.497 2  -1901188.973 1
  23919333.391    -3720227.935 2  -2898865.792 1
  22383176.449     9609168.785 3   7487650.640 2
  22434199.028    -7529760.039 3  -5867340.030 2
  21277016.326     3310942.817 3   2579954.630 2
  23432555.580    -2806178.598 2  -2186609.937 1
 91  5 14 19 23  0.0010000  0  6 16 06 18 02 19 11
  23878517.550    -2430224.689 2  -1893686.806 1
  23915944.533    -3738060.340 2  -2912761.091 1
  22394029.534     9666208.932 3   7532097.433 2
  22430427.940    -7549577.059 3  -5882781.796 2
  21281723.967     3335656.744 3   2599212.236 3
  23434110.604    -2798002.478 2  -2180238.892 1
 91  5 14 19 23 15.0010000  0  6 16 06 18 02 19 11
  23880378.354    -2420452.207 2  -1886071.942 1
  23912554.784    -3755868.355 2  -2926637.396 1
  22404901.508     9723339.151 3   7576614.409 2
  22426671.841    -7569310.475 3  -5898158.433 2
  21286433.711     3360431.064 3   2618516.900 2
  23435699.202    -2789669.012 2  -2173745.223 1
 91  5 14 19 23 30.0010000  0  6 16 06 18 02 19 11
  23882257.760    -2410534.633 2  -1878343.993 1
  23909167.427    -3773651.734 2  -2940494.579 1
  22415787.870     9780559.876 3   7621201.919 2
  22422932.827    -7588959.971 3  -5913469.652 2
  21291160.539     3385266.162 3   2637868.936 2
  23437312.989    -2781177.865 2  -2167128.724 1
 91  5 14 19 23 45.0010000  0  6 16 06 18 02 19 11
  23884173.733    -2400468.764 2  -1870500.458 1
  23905786.368    -3791406.848 2  -2954329.684 1
  22426696.717     9837874.692 3   7665862.738 2
  22419211.803    -7608521.722 3  -5928712.517 2
  21295898.456     3410165.820 3   2657271.262 2
  23438962.148    -2772525.103 2  -2160386.245 2
 91  5 14 19 24  0.0010000  0  6 16 06 18 02 19 11
  23886121.186    -2390256.239 2  -1862542.708 1
  23902417.901    -3809135.693 2  -2968144.287 1
  22437619.358     9895281.126 3   7710594.942 2
  22415506.066    -7627997.609 3  -5943888.469 2
  21300651.066     3435127.913 3   2676722.244 2
  23440638.582    -2763712.644 3  -2153519.356 2
 91  5 14 19 24 15.0010000  0  6 16 06 18 02 19 11
  23888090.521    -2379896.657 2  -1854470.316 1
  23899044.939    -3826837.971 2  -2981938.213 1
  22448562.380     9952779.403 3   7755398.715 2
  22411814.726    -7647387.228 3  -5958997.193 2
  21305409.069     3460152.782 3   2696222.139 2
  23442343.800    -2754740.165 2  -2146527.769 1
 91  5 14 19 24 30.0010000  0  6 16 06 18 02 19 11
  23890089.234    -2369392.003 2  -1846284.912 1
  23895685.764    -3844515.308 2  -2995712.718 1
  22459518.901    10010367.844 3   7800272.749 2
  22408140.766    -7666692.214 3  -5974039.975 2
  21310189.565     3485238.984 3   2715769.833 2
  23444082.601    -2745609.006 2  -2139412.553 2
 91  5 14 19 24 45.0010000  0  6 16 06 18 02 19 11
  23892120.326    -2358738.817 2  -1837983.769 1
  23892328.987    -3862164.365 2  -3009465.169 1
  22470496.397    10068049.501 3   7845219.412 2
  22404484.500    -7685909.061 3  -5989014.102 2
  21314969.450     3510389.854 3   2735367.907 2
  23445848.676    -2736315.728 2  -2132170.978 1
 91  5 14 19 25  0.0010000  0  6 16 06 18 02 19 11
  23894174.208    -2347934.988 2  -1829565.262 1
  23888975.204    -3879783.145 2  -3023194.037 1
  22481492.782    10125826.184 3   7890240.116 2
  22400843.216    -7705035.551 3  -6003917.795 2
  21319769.132     3535607.426 3   2755017.959 2
  23447649.233    -2726858.283 2  -2124801.494 1
 91  5 14 19 25 15.0010000  0  6 16 06 18 02 19 11
  23896252.669    -2336984.145 2  -1821032.145 1
  23885621.726    -3897375.133 2  -3036902.022 1
  22492505.964    10183693.984 3   7935331.817 2
  22397223.229    -7724075.294 3  -6018753.900 2
  21324581.100     3560888.259 3   2774717.309 2
  23449478.260    -2717240.049 3  -2117306.698 1
 91  5 14 19 25 30.0010000  0  6 16 06 18 02 19 11
  23898371.003    -2325883.233 2  -1812382.109 1
  23882283.237    -3914937.248 2  -3050586.749 1
  22503532.625    10241655.863 3   7980496.843 2
  22393615.824    -7743025.017 3  -6033519.859 2
  21329404.759     3586235.549 3   2794468.448 2
  23451342.074    -2707457.773 3  -2109684.119 1
 91  5 14 19 25 45.0010000  0  6 16 06 18 02 19 11
  23900506.727    -2314631.590 2  -1803614.561 1
  23878948.047    -3932468.962 2  -3064247.788 1
  22514581.780    10299712.242 3   8025735.505 2
  22390026.105    -7761884.182 3  -6048215.265 2
  21334238.617     3611649.834 3   2814271.775 3
  23453233.163    -2697510.828 2  -2101933.190 1
 91  5 14 19 26  0.0010000  0  6 16 06 18 02 19 11
  23902677.822    -2303237.156 2  -1794735.846 1
  23875617.952    -3949978.128 2  -3077891.244 1
  22525646.222    10357855.133 3   8071041.563 2
  22386454.377    -7780660.395 3  -6062846.005 2
  21339088.652     3637123.606 3   2834121.473 2
  23455156.334    -2687406.962 2  -2094059.993 1
 91  5 14 19 26 15.0010000  0  6 16 06 18 02 19 11
  23904875.301    -2291689.741 2  -1785737.873 1
  23872292.054    -3967454.526 2  -3091509.157 1
  22536728.646    10416094.771 3   8116423.023 2
  22382898.546    -7799343.290 3  -6077404.057 2
  21343950.091     3662666.892 3   2854025.331 2
  23457108.883    -2677135.850 2  -2086056.493 1
 91  5 14 19 26 30.0010000  0  6 16 06 18 02 19 11
  23907098.860    -2279996.320 2  -1776626.150 1
  23868969.157    -3984905.401 2  -3105107.216 1
  22547826.661    10474423.255 3   8161873.711 2
  22379357.391    -7817940.186 3  -6091895.094 2
  21348822.314     3688272.384 3   2873977.663 2
  23459099.508    -2666704.674 2  -2077928.262 2
 91  5 14 19 26 45.0010000  0  6 16 06 18 02 19 11
  23909358.995    -2268149.351 2  -1767394.775 1
  23865655.553    -4002322.783 2  -3118679.144 1
  22558945.966    10532848.622 3   8207399.885 2
  22375837.830    -7836442.938 3  -6106312.764 2
  21353704.736     3713948.147 3   2893984.746 2
  23461115.610    -2656105.219 2  -2069668.913 1
 91  5 14 19 27  0.0010000  0  6 16 06 18 02 19 11
  23911641.318    -2256147.667 2  -1758042.869 1
  23862349.443    -4019705.608 2  -3132224.149 1
  22570081.160    10591371.683 3   8253002.191 2
  22372336.854    -7854850.254 3  -6120656.068 2
  21358611.441     3739695.466 3   2914047.592 3
  23463162.293    -2645336.290 2  -2061277.475 1
 91  5 14 19 27 15.0010000  0  6 16 06 18 02 19 11
  23913952.416    -2243994.172 2  -1748572.652 1
  23859044.826    -4037056.770 2  -3145744.488 1
  22581236.438    10649989.451 3   8298678.290 2
  22368849.367    -7873165.011 3  -6134927.259 2
  21363517.544     3765511.534 3   2934164.010 2
  23465245.849    -2634400.653 3  -2052756.143 1
 91  5 14 19 27 30.0010000  0  6 16 06 18 02 19 11
  23916299.191    -2231681.039 2  -1738978.042 1
  23855751.010    -4054368.313 2  -3159233.935 1
  22592412.099    10708709.454 3   8344434.053 2
  22365384.670    -7891379.301 3  -6149120.152 2
  21368448.827     3791404.249 3   2954340.149 2
  23467360.284    -2623290.380 3  -2044098.716 1
 91  5 14 19 27 45.0010000  0  6 16 06 18 02 19 11
  23918668.747    -2219206.120 2  -1729257.377 1
  23852464.078    -4071637.959 2  -3172690.792 1
  22603606.047    10767533.707 3   8390271.052 2
  22361935.852    -7909490.512 3  -6163232.729 2
  21373386.113     3817375.788 3   2974577.709 2
  23469507.699    -2612002.957 2  -2035303.258 1
 91  5 14 19 28  0.0010000  0  6 16 06 18 02 19 11
  23921074.286    -2206568.913 2  -1719410.210 1
  23849187.355    -4088865.546 2  -3186114.818 1
  22614820.682    10826462.609 3   8436189.595 2
  22358512.521    -7927498.541 3  -6177264.898 2
  21378345.282     3843426.584 3   2994877.036 2
  23471682.388    -2600538.132 2  -2026369.563 1
 91  5 14 19 28 15.0010000  0  6 16 06 18 02 19 11
  23923512.500    -2193771.113 2  -1709437.938 1
  23845914.218    -4106052.664 2  -3199507.334 1
  22626052.707    10885493.986 3   8482187.986 2
  22355104.179    -7945404.778 3  -6191217.759 2
  21383317.939     3869554.909 3   3015236.763 2
  23473901.157    -2588897.507 2  -2017298.911 1
 91  5 14 19 28 30.0010000  0  6 16 06 18 02 19 11
  23925974.997    -2180819.478 2  -1699345.809 1
  23842650.076    -4123206.164 2  -3212873.660 1
  22637304.817    10944620.817 3   8528260.757 2
  22351712.930    -7963216.055 3  -6205096.611 2
  21388304.383     3895754.057 3   3035651.687 2
  23476146.006    -2577087.738 2  -2008096.436 1
 91  5 14 19 28 45.0010000  0  6 16 06 18 02 19 11
  23928466.870    -2167713.257 2  -1689133.198 1
  23839395.226    -4140324.710 2  -3226212.713 1
  22648573.120    11003844.515 3   8574409.014 2
  22348342.063    -7980931.032 3  -6218900.443 2
  21393301.026     3922025.484 3   3056122.933 2
  23478429.524    -2565107.393 2  -1998761.054 2
 91  5 14 19 29  0.0010000  0  6 16 06 18 02 19 11
  23930993.217    -2154458.058 2  -1678804.497 1
  23836139.182    -4157414.101 2  -3239529.087 1
  22659863.603    11063158.892 3   8620627.919 2
  22344989.789    -7998555.326 3  -6232633.601 2
  21398318.652     3948363.396 3   3076645.980 2
  23480739.427    -2552962.071 2  -1989297.106 1
 91  5 14 19 29 15.0010000  0  6 16 06 18 02 19 11
  23933542.955    -2141052.337 2  -1668358.525 1
  23832896.931    -4174472.717 2  -3252821.478 1
  22671168.177    11122565.463 3   8666918.663 2
  22341650.096    -8016087.149 3  -6246294.718 2
  21403338.373     3974769.412 3   3097222.102 2
  23483083.200    -2540650.180 3  -1979703.367 2
 91  5 14 19 29 30.0010000  0  6 16 06 18 02 19 11
  23936125.369    -2127490.283 2  -1657790.720 1
  23829657.071    -4191494.792 2  -3266085.375 1
  22682489.538    11182069.794 3   8713285.603 2
  22338337.094    -8033520.816 3  -6259879.345 2
  21408377.586     4001249.490 3   3117855.924 2
  23485459.353    -2528165.927 2  -1969975.280 1
 91  5 14 19 29 45.0010000  0  6 16 06 18 02 19 11
  23938733.261    -2113779.301 2  -1647106.869 1
  23826424.113    -4208487.639 2  -3279326.530 1
  22693832.790    11241664.206 3   8759722.712 2
  22335034.579    -8050863.625 3  -6273393.176 2
  21413429.695     4027796.216 3   3138541.688 2
  23487865.790    -2515516.479 2  -1960118.526 1
 91  5 14 19 30  0.0010000  0  6 16 06 18 02 19 11
  23941370.538    -2099918.621 2  -1636306.399 1
  23823198.946    -4225450.325 2  -3292544.154 1
  22705187.725    11301349.377 3   8806230.543 2
  22331751.251    -8068114.456 3  -6286835.352 2
  21418498.878     4054410.717 3   3159280.259 2
  23490303.402    -2502700.724 2  -1950132.166 1
 91  5 14 19 30 15.0010000  0  6 16 06 18 02 19 11
  23944037.490    -2085901.545 2  -1625384.023 1
  23819975.577    -4242376.396 2  -3305733.234 1
  22716565.145    11361131.610 3   8852814.034 2
  22328488.008    -8085266.809 3  -6300200.780 2
  21423570.173     4081099.475 3   3180076.685 3
  23492776.988    -2489712.135 2  -1940011.138 1
 91  5 14 19 30 30.0010000  0  6 16 06 18 02 19 11
  23946738.915    -2071728.428 2  -1614340.098 1
  23816759.101    -4259265.960 2  -3318893.877 1
  22727957.564    11421010.734 3   8899472.989 2
  22325243.053    -8102320.574 3  -6313489.367 2
  21428665.140     4107862.225 3   3200930.767 2
  23495282.054    -2476550.868 2  -1929755.541 1
 91  5 14 19 30 45.0010000  0  6 16 06 18 02 19 11
  23949461.035    -2057400.991 2  -1603175.884 1
  23813549.526    -4276120.512 2  -3332027.264 1
  22739374.857    11480985.051 3   8946206.130 2
  22322012.494    -8119277.092 3  -6326702.198 2
  21433775.104     4134697.691 3   3221841.509 2
  23497817.396    -2463218.297 3  -1919366.472 1
 91  5 14 19 31  0.0010000  0  6 16 06 18 02 19 11
  23952214.627    -2042924.153 2  -1591895.284 1
  23810351.337    -4292945.394 2  -3345137.460 2
  22750803.249    11541048.822 3   8993008.981 1
  22318807.709    -8136141.680 3  -6339843.376 2
  21438894.658     4161600.664 3   3242804.861 2
  23500386.923    -2449719.608 3  -1908847.950 1
 91  5 14 19 31 15.0010000  0  6 16 06 18 02 19 11
  23954998.495    -2028293.637 2  -1580494.927 1
  23807158.244    -4309736.129 2  -3358221.186 1
  22762249.623    11601206.431 3   9039884.956 2
  22315614.625    -8152909.920 3  -6352909.485 2
  21444023.809     4188575.578 3   3263824.265 2
  23502987.617    -2436050.274 3  -1898196.458 1
 91  5 14 19 31 30.0010000  0  6 16 06 18 02 19 11
  23957810.554    -2013511.269 2  -1568976.210 1
  23803969.059    -4326494.451 2  -3371279.558 1
  22773713.387    11661455.749 3   9086832.388 2
  22312443.117    -8169583.457 3  -6365901.804 2
  21449176.344     4215620.605 3   3284898.301 2
  23505621.300    -2422211.907 2  -1887413.249 2
 91  5 14 19 31 45.0010000  0  6 16 06 18 02 19 11
  23960654.687    -1998578.815 2  -1557340.594 1
  23800783.461    -4343221.991 2  -3384313.965 1
  22785197.236    11721795.221 3   9133850.079 2
  22309287.498    -8186163.899 3  -6378821.585 2
  21454329.777     4242734.282 3   3306025.831 3
  23508288.251    -2408206.188 2  -1876499.657 1
 91  5 14 19 32  0.0010000  0  6 16 06 18 02 19 11
  23963525.195    -1983493.920 2  -1545586.164 1
  23797606.256    -4359916.347 2  -3397322.511 1
  22796696.379    11782226.736 3   9180939.479 2
  22306151.075    -8202648.657 3  -6391666.796 2
  21459507.195     4269919.042 3   3327208.753 2
  23510980.087    -2394030.628 2  -1865453.716 1
 91  5 14 19 32 15.0010000  0  6 16 06 18 02 19 11
  23966421.190    -1968256.078 2  -1533712.539 1
  23794431.756    -4376576.887 2  -3410304.726 1
  22808211.403    11842750.850 3   9228101.043 2
  22303028.734    -8219036.958 3  -6404436.858 2
  21464690.303     4297175.603 3   3348447.627 2
  23513717.790    -2379684.488 2  -1854274.858 1
 91  5 14 19 32 30.0010000  0  6 16 06 18 02 19 11
  23969354.065    -1952863.198 2  -1521718.107 1
  23791271.644    -4393201.456 2  -3423258.866 1
  22819749.818    11903369.529 3   9275336.288 2
  22299933.074    -8235326.549 3  -6417129.995 2
  21469892.003     4324506.419 3   3369744.347 2
  23516477.080    -2365165.479 3  -1842961.286 2
 91  5 14 19 32 45.0010000  0  6 16 06 18 02 19 11
  23972313.317    -1937321.127 2  -1509607.472 1
  23788115.127    -4409796.103 2  -3436189.708 1
  22831298.425    11964076.417 3   9322640.276 2
  22296847.613    -8251523.386 3  -6429750.853 2
  21475104.191     4351905.244 3   3391094.079 2
  23519273.547    -2350479.609 2  -1831517.702 2
 91  5 14 19 33  0.0010000  0  6 16 06 18 02 19 11
  23975301.946    -1921627.551 2  -1497378.748 1
  23784962.213    -4426358.030 2  -3449095.066 1
  22842868.015    12024874.197 3   9370015.068 1
  22293787.936    -8267624.691 3  -6442297.289 2
  21480335.269     4379374.934 3   3412499.022 2
  23522099.086    -2335624.075 2  -1819941.903 2
 91  5 14 19 33 15.0010000  0  6 16 06 18 02 19 11
  23978313.661    -1905783.951 2  -1485033.114 1
  23781816.793    -4442888.828 2  -3461976.186 1
  22854457.987    12085761.154 3   9417459.364 2
  22290738.441    -8283631.904 3  -6454770.392 2
  21485572.350     4406914.025 3   3433958.043 2
  23524957.912    -2320600.357 2  -1808235.068 1
 91  5 14 19 33 30.0010000  0  6 16 06 18 02 19 11
  23981357.451    -1889787.659 2  -1472568.525 1
  23778678.267    -4459385.928 2  -3474831.026 1
  22866060.855    12146739.347 3   9464974.730 2
  22287712.041    -8299542.348 3  -6467168.099 2
  21490827.413     4434525.009 3   3455473.083 2
  23527843.410    -2305405.861 2  -1796395.159 1
 91  5 14 19 33 45.0010000  0  6 16 06 18 02 19 11
  23984427.022    -1873643.993 2  -1459989.087 1
  23775542.131    -4475854.523 2  -3487663.609 1
  22877684.707    12207803.580 3   9512557.166 2
  22284701.520    -8315361.275 3  -6479494.491 2
  21496095.660     4462202.855 3   3477040.232 2
  23530772.089    -2290045.576 2  -1784426.079 2
 91  5 14 19 34  0.0010000  0  6 16 06 18 02 19 11
  23987526.879    -1857348.755 2  -1447291.554 1
  23772415.000    -4492290.096 2  -3500470.512 1
  22889317.851    12268958.099 3   9560209.954 2
  22281709.593    -8331084.158 3  -6491746.042 2
  21501379.804     4489951.986 3   3498662.920 2
  23533722.947    -2274515.062 2  -1772324.345 1
 91  5 14 19 34 15.0010000  0  6 16 06 18 02 19 11
  23990661.811    -1840899.402 2  -1434473.872 1
  23769300.756    -4508690.317 2  -3513249.860 1
  22900973.488    12330205.336 3   9607934.976 2
  22278733.851    -8346708.397 3  -6503920.722 2
  21506666.941     4517774.955 3   3520343.144 2
  23536713.670    -2258811.805 2  -1760087.984 2
 91  5 14 19 34 30.0010000  0  6 16 06 18 02 19 11
  23993820.728    -1824297.024 2  -1421536.991 1
  23766179.618    -4525055.998 2  -3526002.271 1
  22912646.201    12391543.873 3   9655731.156 2
  22275785.995    -8362234.867 3  -6516019.229 2
  21511979.267     4545670.897 3   3542080.229 2
  23539735.882    -2242936.683 2  -1747717.730 1
 91  5 14 19 34 45.0010000  0  6 16 06 18 02 19 11
  23997007.818    -1807546.299 2  -1408484.518 1
  23763067.773    -4541391.576 2  -3538731.249 1
  22924333.318    12452968.975 3   9703594.776 1
  22272845.930    -8377667.982 3  -6528044.984 2
  21517299.987     4573635.458 3   3563870.782 2
  23542790.769    -2226894.161 2  -1735217.009 1
 91  5 14 19 35  0.0010000  0  6 16 06 18 02 19 11
  24000222.794    -1790646.766 2  -1395316.083 1
  23759972.410    -4557696.945 2  -3551436.686 1
  22936040.512    12514480.683 3   9751525.889 1
  22269929.544    -8393007.476 3  -6539997.793 2
  21522635.688     4601668.794 3   3585714.929 2
  23545874.127    -2210683.947 2  -1722585.628 1
 91  5 14 19 35 15.0010000  0  6 16 06 18 02 19 11
  24003463.247    -1773603.445 2  -1382035.607 1
  23756871.663    -4573976.991 2  -3564122.381 1
  22947761.492    12576073.971 3   9799520.567 2
  22267024.258    -8408258.141 3  -6551881.385 2
  21527978.290     4629766.106 3   3607608.935 2
  23548988.677    -2194310.988 2  -1709827.420 1
 91  5 14 19 35 30.0010000  0  6 16 06 18 02 19 11
  24006737.283    -1756416.192 2  -1368642.981 1
  23753777.801    -4590231.149 2  -3576787.917 1
  22959498.369    12637749.074 3   9847578.996 1
  22264141.752    -8423419.329 3  -6563695.269 2
  21533342.775     4657928.014 3   3629553.268 2
  23552137.996    -2177774.510 2  -1696941.826 1
 91  5 14 19 35 45.0010000  0  6 16 06 18 02 19 11
  24010034.100    -1739089.240 2  -1355141.514 1
  23750691.137    -4606463.637 2  -3589436.565 1
  22971246.039    12699501.377 2   9895697.584 1
  22261270.642    -8438495.238 3  -6575442.660 2
  21538708.760     4686150.122 3   3651544.504 2
  23555315.794    -2161078.881 3  -1683932.193 2
 91  5 14 19 36  0.0020000  0  6 16 06 18 02 19 11
  24013356.398    -1721626.236 2  -1341533.995 1
  23747600.575    -4622680.384 2  -3602072.935 1
  22983012.593    12761330.094 3   9943875.717 2
  22258416.322    -8453491.569 3  -6587128.080 2
  21544094.834     4714429.785 3   3673580.577 2
  23558519.675    -2144227.648 3  -1670801.311 2
 91  5 14 19 36 15.0020000  0  6 16 06 18 02 19 11
  24016707.180    -1704026.149 2  -1327819.710 1
  23744524.704    -4638875.799 2  -3614692.700 1
  22994792.040    12823230.173 3   9992109.457 1
  22255579.082    -8468402.934 3  -6598747.273 2
  21549486.001     4742766.804 3   3695661.363 2
  23561755.032    -2127219.531 2  -1657548.183 1
 91  5 14 19 36 30.0020000  0  6 16 06 18 02 19 11
  24020080.743    -1686291.790 2  -1314000.751 1
  23741444.043    -4655054.828 2  -3627299.659 1
  23006585.569    12885201.913 3  10040399.045 2
  22252757.739    -8483234.124 3  -6610304.014 2
  21554892.759     4771159.108 3   3717785.232 2
  23565023.074    -2110057.312 3  -1644174.971 1
 91  5 14 19 36 45.0020000  0  6 16 06 18 02 19 11
  24023481.293    -1668422.588 2  -1300076.715 1
  23738367.866    -4671216.884 2  -3639893.422 1
  23018392.595    12947245.454 3  10088744.558 2
  22249950.479    -8497984.539 3  -6621797.783 2
  21560302.815     4799607.428 3   3739952.738 2
  23568318.696    -2092740.393 2  -1630681.239 1
 91  5 14 19 37  0.0020000  0  6 16 06 18 02 19 11
  24026909.415    -1650420.098 2  -1286048.847 1
  23735292.597    -4687363.120 2  -3652474.853 1
  23030216.112    13009359.664 3  10137145.158 2
  22247158.209    -8512655.168 3  -6633229.407 2
  21565730.557     4828110.493 3   3762162.894 2
  23571640.694    -2075269.949 2  -1617067.868 1
 91  5 14 19 37 15.0020000  0  6 16 06 18 02 19 11
  24030359.131    -1632283.602 2  -1271916.565 1
  23732226.925    -4703492.830 2  -3665043.422 1
  23042047.125    13071544.568 3  10185600.815 2
  22244383.633    -8527245.509 3  -6644598.444 2
  21571161.300     4856668.884 3   3784416.178 2
  23574990.874    -2057645.221 2  -1603334.277 1
 91  5 14 19 37 30.0020000  0  6 16 06 18 02 19 11
  24033834.926    -1614016.917 2  -1257682.816 1
  23729159.142    -4719609.783 2  -3677602.009 1
  23053895.517    13133796.275 3  10234108.552 2
  22241620.749    -8541758.935 3  -6655907.584 2
  21576603.726     4885279.090 3   3806709.825 2
  23578377.028    -2039869.892 2  -1589483.327 1
 91  5 14 19 37 45.0020000  0  6 16 06 18 02 19 11
  24037334.995    -1595621.112 2  -1243348.462 1
  23726094.962    -4735715.021 2  -3690151.512 1
  23065754.109    13196113.329 3  10282667.204 1
  22238875.245    -8556196.529 4  -6667157.620 2
  21582055.750     4913940.123 3   3829043.091 2
  23581792.262    -2021945.088 3  -1575515.928 2
 91  5 14 19 38  0.0020000  0  6 16 06 18 02 19 11
  24040861.754    -1577094.345 2  -1228912.037 1
  23723030.486    -4751806.748 2  -3702690.463 1
  23077627.394    13258497.704 3  10331278.308 1
  22236140.237    -8570556.345 3  -6678347.040 2
  21587526.367     4942653.997 3   3851417.529 2
  23585227.591    -2003868.877 3  -1561430.498 1
 91  5 14 19 38 15.0020000  0  6 16 06 18 02 19 11
  24044410.099    -1558436.211 2  -1214373.300 1
  23719970.206    -4767884.454 2  -3715218.499 1
  23089509.963    13320949.520 3  10379941.967 2
  22233425.324    -8584838.084 4  -6689475.614 2
  21592994.279     4971421.115 3   3873833.448 2
  23588698.282    -1985640.765 3  -1547226.747 1
 91  5 14 19 38 30.0020000  0  6 16 06 18 02 19 11
  24047986.922    -1539649.108 2  -1199734.019 1
  23716916.523    -4783950.135 2  -3727737.146 1
  23101403.630    13383466.634 3  10428656.500 2
  22230717.591    -8599043.482 3  -6700544.722 2
  21598481.980     5000239.488 3   3896289.316 2
  23592195.367    -1967262.698 2  -1532906.134 1
 91  5 14 19 38 45.0020000  0  6 16 06 18 02 19 11
  24051587.129    -1520726.327 2  -1184989.045 1
  23713860.736    -4799996.687 2  -3740240.913 1
  23113314.084    13446055.854 3  10477427.240 1
  22228032.657    -8613165.405 4  -6711548.763 2
  21603972.683     5029116.336 3   3918790.751 2
  23595719.421    -1948727.600 2  -1518463.153 1
 91  5 14 19 39  0.0020000  0  6 16 06 18 02 19 11
  24055212.822    -1501671.298 2  -1170141.000 1
  23710813.946    -4816027.949 2  -3752732.765 1
  23125237.129    13508712.982 3  10526250.882 1
  22225358.202    -8627207.519 3  -6722490.628 2
  21609481.664     5058047.862 3   3941334.778 2
  23599279.762    -1930039.274 2  -1503900.791 1
 91  5 14 19 39 15.0020000  0  6 16 06 18 02 19 11
  24058862.797    -1482483.966 2  -1155189.892 1
  23707764.154    -4832043.782 2  -3765212.583 1
  23137171.272    13571438.145 2  10575127.541 1
  22222703.840    -8641169.729 4  -6733370.227 2
  21614994.554     5087034.237 3   3963921.553 2
  23602864.081    -1911197.469 2  -1489218.830 1
 91  5 14 19 39 30.0020000  0  6 16 06 18 02 19 11
  24062542.751    -1463164.995 2  -1140136.203 1
  23704718.262    -4848044.569 2  -3777680.662 1
  23149119.200    13634230.552 2  10624056.594 2
  22220059.373    -8655052.369 3  -6744187.824 2
  21620530.522     5116075.101 3   3986550.796 2
  23606477.174    -1892202.722 3  -1474417.697 2
 91  5 14 19 39 45.0020000  0  6 16 06 18 02 19 11
  24066243.986    -1443715.175 2  -1124980.531 1
  23701678.966    -4864030.558 2  -3790137.241 1
  23161080.321    13697089.785 2  10673037.738 2
  22217436.187    -8668855.752 3  -6754943.665 2
  21626058.987     5145170.183 3   4009222.273 2
  23610119.654    -1873055.372 2  -1459497.639 2
 91  5 14 19 40  0.0020000  0  6 16 06 18 02 19 11
  24069973.106    -1424129.686 2  -1109719.178 1
  23698638.772    -4879997.065 2  -3802578.637 1
  23173057.924    13760020.193 3  10722074.327 2
  22214822.598    -8682575.113 3  -6765634.021 2
  21631614.447     5174324.207 3   4031939.688 2
  23613793.911    -1853750.588 2  -1444454.903 1
 91  5 14 19 40 15.0020000  0  6 16 06 18 02 19 11
  24073721.709    -1404409.090 2  -1094352.506 1
  23695600.977    -4895944.664 2  -3815005.310 1
  23185048.125    13823020.981 3  10771165.752 1
  22212229.696    -8696210.884 3  -6776259.265 2
  21637165.405     5203536.510 3   4054702.504 2
  23617499.343    -1834288.818 2  -1429289.844 2
 91  5 14 19 40 30.0020000  0  6 16 06 18 02 19 11
  24077502.692    -1384550.697 2  -1078878.522 1
  23692570.075    -4911870.769 2  -3827415.167 1
  23197052.113    13886094.486 3  10820313.828 2
  22209649.978    -8709760.299 3  -6786817.204 2
  21642736.143     5232810.083 3   4077513.057 2
  23621233.558    -1814667.354 2  -1414000.343 1
 91  5 14 19 40 45.0020000  0  6 16 06 18 02 19 11
  24081310.355    -1364549.602 2  -1063293.273 1
  23689545.167    -4927770.251 2  -3839804.348 1
  23209070.496    13949245.498 3  10869522.313 1
  22207090.354    -8723218.402 3  -6797304.019 2
  21648318.877     5262149.740 3   4100375.131 2
  23625000.755    -1794881.298 3  -1398582.581 1
 91  5 14 19 41  0.0020000  0  6 16 06 18 02 19 11
  24085141.106    -1344407.938 2  -1047598.538 1
  23686528.356    -4943645.357 2  -3852174.491 1
  23221098.469    14012471.823 3  10918789.489 1
  22204544.210    -8736587.389 3  -6807721.354 2
  21653914.804     5291553.609 3   4123287.224 2
  23628795.828    -1774932.896 3  -1383038.323 1
 91  5 14 19 41 15.0020000  0  6 16 06 18 02 19 11
  24088998.834    -1324123.713 2  -1031792.685 1
  23683509.145    -4959493.391 2  -3864523.586 1
  23233148.028    14075775.852 3  10968117.208 2
  22202017.863    -8749864.415 3  -6818067.063 2
  21659524.221     5321024.305 3   4146251.384 2
  23632622.373    -1754819.480 2  -1367365.525 1
 91  5 14 19 41 30.0020000  0  6 16 06 18 02 19 11
  24092888.043    -1303696.630 2  -1015875.523 1
  23680498.328    -4975314.271 2  -3876851.457 1
  23245208.379    14139157.257 3  11017505.242 1
  22199508.897    -8763049.365 3  -6828340.998 2
  21665147.728     5350561.928 3   4169267.707 2
  23636481.009    -1734541.011 2  -1351564.065 1
 91  5 14 19 41 45.0020000  0  6 16 06 18 02 19 11
  24096803.932    -1283125.663 2   -999846.234 1
  23677490.513    -4991106.741 2  -3889157.226 1
  23257284.314    14202617.140 3  11066954.386 2
  22197015.226    -8776141.058 3  -6838542.273 2
  21670777.831     5380167.851 3   4192337.253 2
  23640372.608    -1714096.127 2  -1335632.927 2
 91  5 14 19 42  0.0020000  0  6 16 06 18 02 19 11
  24100742.900    -1262409.009 2   -983703.425 1
  23674498.882    -5006868.715 2  -3901439.255 2
  23269373.746    14266157.534 2  11116466.282 2
  22194543.141    -8789137.235 3  -6848669.113 2
  21676427.121     5409844.226 3   4215461.694 2
  23644297.197    -1693482.707 2  -1319570.488 2
 91  5 14 19 42 15.0020000  0  6 16 06 18 02 19 11
  24104716.655    -1241547.883 2   -967448.021 1
  23671499.766    -5022601.280 2  -3913698.338 1
  23281478.465    14329776.814 2  11166039.673 2
  22192089.632    -8802038.938 3  -6858722.358 2
  21682087.204     5439590.018 3   4238640.219 2
  23648249.959    -1672701.918 2  -1303377.633 2
 91  5 14 19 42 30.0020000  0  6 16 06 18 02 19 11
  24108709.588    -1220547.225 2   -951083.945 1
  23668513.527    -5038309.494 2  -3925938.428 1
  23293603.871    14393469.726 2  11215670.419 1
  22189654.122    -8814851.317 3  -6868705.990 2
  21687762.276     5469400.163 3   4261868.898 2
  23652230.302    -1651758.862 3  -1287058.322 1
 91  5 14 19 42 45.0020000  0  6 16 06 18 02 19 11
  24112729.804    -1199403.567 2   -934608.407 1
  23665524.898    -5053989.590 2  -3938156.654 1
  23305736.475    14457239.990 2  11265361.430 2
  22187229.397    -8827570.648 3  -6878617.106 2
  21693444.242     5499278.493 3   4285150.696 2
  23656246.923    -1630649.809 3  -1270609.645 1
 91  5 14 19 43  0.0020000  0  6 16 06 18 02 19 11
  24116789.597    -1178115.547 2   -918020.430 2
  23662547.359    -5069640.025 2  -3950351.752 1
  23317887.663    14521088.623 2  11315113.530 2
  22184829.259    -8840195.095 3  -6888454.295 2
  21699145.097     5529226.535 3   4308486.821 2
  23660298.314    -1609373.281 3  -1254030.469 2
 91  5 14 19 43 15.0020000  0  6 16 06 18 02 19 11
  24120864.973    -1156689.054 2   -901324.500 1
  23659574.915    -5085266.754 2  -3962528.368 1
  23330051.739    14585009.631 2  11364921.998 1
  22182439.914    -8852730.711 3  -6898222.270 2
  21704855.244     5559238.275 3   4331872.594 2
  23664376.692    -1587935.063 3  -1237325.328 2
 91  5 14 19 43 30.0020000  0  6 16 06 18 02 19 11
  24124961.333    -1135124.082 2   -884520.663 1
  23656605.176    -5100869.237 2  -3974686.096 1
  23342225.116    14649003.244 2  11414787.050 1
  22180074.258    -8865176.824 3  -6907920.495 2
  21710577.380     5589314.385 3   4355308.522 2
  23668490.746    -1566334.779 3  -1220493.877 2
 91  5 14 19 43 45.0020000  0  6 16 06 18 02 19 11
  24129096.075    -1113425.309 2   -867612.574 1
  23653645.026    -5116452.560 2  -3986828.911 1
  23354415.271    14713064.052 2  11464704.503 1
  22177722.684    -8877538.450 3  -6917552.899 2
  21716310.911     5619449.890 3   4378790.733 2
  23672625.183    -1544577.487 3  -1203540.127 1
 91  5 14 19 44  0.0020000  0  6 16 06 18 02 19 11
  24133244.899    -1091596.834 2   -850603.412 1
  23650676.177    -5132020.336 2  -3998959.554 1
  23366621.323    14777188.249 2  11514671.326 1
  22175385.498    -8889819.247 3  -6927122.315 2
  21722062.128     5649641.110 3   4402316.360 2
  23676800.994    -1522666.952 2  -1186466.950 1
 91  5 14 19 44 15.0020000  0  6 16 06 18 02 19 11
  24137427.603    -1069637.507 2   -833492.282 1
  23647716.628    -5147571.296 2  -4011077.155 1
  23378839.669    14841376.816 2  11564688.304 1
  22173063.607    -8902017.928 3  -6936627.726 2
  21727813.048     5679889.518 3   4425886.539 2
  23680994.787    -1500601.816 2  -1169273.303 1
 91  5 14 19 44 30.0020000  0  6 16 06 18 02 19 11
  24141631.893    -1047546.788 2   -816278.781 1
  23644760.675    -5163104.881 2  -4023181.185 1
  23391067.298    14905630.041 2  11614755.648 1
  22170757.308    -8914133.982 3  -6946068.787 2
  21733581.051     5710195.525 3   4449501.607 2
  23685217.661    -1478381.488 2  -1151958.728 1
 91  5 14 19 44 45.0020000  0  6 16 06 18 02 19 11
  24145859.566    -1025325.275 2   -798963.339 1
  23641813.412    -5178621.365 2  -4035271.899 1
  23403303.033    14969947.378 2  11664872.958 1
  22168465.388    -8926167.528 3  -6955445.527 2
  21739360.755     5740559.071 3   4473161.514 2
  23689478.612    -1456006.348 2  -1134523.538 1
 91  5 14 19 45  0.0020000  0  6 16 06 18 02 19 11
  24150112.428    -1002975.341 2   -781547.896 1
  23638860.756    -5194123.011 2  -4047351.050 1
  23415555.250    15034326.235 2  11715038.207 1
  22166195.358    -8938120.719 3  -6964759.673 2
  21745149.150     5770977.727 3   4496864.363 2
  23693768.948    -1433478.722 3  -1116969.479 1
 91  5 14 19 45 15.0020000  0  6 16 06 18 02 19 11
  24154391.361     -980500.411 2   -764034.968 1
  23635914.095    -5209613.100 2  -4059421.185 1
  23427816.759    15098763.317 3  11765248.843 1
  22163935.826    -8949996.918 4  -6974013.808 2
  21750942.334     5801448.349 3   4520607.700 2
  23698081.159    -1410801.868 3  -1099299.162 1
 91  5 14 19 45 30.0020000  0  6 16 06 18 02 19 11
  24158689.786     -957897.824 2   -746422.626 1
  23632965.942    -5225088.765 2  -4071480.099 1
  23440088.764    15163261.261 3  11815506.860 1
  22161688.883    -8961793.277 3  -6983205.734 2
  21756752.611     5831973.819 3   4544393.774 2
  23702429.046    -1387973.075 3  -1081510.473 1
 91  5 14 19 45 45.0020000  0  6 16 06 18 02 19 11
  24163016.393     -935162.583 2   -728706.911 1
  23630027.971    -5240544.942 2  -4083523.830 1
  23452378.455    15227824.619 2  11865815.863 2
  22159459.627    -8973504.502 4  -6992331.318 2
  21762575.181     5862559.419 3   4568226.717 2
  23706803.624    -1364987.183 3  -1063599.344 1
 91  5 14 19 46  0.0020000  0  6 16 06 18 02 19 11
  24167363.678     -912290.540 2   -710884.600 1
  23627088.211    -5255977.359 2  -4095549.028 1
  23464678.642    15292457.537 2  11916179.068 1
  22157248.353    -8985126.561 3  -7001387.434 2
  21768409.147     5893209.241 3   4592109.683 2
  23711206.977    -1341839.915 2  -1045562.491 2
 91  5 14 19 46 15.0020000  0  6 16 06 18 02 19 11
  24171747.845     -889281.304 2   -692955.366 1
  23624157.133    -5271385.217 2  -4107555.111 1
  23476989.622    15357160.694 2  11966597.024 2
  22155053.578    -8996658.294 4  -7010373.170 2
  21774250.904     5923924.234 3   4616043.439 2
  23715642.404    -1318530.656 2  -1027399.424 1
 91  5 14 19 46 30.0020000  0  6 16 06 18 02 19 11
  24176152.699     -866133.304 2   -674918.002 1
  23621230.260    -5286766.861 2  -4119540.748 1
  23489315.889    15421935.280 2  12017070.623 1
  22152878.583    -9008098.383 3  -7019287.478 2
  21780107.642     5954705.999 3   4640029.230 2
  23720108.412    -1295057.868 3  -1009108.876 1
 91  5 14 19 46 45.0020000  0  6 16 06 18 02 19 11
  24180585.726     -842840.683 2   -656767.974 1
  23618312.985    -5302116.667 2  -4131501.577 1
  23501656.543    15486786.665 2  12067604.061 1
  22150720.671    -9019441.162 4  -7028125.968 2
  21785979.980     5985560.278 3   4664071.531 2
  23724606.493    -1271415.824 3   -990686.487 2
 91  5 14 19 47  0.0020000  0  6 16 06 18 02 19 11
  24185043.340     -819403.818 2   -638505.516 1
  23615399.296    -5317434.360 2  -4143437.382 1
  23514008.593    15551714.918 2  12118197.414 1
  22148577.156    -9030686.165 4  -7036888.264 3
  21791866.401     6016487.331 3   4688170.518 2
  23729143.855    -1247604.318 3   -972132.051 1
 91  5 14 19 47 15.0020000  0  6 16 06 18 02 19 11
  24189537.234     -795817.579 2   -620126.699 1
  23612488.312    -5332714.997 2  -4155344.328 1
  23526381.626    15616724.714 2  12168854.297 1
  22146459.721    -9041828.298 4  -7045570.412 2
  21797766.320     6047492.038 3   4712330.024 2
  23733703.999    -1223618.507 2   -953441.801 1
 91  5 14 19 47 30.0020000  0  6 16 06 18 02 19 11
  24194052.103     -772077.733 2   -601628.169 1
  23609589.325    -5347953.658 2  -4167218.565 1
  23538767.852    15681820.747 2  12219578.358 1
  22144359.378    -9052862.809 4  -7054168.683 3
  21803683.322     6078579.331 3   4736553.895 2
  23738302.515    -1199453.502 2   -934611.908 1
 91  5 14 19 47 45.0020000  0  6 16 06 18 02 19 11
  24198595.459     -748185.371 2   -583010.765 1
  23606690.931    -5363151.539 2  -4179061.013 1
  23551169.660    15747001.535 2  12270368.500 1
  22142279.722    -9063790.834 4  -7062683.996 3
  21809614.119     6109748.296 3   4760841.391 2
  23742934.012    -1175110.664 2   -915643.450 1
 91  5 14 19 48  0.0020000  0  6 16 06 18 02 19 11
  24203174.788     -724141.285 2   -564275.137 1
  23603810.223    -5378309.131 2  -4190872.078 1
  23563589.164    15812266.363 2  12321224.114 1
  22140221.346    -9074612.895 4  -7071116.727 3
  21815565.900     6140998.458 3   4785192.152 2
  23747600.279    -1150590.528 2   -896536.822 1
 91  5 14 19 48 15.0020000  0  6 16 06 18 02 19 11
  24207777.205     -699945.971 2   -545421.767 1
  23600931.312    -5393427.341 2  -4202652.449 1
  23576026.353    15877614.120 2  12372144.345 1
  22138180.657    -9085329.744 4  -7079467.481 2
  21821521.572     6172328.812 3   4809605.421 2
  23752297.424    -1125894.030 3   -877292.785 1
 91  5 14 19 48 30.0020000  0  6 16 06 18 02 19 11
  24212410.499     -675599.176 2   -526450.304 1
  23598065.297    -5408505.198 2  -4214401.398 1
  23588479.133    15943045.359 2  12423129.636 1
  22136162.155    -9095940.518 4  -7087735.574 2
  21827497.940     6203740.481 3   4834082.037 2
  23757035.943    -1101020.203 2   -857910.581 1
 91  5 14 19 48 45.0020000  0  6 16 06 18 02 19 11
  24217072.866     -651105.838 2   -507364.627 1
  23595200.486    -5423547.528 2  -4226122.642 1
  23600941.512    16008554.853 2  12474175.889 1
  22134159.237    -9106449.993 3  -7095924.739 2
  21833491.392     6235228.531 3   4858618.176 2
  23761800.245    -1075973.976 3   -838394.012 1
 91  5 14 19 49  0.0020000  0  6 16 06 18 02 19 11
  24221763.424     -626474.285 2   -488171.248 1
  23592342.263    -5438562.425 2  -4237822.530 1
  23613421.873    16074134.445 2  12525276.775 2
  22132179.413    -9116866.271 4  -7104041.271 2
  21839498.926     6266784.985 3   4883207.614 2
  23766598.427    -1050763.480 2   -818749.458 2
 91  5 14 19 49 15.0020000  0  6 16 06 18 02 19 11
  24226472.565     -601708.725 2   -468873.485 1
  23589490.635    -5453554.036 2  -4249504.248 1
  23625918.418    16139779.872 2  12576428.940 1
  22130213.969    -9127193.469 3  -7112088.391 2
  21845513.065     6298405.713 3   4907847.131 2
  23771425.680    -1025392.936 2   -798980.165 1
 91  5 14 19 49 30.0020000  0  6 16 06 18 02 19 11
  24231211.381     -576816.651 2   -449477.111 1
  23586640.509    -5468529.544 2  -4261173.427 1
  23638421.561    16205483.454 2  12627626.424 1
  22128267.415    -9137438.651 4  -7120071.620 2
  21851545.186     6330083.637 3   4932531.233 2
  23776280.523     -999869.565 2   -779091.832 1
 91  5 14 19 49 45.0020000  0  6 16 06 18 02 19 11
  24235967.892     -551802.904 2   -429985.937 1
  23583796.978    -5483493.602 2  -4272833.695 1
  23650937.895    16271240.312 2  12678865.412 1
  22126329.263    -9147606.606 4  -7127994.656 3
  21857581.208     6361814.064 3   4957256.230 2
  23781164.743     -974198.095 2   -759088.093 1
 91  5 14 19 50  0.0020000  0  6 16 06 18 02 19 11
  24240752.279     -526668.842 2   -410400.985 1
  23580950.752    -5498447.578 2  -4284486.115 1
  23663453.331    16337048.839 2  12730144.675 1
  22124407.889    -9157698.501 3  -7135858.447 2
  21863626.225     6393595.618 3   4982021.069 2
  23786081.638     -948379.995 3   -738970.102 2
 91  5 14 19 50 15.0020000  0  6 16 06 18 02 19 11
  24245554.954     -501418.217 2   -390725.263 1
  23578103.016    -5513394.943 2  -4296133.354 1
  23675987.351    16402905.512 2  12781461.448 1
  22122503.608    -9167717.990 4  -7143665.790 3
  21869683.833     6425424.995 3   5006823.186 2
  23791021.917     -922418.875 3   -718740.626 1
 91  5 14 19 50 30.0020000  0  6 16 06 18 02 19 11
  24250383.709     -476053.348 2   -370960.453 1
  23575259.791    -5528337.851 2  -4307777.149 1
  23688531.571    16468807.578 2  12832813.586 1
  22120608.026    -9177667.298 3  -7151418.458 3
  21875751.334     6457299.811 3   5031660.693 2
  23795987.979     -896317.081 3   -698401.566 2
 91  5 14 19 50 45.0020000  0  6 16 06 18 02 19 11
  24255230.158     -450574.626 2   -351106.962 1
  23572417.752    -5543276.277 2  -4319417.409 1
  23701078.487    16534754.881 2  12884200.994 1
  22118729.824    -9187546.249 4  -7159116.307 2
  21881822.728     6489220.374 3   5056533.853 2
  23800980.128     -870074.543 3   -677952.817 1
 91  5 14 19 51  0.0020000  0  6 16 06 18 02 19 11
  24260102.677     -424986.614 2   -331168.340 1
  23569578.419    -5558214.828 2  -4331057.797 1
  23713640.986    16600742.475 2  12935619.765 1
  22116861.220    -9197359.424 3  -7166762.901 2
  21887906.414     6521181.962 3   5081438.978 2
  23806002.545     -843695.959 2   -657398.075 1
 91  5 14 19 51 15.0020000  0  6 16 06 18 02 19 11
  24264994.096     -399288.058 2   -311143.535 1
  23566733.091    -5573151.860 2  -4342696.983 1
  23726198.093    16666771.913 2  12987071.184 1
  22115005.502    -9207105.185 4  -7174356.958 3
  21893995.799     6553186.391 3   5106377.493 2
  23811044.158     -817179.748 3   -636736.090 1
 91  5 14 19 51 30.0020000  0  6 16 06 18 02 19 11
  24269901.996     -373475.393 2   -291029.850 1
  23563893.155    -5588083.794 2  -4354332.229 1
  23738776.489    16732846.391 2  13038557.682 1
  22113165.072    -9216779.925 3  -7181895.673 3
  21900093.280     6585237.224 3   5131352.156 2
  23816123.244     -790522.373 3   -615964.103 1
 91  5 14 19 51 45.0020000  0  6 16 06 18 02 19 11
  24274837.476     -347550.396 2   -270828.609 1
  23561051.125    -5603012.165 2  -4365964.685 1
  23751352.180    16798963.961 2  13090077.764 1
  22111338.139    -9226385.341 3  -7189380.387 2
  21906204.250     6617332.854 3   5156361.726 2
  23821218.812     -763725.593 3   -595083.502 1
 91  5 14 19 52  0.0020000  0  6 16 06 18 02 19 11
  24279793.049     -321510.483 2   -250537.851 1
  23558211.190    -5617934.356 2  -4377592.320 1
  23763943.167    16865127.431 2  13141633.591 1
  22109523.499    -9235918.420 3  -7196808.710 2
  21912326.912     6649476.166 3   5181408.458 2
  23826345.564     -736786.687 3   -574092.112 1
 91  5 14 19 52 15.0020000  0  6 16 06 18 02 19 11
  24284770.803     -295350.984 2   -230153.884 1
  23555376.349    -5632845.180 2  -4389211.085 1
  23776545.243    16931341.230 2  13193228.635 1
  22107722.645    -9245374.247 3  -7204176.858 3
  21918447.777     6681672.009 3   5206496.111 2
  23831500.795     -709700.857 3   -552986.274 1
 91  5 14 19 52 30.0020000  0  6 16 06 18 02 19 11
  24289772.541     -269074.450 2   -209678.680 1
  23552536.719    -5647747.291 2  -4400823.079 1
  23789153.610    16997602.515 2  13244860.692 1
  22105937.977    -9254755.317 3  -7211486.734 3
  21924583.928     6713918.016 3   5231622.866 2
  23836678.510     -682470.630 3   -531767.898 1
 91  5 14 19 52 45.0020000  0  6 16 06 18 02 19 11
  24294792.567     -242679.252 2   -189111.077 1
  23549699.785    -5662638.511 2  -4412426.607 1
  23801768.878    17063913.259 2  13296531.280 1
  22104166.500    -9264059.669 3  -7218736.840 3
  21930727.870     6746216.389 3   5256790.420 2
  23841890.707     -655094.006 2   -510435.458 2
 91  5 14 19 53  0.0020000  0  6 16 06 18 02 19 11
  24299839.572     -216158.171 2   -168445.365 1
  23546872.440    -5677511.683 2  -4424016.051 1
  23814398.238    17130280.443 2  13348245.858 1
  22102416.017    -9273280.141 4  -7225921.578 3
  21936886.506     6778574.225 3   5282004.295 2
  23847131.976     -627563.951 2   -488983.464 1
 91  5 14 19 53 15.0020000  0  6 16 06 18 02 19 11
  24304909.357     -189515.804 2   -147685.144 1
  23544047.197    -5692370.757 2  -4435594.483 1
  23827039.882    17196699.520 2  13400000.849 1
  22100674.223    -9282420.674 3  -7233044.026 3
  21943054.137     6810987.484 3   5307261.372 2
  23852396.933     -599884.603 3   -467415.138 2
 91  5 14 19 53 30.0020000  0  6 16 06 18 02 19 11
  24310002.535     -162747.132 2   -126826.474 1
  23541219.852    -5707210.962 2  -4447158.212 1
  23839696.822    17263175.310 2  13451800.049 1
  22098952.210    -9291476.525 3  -7240100.502 3
  21949234.062     6843461.319 3   5332565.648 2
  23857694.558     -572051.142 3   -445726.708 2
 91  5 14 19 53 45.0020000  0  6 16 06 18 02 19 11
  24315123.886     -135856.514 2   -105872.833 1
  23538399.102    -5722036.130 2  -4458710.262 1
  23852356.457    17329703.737 2  13503640.291 1
  22097241.896    -9300451.306 3  -7247093.794 3
  21955425.678     6875991.828 3   5357914.089 2
  23863019.779     -544067.547 3   -423921.258 1
 91  5 14 19 54  0.0020000  0  6 16 06 18 02 19 11
  24320262.931     -108838.526 2    -84819.924 1
  23535584.949    -5736840.760 2  -4470246.279 2
  23865025.089    17396289.965 2  13555525.554 1
  22095552.567    -9309339.452 3  -7254019.595 3
  21961633.776     6908584.384 3   5383310.867 2
  23868372.267     -515928.483 2   -401994.700 1
 91  5 14 19 54 15.0020000  0  6 16 06 18 02 19 11
  24325423.257      -81696.035 2    -63669.999 1
  23532766.905    -5751627.586 2  -4481768.449 1
  23877702.410    17462930.877 2  13607453.366 1
  22093877.023    -9318143.819 3  -7260880.093 3
  21967839.780     6941236.198 3   5408753.824 2
  23873755.345     -487636.764 2   -379949.178 1
 91  5 14 19 54 30.0020000  0  6 16 06 18 02 19 11
  24330615.064      -54438.173 2    -42430.151 1
  23529959.645    -5766405.422 2  -4493283.588 1
  23890389.329    17529617.193 2  13659416.596 1
  22092214.078    -9326873.415 3  -7267682.345 3
  21974065.268     6973938.710 3   5434236.291 2
  23879170.191     -459201.319 2   -357791.685 1
 91  5 14 19 54 45.0020000  0  6 16 06 18 02 19 11
  24335829.058      -27059.368 2    -21096.060 1
  23527149.994    -5781168.312 2  -4504787.085 1
  23903096.333    17596354.771 2  13711419.786 1
  22090570.015    -9335522.359 4  -7274421.743 3
  21980295.859     7006697.656 3   5459762.733 2
  23884609.930     -430616.328 3   -335517.664 1
 91  5 14 19 55  0.0020000  0  6 16 06 18 02 19 11
  24341060.432         440.479 2       332.326 1
  23524342.141    -5795916.120 2  -4516278.805 1
  23915811.426    17663143.445 2  13763462.782 1
  22088938.847    -9344090.340 3  -7281098.055 3
  21986543.229     7039513.370 3   5485333.387 2
  23890074.545     -401881.749 3   -313127.063 1
 91  5 14 19 55 15.0020000  0  6 16 06 18 02 19 11
  24346315.792       28062.932 2     21856.253 1
  23521542.079    -5810646.979 2  -4527757.363 1
  23928528.926    17729984.789 2  13815546.813 1
  22087327.162    -9352575.400 4  -7287709.743 3
  21992798.399     7072387.624 3   5510949.670 2
  23895576.633     -372995.974 3   -290618.655 1
 91  5 14 19 55 30.0020000  0  6 16 06 18 02 19 11
  24351595.138       55808.394 2     43476.021 1
  23518739.015    -5825360.579 2  -4539222.444 1
  23941256.312    17796878.863 2  13867671.933 1
  22085722.973    -9360977.237 3  -7294256.592 3
  21999064.362     7105320.961 3   5536612.001 2
  23901098.214     -343958.431 3   -267991.975 1
 91  5 14 19 55 45.0020000  0  6 16 06 18 02 19 11
  24356903.267       83678.221 2     65192.755 1
  23515943.150    -5840055.136 2  -4550672.702 1
  23953989.701    17863827.178 2  13919839.333 1
  22084143.361    -9369294.218 4  -7300737.321 3
  22005342.916     7138314.879 3   5562321.527 2
  23906650.672     -314767.834 2   -245246.004 2
 91  5 14 19 56  0.0020000  0  6 16 06 18 02 19 11
  24362223.987      111670.458 2     87004.796 1
  23513146.386    -5854732.198 2  -4562109.316 1
  23966745.863    17930828.055 2  13972047.679 1
  22082573.950    -9377527.837 4  -7307153.082 3
  22011633.763     7171367.991 3   5588077.179 2
  23912236.400     -285425.743 2   -222382.037 2
 91  5 14 19 56 15.0020000  0  6 16 06 18 02 19 11
  24367577.975      139784.062 2    108911.426 1
  23510361.017    -5869392.525 2  -4573532.905 1
  23979500.541    17997880.276 2  14024296.053 1
  22081025.828    -9385678.751 4  -7313504.419 3
  22017935.098     7204479.643 3   5613878.443 2
  23917846.418     -255933.052 2   -199400.681 1
 91  5 14 19 56 30.0020000  0  6 16 06 18 02 19 11
  24372950.260      168021.102 2    130914.271 1
  23507572.045    -5884034.063 2  -4584941.850 1
  23992270.497    18064985.731 2  14076585.865 1
  22079490.287    -9393745.081 4  -7319789.837 3
  22024249.328     7237652.016 3   5639727.020 2
  23923492.715     -226287.801 3   -176300.462 1
 91  5 14 19 56 45.0020000  0  6 16 06 18 02 19 11
  24378343.224      196375.622 2    153008.629 1
  23504786.676    -5898662.287 2  -4596340.413 1
  24005052.145    18132138.454 2  14128912.562 1
  22077968.541    -9401732.406 4  -7326013.694 3
  22030570.757     7270879.347 3   5665618.420 2
  23929162.683     -196495.828 3   -153085.927 2
 91  5 14 19 57  0.0020000  0  6 16 06 18 02 19 11
  24383767.371      224849.284 2    175195.846 1
  23502012.397    -5913275.595 2  -4607727.332 2
  24017841.898    18199339.956 2  14181277.246 1
  22076464.480    -9409638.869 4  -7332174.528 3
  22036907.463     7304163.531 3   5691554.123 2
  23934855.747     -166555.252 3   -129755.573 1
 91  5 14 19 57 15.0020000  0  6 16 06 18 02 19 11
  24389205.601      253446.034 2    197478.969 1
  23499232.124    -5927869.769 2  -4619099.364 1
  24030641.833    18266593.954 2  14233682.806 1
  22074975.715    -9417460.669 4  -7338269.388 3
  22043246.577     7337508.601 3   5717537.275 2
  23940576.688     -136462.353 2   -106306.548 2
 91  5 14 19 57 30.0020000  0  6 16 06 18 02 19 11
  24394665.721      282160.057 2    219853.478 1
  23496454.241    -5942450.425 2  -4630460.862 1
  24043439.073    18333894.800 2  14286124.863 1
  22073502.829    -9425202.999 4  -7344302.329 3
  22049606.379     7370909.141 3   5743563.648 2
  23946338.697     -106222.618 2    -82743.096 1
 91  5 14 19 57 45.0020000  0  6 16 06 18 02 19 11
  24400157.026      310992.124 2    242319.992 1
  23493684.760    -5957016.391 2  -4641810.921 1
  24056261.196    18401243.163 2  14338604.002 1
  22072044.044    -9432865.041 4  -7350272.704 3
  22055973.065     7404366.298 3   5769634.136 2
  23952117.790      -75835.197 2    -59064.577 1
 91  5 14 19 58  0.0020000  0  6 16 06 18 02 19 11
  24405665.414      339942.644 2    264878.774 1
  23490914.076    -5971567.145 2  -4653149.106 1
  24069085.117    18468639.202 2  14391120.269 1
  22070602.638    -9440446.122 4  -7356180.002 3
  22062351.451     7437880.472 3   5795749.053 2
  23957932.569      -45299.660 3    -35270.627 1
 91  5 14 19 58 15.0020000  0  6 16 06 18 02 19 11
  24411195.082      369014.152 2    287531.829 1
  23488148.496    -5986099.865 2  -4664473.230 2
  24081918.033    18536085.518 2  14443675.726 1
  22069175.629    -9447943.399 4  -7362021.986 3
  22068738.833     7471454.573 3   5821910.668 2
  23963770.426      -14613.372 3    -11359.192 1
 91  5 14 19 58 30.0020000  0  6 16 06 18 02 19 11
  24416754.434      398204.168 2    310277.281 1
  23485388.901    -6000616.763 2  -4675785.066 1
  24094769.839    18603579.692 2  14496268.442 1
  22067765.407    -9455359.168 4  -7367800.473 3
  22075139.398     7505086.250 3   5848117.145 2
  23969634.668       16221.327 3     12667.882 1
 91  5 14 19 58 45.0020000  0  6 16 06 18 02 19 11
  24422327.571      427514.287 2    333116.240 1
  23482627.212    -6015115.888 2  -4687083.028 1
  24107621.043    18671123.442 2  14548899.785 1
  22066370.166    -9462691.437 4  -7373513.888 3
  22081549.858     7538777.676 3   5874370.183 2
  23975533.383       47206.283 2     36812.034 1
 91  5 14 19 59  0.0020000  0  6 16 06 18 02 19 11
  24427935.190      456948.510 2    356051.939 1
  23479873.323    -6029592.985 2  -4698363.829 1
  24120480.641    18738720.690 2  14601572.841 1
  22064990.823    -9469936.090 4  -7379159.024 3
  22087972.018     7572533.102 3   5900673.086 2
  23981458.482       78345.536 2     61076.408 1
 91  5 14 19 59 15.0020000  0  6 16 06 18 02 19 11
  24433553.305      486504.458 2    379082.527 1
  23477123.029    -6044049.987 2  -4709628.956 1
  24133354.024    18806369.022 2  14654285.682 1
  22063627.367    -9477095.033 4  -7384737.383 3
  22094405.259     7606350.477 3   5927024.264 2
  23987409.966      109637.067 2     85459.436 2
 91  5 14 19 59 30.0020000  0  6 16 06 18 02 19 11
  24439199.593      516185.701 2    402210.707 1
  23474373.625    -6058483.489 2  -4720875.806 2
  24146237.607    18874071.811 2  14707040.963 1
  22062283.701    -9484164.926 4  -7390246.350 3
  22100855.897     7640233.285 3   5953426.431 2
  23993398.915      141084.162 3    109963.703 1
 91  5 14 19 59 45.0020000  0  6 16 06 18 02 19 11
  24444877.065      545988.625 2    425433.691 1
  23471632.327    -6072896.715 2  -4732106.831 1
  24159131.983    18941825.507 2  14759835.927 1
  22060957.118    -9491149.128 4  -7395688.538 3
  22107316.727     7674178.462 3   5979877.199 2
  23999408.552      172683.191 3    134586.348 1
 91  5 14 20  0  0.0020000  0  6 16 06 18 02 19 11
  24450568.026      575916.385 2    448753.962 1
  23468895.225    -6087286.179 2  -4743319.369 2
  24172036.847    19009633.182 2  14812672.938 1
  22059640.725    -9498044.050 4  -7401061.161 3
  22113788.341     7708189.681 3   6006379.417 2
  24005452.671      204437.752 3    159330.179 1
 91  5 14 20  0 15.0020000  0  6 16 06 18 02 19 11
  24456288.068      605970.568 2    472172.744 1
  23466164.711    -6101649.715 2  -4754511.695 1
  24184946.509    19077496.579 2  14865553.361 1
  22058346.827    -9504847.560 4  -7406362.554 3
  22120273.156     7742268.894 3   6032934.628 2
  24011526.769      236349.678 2    184196.670 1
 91  5 14 20  0 30.0020000  0  6 16 06 18 02 19 11
  24462031.790      636154.431 2    495692.598 1
  23463432.705    -6115984.239 2  -4765681.385 2
  24197872.662    19145418.613 2  14918479.496 1
  22057071.207    -9511556.517 4  -7411590.267 3
  22126775.055     7776419.117 3   6059545.170 2
  24017630.837      268421.984 2    209188.085 1
 91  5 14 20  0 45.0020000  0  6 16 06 18 02 19 11
  24467798.895      666465.966 2    519311.935 1
  23460709.093    -6130291.422 2  -4776829.800 2
  24210811.702    19213397.289 2  14971449.767 1
  22055811.781    -9518172.567 4  -7416745.588 3
  22133283.550     7810638.676 3   6086209.727 2
  24023763.394      300652.770 2    234302.993 2
 91  5 14 20  1  0.0020000  0  6 16 06 18 02 19 11
  24473591.486      696902.049 2    543028.306 1
  23457987.574    -6144573.884 2  -4787958.942 1
  24223758.838    19281429.704 2  15024461.880 1
  22054571.237    -9524698.479 4  -7421830.671 3
  22139808.230     7844925.032 3   6112926.354 2
  24029921.436      333039.347 2    259539.330 2
 91  5 14 20  1 15.0020000  0  6 16 06 18 02 19 11
  24479408.961      727467.213 2    566845.216 1
  23455280.443    -6158827.277 2  -4799065.426 1
  24236715.267    19349519.969 2  15077519.076 1
  22053346.284    -9531129.841 4  -7426842.077 3
  22146348.798     7879282.419 3   6139698.319 2
  24036121.743      365585.759 2    284900.174 2
 91  5 14 20  1 30.0020000  0  6 16 06 18 02 19 11
  24485253.710      758158.186 2    590760.182 1
  23452568.226    -6173054.597 2  -4810151.598 1
  24249681.896    19417664.695 2  15130618.759 1
  22052139.025    -9537469.732 4  -7431782.221 3
  22152898.964     7913708.001 3   6166523.421 2
  24042343.330      398288.983 2    310383.243 1
 91  5 14 20  1 45.0020000  0  6 16 06 18 02 19 11
  24491109.559      788973.822 2    614772.311 1
  23449868.590    -6187256.261 2  -4821217.794 1
  24262663.209    19485863.414 2  15183760.463 1
  22050950.046    -9543718.892 4  -7436651.652 3
  22159462.026     7948201.269 3   6193401.269 2
  24048594.609      431148.273 2    335987.894 1
 91  5 14 20  2  0.0020000  0  6 16 06 18 02 19 11
  24497002.279      819911.363 2    638879.442 1
  23447174.355    -6201435.057 2  -4832266.164 1
  24275650.219    19554112.864 2  15236941.701 1
  22049776.362    -9549880.049 4  -7441452.519 3
  22166040.069     7982759.562 3   6220329.799 2
  24054876.757      464160.780 2    361711.954 1
 91  5 14 20  2 15.0030000  0  6 16 06 18 02 19 11
  24502910.891      850975.729 2    663085.407 1
  23444479.521    -6215588.695 2  -4843294.931 2
  24288647.415    19622420.656 2  15290168.429 1
  22048622.757    -9555950.373 4  -7446182.598 3
  22172628.611     8017388.366 3   6247313.258 2
  24061189.481      497331.772 2    387559.501 1
 91  5 14 20  2 30.0030000  0  6 16 06 18 02 19 11
  24508847.979      882158.738 2    687383.762 1
  23441790.687    -6229718.932 2  -4854305.456 1
  24301646.719    19690773.326 2  15343430.100 1
  22047484.148    -9561932.727 4  -7450844.134 3
  22179227.045     8052079.371 3   6274345.201 2
  24067529.799      530652.793 2    413523.945 2
 91  5 14 20  2 45.0030000  0  6 16 06 18 02 19 11
  24514805.457      913463.444 2    711777.009 1
  23439106.643    -6243825.794 2  -4865297.768 1
  24314668.203    19759176.342 2  15396730.993 1
  22046363.224    -9567826.345 4  -7455436.529 3
  22185844.359     8086836.078 3   6301428.320 2
  24073899.190      564126.997 2    439607.781 1
 91  5 14 20  3  0.0030000  0  6 16 06 18 02 19 11
  24520782.418      944888.793 2    736264.208 1
  23436424.701    -6257909.783 2  -4876272.270 1
  24327694.790    19827628.689 2  15450070.362 1
  22045257.587    -9573632.015 4  -7459960.381 3
  22192466.778     8121657.784 3   6328562.105 2
  24080298.857      597753.547 2    465810.296 1
 91  5 14 20  3 15.0030000  0  6 16 06 18 02 19 11
  24526784.560      976432.220 2    760843.445 1
  23433749.050    -6271973.491 2  -4887230.932 1
  24340732.459    19896127.845 2  15503446.190 1
  22044169.339    -9579352.158 4  -7464417.598 3
  22199105.975     8156541.985 3   6355744.575 2
  24086727.604      631529.947 2    492129.584 1
 91  5 14 20  3 30.0030000  0  6 16 06 18 02 19 11
  24532810.085     1008095.464 2    785516.017 1
  23431078.504    -6286014.509 2  -4898171.932 1
  24353777.927    19964675.654 2  15556859.898 1
  22043097.582    -9584984.616 4  -7468806.491 3
  22205757.178     8191490.841 3   6382977.445 2
  24093182.134      665458.116 2    518567.126 1
 91  5 14 20  3 45.0030000  0  6 16 06 18 02 19 11
  24538854.500     1039876.453 2    810280.323 1
  23428410.052    -6300034.866 2  -4909096.864 1
  24366824.600    20033269.842 2  15610309.747 1
  22042040.814    -9590531.371 4  -7473128.594 3
  22212421.861     8226502.407 3   6410259.153 2
  24099667.551      699535.909 2    545121.271 1
 91  5 14 20  4  0.0030000  0  6 16 06 18 02 19 11
  24544929.803     1071769.956 2    835132.356 1
  23425743.693    -6314039.377 2  -4920009.414 1
  24379882.057    20101905.182 2  15663791.720 1
  22041002.631    -9595997.303 4  -7477387.732 3
  22219091.343     8261572.008 3   6437586.105 2
  24106179.039      733758.255 2    571788.042 1
 91  5 14 20  4 15.0030000  0  6 16 06 18 02 19 11
  24551016.787     1103779.176 2    860074.536 1
  23423081.837    -6328024.636 2  -4930906.983 1
  24392954.207    20170585.056 2  15717308.362 1
  22039978.242    -9601378.959 4  -7481581.186 3
  22225779.113     8296703.135 3   6464961.000 2
  24112715.716      768128.454 2    598570.037 1
 91  5 14 20  4 30.0030000  0  6 16 06 18 02 19 11
  24557133.752     1135912.525 2    885113.440 1
  23420426.577    -6341981.853 2  -4941782.728 1
  24406034.454    20239317.597 2  15770866.009 1
  22038970.335    -9606667.818 4  -7485702.333 3
  22232482.474     8331904.432 3   6492390.565 2
  24119290.766      802655.123 2    625473.943 1
 91  5 14 20  4 45.0030000  0  6 16 06 18 02 19 11
  24563273.201     1168166.623 2    910246.447 1
  23417778.210    -6355914.244 2  -4952639.085 1
  24419127.893    20308099.322 2  15824462.009 1
  22037981.920    -9611867.073 4  -7489753.663 3
  22239187.930     8367172.734 3   6519872.337 2
  24125889.793      837334.854 2    652497.108 1
 91  5 14 20  5  0.0030000  0  6 16 06 18 02 19 11
  24569439.628     1200547.931 2    935478.538 1
  23415131.038    -6369815.101 2  -4963470.864 1
  24432228.819    20376936.692 2  15878101.371 1
  22037011.496    -9616970.108 4  -7493730.016 3
  22245917.074     8402514.725 3   6547411.536 2
  24132520.902      872174.049 2    679644.530 1
 91  5 14 20  5 15.0030000  0  6 16 06 18 02 19 11
  24575619.256     1233053.086 2    960807.183 1
  23412491.370    -6383687.451 2  -4974280.451 1
  24445336.044    20445826.656 2  15931781.707 1
  22036057.257    -9621979.928 4  -7497633.736 3
  22252655.511     8437927.475 3   6575005.866 2
  24139174.495      907169.586 2    706913.808 1
 91  5 14 20  5 30.0030000  0  6 16 06 18 02 19 11
  24581825.557     1265682.068 2    986232.312 1
  23409855.296    -6397530.933 2  -4985067.523 1
  24458457.063    20514768.857 2  15985502.755 1
  22035122.204    -9626896.065 4  -7501464.455 3
  22259402.934     8473411.292 3   6602655.586 2
  24145868.861      942321.585 2    734304.985 1
 91  5 14 20  5 45.0030000  0  6 16 06 18 02 19 11
  24588063.338     1298435.733 2   1011754.568 1
  23407230.914    -6411344.364 2  -4995831.197 2
  24471586.171    20583764.036 2  16039265.109 1
  22034202.735    -9631717.604 4  -7505221.458 3
  22266172.851     8508967.357 3   6630361.594 2
  24152586.916      977630.932 2    761818.754 1
 91  5 14 20  6  0.0030000  0  6 16 06 18 02 19 11
  24594314.913     1331310.632 2   1037371.285 1
  23404606.227    -6425131.232 2  -5006574.170 1
  24484725.478    20652808.793 2  16093066.041 1
  22033301.859    -9636447.778 4  -7508907.269 3
  22272949.355     8544592.268 3   6658121.252 2
  24159334.941     1013094.125 2    789452.429 2
 91  5 14 20  6 15.0030000  0  6 16 06 18 02 19 11
  24600593.467     1364303.458 2   1063079.871 1
  23401987.543    -6438894.248 2  -5017298.559 1
  24497873.179    20721899.831 2  16146903.064 1
  22032423.170    -9641089.677 4  -7512524.297 3
  22279742.053     8580282.943 3   6685932.156 2
  24166110.547     1048707.948 2    817203.449 2
 91  5 14 20  6 30.0030000  0  6 16 06 18 02 19 11
  24606899.295     1397411.750 2   1088878.486 1
  23399373.055    -6452635.755 2  -5028006.178 1
  24511023.270    20791034.725 2  16200774.249 1
  22031554.673    -9645645.512 4  -7516074.258 3
  22286551.843     8616037.309 3   6713792.686 2
  24172920.032     1084470.091 2    845070.008 1
 91  5 14 20  6 45.0030000  0  6 16 06 18 02 19 11
  24613219.825     1430638.174 2   1114769.150 1
  23396758.559    -6466352.623 2  -5038694.610 1
  24524191.955    20860216.349 2  16254681.872 1
  22030702.361    -9650112.369 4  -7519554.885 3
  22293361.625     8651858.541 3   6741705.320 2
  24179752.010     1120383.449 2    873054.465 1
 91  5 14 20  7  0.0030000  0  6 16 06 18 02 19 11
  24619562.534     1463978.068 2   1140748.227 1
  23394154.568    -6480048.867 2  -5049366.954 1
  24537364.234    20929440.056 2  16308622.221 1
  22029867.743    -9654494.475 4  -7522969.476 3
  22300189.101     8687742.290 3   6769666.672 2
  24186613.959     1156443.560 2    901153.266 1
 91  5 14 20  7 15.0030000  0  6 16 06 18 02 19 11
  24625931.026     1497438.701 2   1166821.363 1
  23391555.663    -6493717.385 2  -5060017.701 1
  24550548.206    20998712.882 2  16362600.906 1
  22029054.100    -9658784.352 4  -7526312.198 3
  22307032.466     8723696.107 3   6797682.623 2
  24193505.582     1192657.543 2    929371.955 2
 91  5 14 20  7 30.0030000  0  6 16 06 18 02 19 11
  24632315.703     1531014.160 2   1192983.993 1
  23388956.462    -6507363.801 2  -5070651.227 1
  24563737.281    21068029.089 2  16416613.387 1
  22028251.556    -9662987.861 4  -7529587.623 3
  22313887.513     8759714.376 3   6825748.801 2
  24200426.897     1229019.516 2    957705.974 1
 91  5 14 20  7 45.0030000  0  6 16 06 18 02 19 11
  24638735.158     1564704.303 2   1219235.972 1
  23386361.457    -6520987.502 2  -5081267.030 1
  24576940.735    21137388.582 2  16470659.578 1
  22027472.099    -9667104.467 4  -7532795.332 3
  22320753.964     8795797.334 3   6853865.381 2
  24207373.087     1265529.717 2    986155.466 2
 91  5 14 20  8  0.0030000  0  6 16 06 18 02 19 11
  24645166.008     1598507.715 2   1245576.176 1
  23383773.354    -6534590.036 2  -5091866.377 2
  24590140.900    21206789.572 2  16524738.139 1
  22026704.926    -9671135.847 4  -7535936.631 3
  22327630.301     8831943.563 3   6882031.259 2
  24214346.255     1302186.539 2   1014719.225 2
 91  5 14 20  8 15.0030000  0  6 16 06 18 02 19 11
  24651613.044     1632419.209 2   1272000.656 1
  23381188.541    -6548175.939 2  -5102452.755 2
  24603358.750    21276227.124 2  16578845.169 1
  22025950.649    -9675086.701 4  -7539015.184 3
  22334523.731     8868148.363 3   6910242.770 2
  24221347.012     1338985.086 2   1043393.376 1
 91  5 14 20  8 30.0030000  0  6 16 06 18 02 19 11
  24658092.754     1666441.303 2   1298511.296 1
  23378609.722    -6561742.744 2  -5113024.245 1
  24616575.999    21345703.704 2  16632982.596 1
  22025213.159    -9678954.416 4  -7542028.959 3
  22341420.755     8904414.550 3   6938502.135 2
  24228380.445     1375927.738 2   1072179.826 2
 91  5 14 20  8 45.0030000  0  6 16 06 18 02 19 11
  24664588.057     1700576.261 2   1325109.922 1
  23376030.309    -6575287.874 2  -5123578.858 1
  24629804.643    21415221.424 2  16687152.088 1
  22024494.559    -9682736.555 4  -7544976.044 3
  22348339.068     8940744.757 3   6966811.371 2
  24235442.356     1413016.836 2   1101080.433 2
 91  5 14 20  9  0.0030000  0  6 16 06 18 02 19 11
  24671099.850     1734823.351 2   1351795.874 1
  23373454.491    -6588811.714 2  -5134116.878 2
  24643047.377    21484779.474 2  16741352.994 1
  22023792.144    -9686433.529 4  -7547856.762 3
  22355264.571     8977138.456 3   6995170.071 2
  24242524.945     1450251.748 2   1130094.635 2
 91  5 14 20  9 15.0030000  0  6 16 06 18 02 19 11
  24677640.122     1769184.054 2   1378570.350 1
  23370885.575    -6602312.200 2  -5144636.708 1
  24656281.413    21554379.516 2  16795586.638 1
  22023104.719    -9690043.508 4  -7550669.698 3
  22362198.170     9013597.451 3   7023579.673 2
  24249634.827     1487634.136 2   1159223.757 2
 91  5 14 20  9 30.0030000  0  6 16 06 18 02 19 11
  24684200.488     1803662.121 2   1405436.331 1
  23368322.347    -6615785.334 2  -5155135.195 1
  24669541.834    21624025.442 2  16849856.052 1
  22022435.582    -9693562.480 4  -7553411.725 3
  22369146.463     9050125.883 3   7052043.366 2
  24256781.581     1525167.889 2   1188470.801 1
 91  5 14 20  9 45.0030000  0  6 16 06 18 02 19 11
  24690787.823     1838252.937 2   1432390.123 1
  23365763.622    -6629235.490 2  -5165615.796 1
  24682802.551    21693712.402 2  16904157.421 1
  22021779.637    -9696994.530 4  -7556086.012 3
  22376113.341     9086719.447 3   7080557.827 2
  24263948.421     1562848.394 2   1217832.215 1
 91  5 14 20 10  0.0030000  0  6 16 06 18 02 19 11
  24697387.451     1872960.735 2   1459435.109 1
  23363208.186    -6642658.091 2  -5176074.922 1
  24696074.366    21763444.717 2  16958494.122 1
  22021147.677    -9700335.332 4  -7558689.203 3
  22383088.611     9123382.502 3   7109126.428 2
  24271151.827     1600679.959 2   1247311.317 2
 91  5 14 20 10 15.0030000  0  6 16 06 18 02 19 11
  24704011.667     1907780.172 2   1486567.053 1
  23360662.653    -6656058.092 2  -5186516.424 1
  24709350.675    21833217.218 2  17012862.149 1
  22020525.909    -9703589.906 4  -7561225.199 3
  22390081.271     9160110.231 3   7137745.428 2
  24278376.828     1638657.541 2   1276904.239 1
 91  5 14 20 10 30.0030000  0  6 16 06 18 02 19 11
  24710666.160     1942713.905 2   1513788.056 1
  23358115.915    -6669432.620 2  -5196938.094 1
  24722641.974    21903032.186 2  17067263.246 1
  22019922.428    -9706755.613 4  -7563691.951 3
  22397083.520     9196905.576 3   7166417.107 2
  24285632.105     1676783.624 2   1306612.833 1
 91  5 14 20 10 45.0030000  0  6 16 06 18 02 19 11
  24717335.048     1977759.259 2   1541096.115 1
  23355575.172    -6682783.981 2  -5207341.710 2
  24735927.575    21972887.175 2  17121695.556 1
  22019341.126    -9709834.806 4  -7566091.281 3
  22404097.766     9233766.241 3   7195139.679 2
  24292911.071     1715055.695 2   1336435.217 1
 91  5 14 20 11  0.0030000  0  6 16 06 18 02 19 11
  24724024.013     2012915.262 2   1568490.334 1
  23353036.829    -6696112.969 2  -5217727.869 2
  24749230.862    22042781.094 2  17176158.192 1
  22018770.923    -9712828.350 4  -7568423.884 3
  22411121.906     9270691.163 3   7223912.336 2
  24300226.307     1753472.650 2   1366370.458 1
 91  5 14 20 11 15.0030000  0  6 16 06 18 02 19 11
  24730738.168     2048179.650 2   1595968.954 1
  23350503.284    -6709421.384 2  -5228098.030 2
  24762535.955    22112711.405 2  17230649.156 1
  22018214.208    -9715737.992 4  -7570691.097 3
  22418163.130     9307678.623 3   7252733.712 2
  24307565.519     1792032.328 2   1396416.965 1
 91  5 14 20 11 30.0030000  0  6 16 06 18 02 19 11
  24737465.506     2083552.602 2   1623532.185 1
  23347976.929    -6722708.815 3  -5238451.820 1
  24775851.535    22182678.932 2  17285169.157 1
  22017673.679    -9718563.254 4  -7572892.553 3
  22425209.153     9344729.221 3   7281604.283 2
  24314926.326     1830735.180 2   1426574.988 1
 91  5 14 20 11 45.0030000  0  6 16 06 18 02 19 11
  24744213.837     2119031.188 2   1651177.794 1
  23345452.083    -6735977.627 2  -5248791.112 1
  24789173.415    22252680.442 2  17339715.622 1
  22017155.338    -9721306.858 4  -7575030.394 3
  22432271.963     9381840.462 3   7310522.118 2
  24322320.411     1869578.503 2   1456842.514 1
 91  5 14 20 12  0.0030000  0  6 16 06 18 02 19 11
  24750984.050     2154615.014 2   1678905.363 1
  23342927.525    -6749227.721 2  -5259115.815 2
  24802506.682    22322715.820 2  17394288.477 1
  22016649.892    -9723968.660 4  -7577104.483 3
  22439347.660     9419012.213 3   7339487.095 2
  24329738.473     1908561.987 2   1487219.254 1
 91  5 14 20 12 15.0030000  0  6 16 06 18 02 19 11
  24757780.648     2190304.084 2   1706714.962 1
  23340414.371    -6762458.779 3  -5269425.678 1
  24815833.352    22392785.012 2  17448887.703 1
  22016159.428    -9726548.505 4  -7579114.704 3
  22446429.961     9456244.988 3   7368499.627 2
  24337183.521     1947685.607 2   1517705.147 1
 91  5 14 20 12 30.0030000  0  6 16 06 18 02 19 11
  24764595.525     2226097.883 2   1734606.072 1
  23337894.908    -6775671.418 2  -5279721.192 2
  24829169.027    22462887.227 2  17503512.653 1
  22015682.461    -9729046.913 4  -7581061.479 3
  22453526.049     9493538.295 3   7397559.317 2
  24344649.553     1986948.753 2   1548299.789 1
 91  5 14 20 12 45.0030000  0  6 16 06 18 02 19 11
  24771425.401     2262001.650 2   1762582.994 1
  23335387.452    -6788860.028 2  -5289997.993 2
  24842524.481    22533027.660 2  17558167.392 1
  22015223.477    -9731458.512 4  -7582940.603 3
  22460640.119     9530897.509 3   7426670.376 2
  24352150.660     2026356.720 2   1579007.268 1
 91  5 14 20 13  0.0030000  0  6 16 06 18 02 19 11
  24778275.353     2298008.424 2   1790640.115 1
  23332882.386    -6802030.906 2  -5300260.955 1
  24855873.932    22603199.544 2  17612846.634 1
  22014780.686    -9733789.814 4  -7584757.157 3
  22467761.989     9568316.330 3   7455827.877 2
  24359678.745     2065902.845 2   1609822.398 1
 91  5 14 20 13 15.0030000  0  6 16 06 18 02 19 11
  24785149.901     2334122.586 2   1818780.949 1
  23330379.710    -6815179.613 2  -5310506.661 2
  24869237.789    22673407.021 2  17667553.532 1
  22014350.783    -9736036.260 4  -7586507.600 3
  22474894.652     9605799.204 3   7485035.302 2
  24367230.518     2105591.326 2   1640748.473 1
 91  5 14 20 13 30.0030000  0  6 16 06 18 02 19 11
  24792035.827     2370343.488 2   1847004.966 1
  23327879.749    -6828306.365 2  -5320735.253 1
  24882601.332    22743649.970 2  17722288.178 1
  22013938.870    -9738198.179 4  -7588192.161 3
  22482036.913     9643345.956 3   7514292.479 2
  24374811.966     2145421.798 2   1671785.223 1
 91  5 14 20 13 45.0030000  0  6 16 06 18 02 19 11
  24798953.844     2406672.763 2   1875313.365 1
  23325386.968    -6841409.045 2  -5330945.087 2
  24895974.777    22813929.591 2  17777051.335 1
  22013545.237    -9740273.556 4  -7589809.302 3
  22489193.858     9680958.507 3   7543600.938 2
  24382419.502     2185395.988 2   1702933.924 1
 91  5 14 20 14  0.0030000  0  6 16 06 18 02 19 11
  24805885.044     2443106.315 2   1903703.091 1
  23322899.893    -6854491.614 2  -5341139.239 1
  24909350.613    22884241.753 2  17831839.877 1
  22013163.601    -9742266.405 4  -7591362.127 3
  22496364.588     9718633.095 3   7572957.733 2
  24390043.825     2225509.717 2   1734191.400 1
 91  5 14 20 14 15.0030000  0  6 16 06 18 02 19 11
  24812837.534     2479643.608 2   1932173.690 1
  23320412.216    -6867554.510 2  -5351318.078 2
  24922739.651    22954585.846 2  17886653.288 1
  22012802.652    -9744177.071 4  -7592850.922 3
  22503544.323     9756369.216 3   7602362.467 2
  24397710.718     2265762.354 2   1765557.064 1
 91  5 14 20 14 30.0030000  0  6 16 06 18 02 19 11
  24819812.804     2516285.826 2   1960725.918 1
  23317929.329    -6880595.732 2  -5361480.016 2
  24936128.077    23024963.366 2  17941492.741 1
  22012455.497    -9746003.936 4  -7594274.406 3
  22510737.844     9794168.737 3   7631816.617 2
  24405397.992     2306155.443 2   1797032.184 1
 91  5 14 20 14 45.0030000  0  6 16 06 18 02 19 11
  24826803.065     2553032.152 2   1989359.534 1
  23315453.946    -6893615.936 2  -5371625.589 2
  24949527.899    23095373.569 2  17996357.699 1
  22012124.527    -9747747.648 4  -7595633.113 3
  22517939.156     9832031.045 3   7661319.685 2
  24413109.252     2346688.199 2   1828616.118 2
 91  5 14 20 15  0.0030000  0  6 16 06 18 02 19 11
  24833818.506     2589878.224 2   2018071.009
  23312979.156    -6906619.064 2  -5381757.828 2
  24962933.121    23165812.085 2  18051244.661 1
  22011807.946    -9749412.239 4  -7596930.153 3
  22525154.856     9869952.225 3   7690868.646 2
  24420851.696     2387356.301 2   1860305.552 1
 91  5 14 20 15 15.0030000  0  6 16 06 18 02 19 11
  24840848.937     2626829.076 2   2046863.787 1
  23310507.673    -6919599.970 2  -5391872.774 2
  24976353.630    23236283.656 2  18106157.406 1
  22011504.556    -9750992.660 4  -7598161.612 3
  22532391.252     9907937.349 3   7720467.419 2
  24428615.420     2428164.572 2   1892104.210 1
 91  5 14 20 15 30.0030000  0  6 16 06 18 02 19 11
  24847902.158     2663886.112 2   2075739.307 1
  23308042.481    -6932556.518 3  -5401968.736 1
  24989764.846    23306790.003 2  18161097.235 1
  22011223.049    -9752486.909 4  -7599325.929 3
  22539628.241     9945988.308 3   7750117.486 2
  24436408.225     2469114.826 2   1924013.506 1
 91  5 14 20 15 45.0030000  0  6 16 06 18 02 19 11
  24854973.964     2701045.754 2   2104694.800 1
  23305581.485    -6945491.858 3  -5412048.176 2
  25003183.252    23377327.791 2  18216061.578 1
  22010953.234    -9753898.030 4  -7600425.470 3
  22546879.618     9984102.211 3   7779816.601 2
  24444229.814     2510203.910 2   1956030.984 1
 91  5 14 20 16  0.0030000  0  6 16 06 18 02 19 11
  24862065.549     2738312.370 2   2133733.618 1
  23303127.383    -6958401.538 2  -5422107.604 2
  25016613.062    23447901.105 2  18271053.573 1
  22010700.808    -9755221.918 4  -7601457.034 3
  22554143.594    10022283.186 3   7809568.001 2
  24452071.784     2551435.792 2   1988159.757 1
 91  5 14 20 16 15.0030000  0  6 16 06 18 02 19 11
  24869173.930     2775686.159 2   2162855.949 1
  23300671.483    -6971285.033 2  -5432146.655 2
  25030054.851    23518509.936 2  18326073.313 1
  22010466.067    -9756458.053 4  -7602420.222 3
  22561425.849    10060531.862 3   7839372.133 2
  24459949.127     2592810.776 2   2020400.001 1
 91  5 14 20 16 30.0030000  0  6 16 06 18 02 19 11
  24876307.492     2813167.124 2   2192061.808 1
  23298227.274    -6984141.849 3  -5442164.907 2
  25043492.453    23589154.685 2  18381120.959 1
  22010245.724    -9757605.938 4  -7603314.642 3
  22568714.701    10098848.934 3   7869229.559 2
  24467846.563     2634329.015 2   2052751.856 1
 91  5 14 20 16 45.0030000  0  6 16 06 18 02 19 11
  24883458.137     2850753.207 2   2221349.667 1
  23295785.465    -6996973.771 2  -5452163.750 2
  25056945.637    23659833.047 2  18436194.842 1
  22010044.863    -9758667.531 4  -7604141.819 3
  22576022.747    10137232.377 3   7899138.708 2
  24475774.276     2675988.372 2   2085213.701 2
 91  5 14 20 17  0.0030000  0  6 16 06 18 02 19 11
  24890628.580     2888447.988 2   2250722.105 1
  23293347.548    -7009776.813 3  -5462140.090 2
  25070405.723    23730548.732 2  18491297.812 1
  22009861.688    -9759638.737 4  -7604898.569 3
  22583345.478    10175686.342 2   7929102.819 2
  24483728.067     2717792.716 2   2117788.521 1
 91  5 14 20 17 15.0030000  0  6 16 06 18 02 19 11
  24897827.196     2926252.502 2   2280180.084 1
  23290915.633    -7022549.396 3  -5472092.697 2
  25083874.499    23801303.093 2  18546430.909 1
  22009690.807    -9760518.297 4  -7605583.903 3
  22590667.903    10214212.133 3   7959122.889 2
  24491717.833     2759743.113 2   2150477.175 1
 91  5 14 20 17 30.0030000  0  6 16 06 18 02 19 11
  24905041.395     2964166.099 2   2309723.043 1
  23288491.815    -7035291.909 3  -5482021.893 2
  25097339.375    23872095.193 2  18601593.389 1
  22009540.613    -9761306.667 4  -7606198.178 3
  22598015.815    10252809.518 3   7989198.753 2
  24499725.589     2801839.034 2   2183279.183 1
 91  5 14 20 17 45.0030000  0  6 16 06 18 02 19 11
  24912283.489     3002185.667 2   2339348.620 1
  23286073.084    -7048007.356 3  -5491929.986 2
  25110814.442    23942921.846 2  18656782.809 1
  22009410.504    -9762006.972 4  -7606743.840 3
  22605372.129    10291475.580 3   8019328.121 2
  24507762.427     2844077.170 2   2216192.026 1
 91  5 14 20 18  0.0030000  0  6 16 06 18 02 19 11
  24919530.669     3040313.095 2   2369058.180 1
  23283655.862    -7060693.249 3  -5501815.062 2
  25124306.304    24013785.001 2  18712000.672 1
  22009293.884    -9762616.993 4  -7607219.147 3
  22612738.930    10330212.516 3   8049512.721 2
  24515828.642     2886459.520 2   2249217.268 1
 91  5 14 20 18 15.0030000  0  6 16 06 18 02 19 11
  24926811.127     3078546.783 2   2398850.622 1
  23281249.128    -7073350.939 3  -5511678.149 2
  25137797.862    24084683.381 2  18767245.984 1
  22009194.051    -9763137.806 4  -7607624.942 3
  22620127.012    10369019.134 3   8079751.608 2
  24523919.147     2928984.667 2   2282353.778 1
 91  5 14 20 18 30.0030000  0  6 16 06 18 02 19 11
  24934103.878     3116880.892 2   2428721.279 1
  23278845.989    -7085985.724 3  -5521523.385 2
  25151287.325    24155611.045 2  18822514.137 1
  22009109.514    -9763574.910 4  -7607965.516 3
  22627525.887    10407889.831 3   8110040.450 2
  24532037.826     2971646.831 2   2315597.062 1
 91  5 14 20 18 45.0030000  0  6 16 06 18 02 19 11
  24941411.916     3155318.229 2   2458672.309 1
  23276443.155    -7098594.054 3  -5531348.019 2
  25164796.873    24226571.000 2  18877807.433 1
  22009041.755    -9763924.976 4  -7608238.259 3
  22634931.367    10446828.152 3   8140381.967 2
  24540181.389     3014449.191 2   2348949.597 1
 91  5 14 20 19  0.0030000  0  6 16 06 18 02 19 11
  24948751.442     3193859.363 2   2488704.299 1
  23274049.308    -7111175.486 3  -5541151.687 2
  25178305.523    24297563.660 2  18933126.207 1
  22008994.386    -9764187.671 4  -7608442.925 3
  22642359.619    10485834.814 3   8170776.757 2
  24548351.930     3057392.132 2   2382411.637 1
 91  5 14 20 19 15.0030000  0  6 16 06 18 02 19 11
  24956101.753     3232496.141 2   2518810.808 1
  23271661.167    -7123738.066 2  -5550940.665 2
  25191815.970    24368580.713 2  18988463.985 1
  22008959.014    -9764371.038 4  -7608585.780 3
  22649793.272    10524901.654 3   8201218.424 2
  24556547.660     3100467.274 2   2415976.717 1
 91  5 14 20 19 30.0030000  0  6 16 06 18 02 19 11
  24963468.546     3271228.654 2   2548991.875 1
  23269272.119    -7136280.843 3  -5560714.214 2
  25205333.310    24439622.354 2  19043820.931 1
  22008939.828    -9764474.272 4  -7608666.190 3
  22657235.319    10564029.403 3   8231707.562 2
  24564776.956     3143675.146 2   2449645.200 1
 91  5 14 20 19 45.0030000  0  6 16 06 18 02 19 11
  24970860.833     3310059.184 2   2579249.347 1
  23266894.161    -7148801.599 3  -5570470.600 2
  25218857.849    24510690.572 2  19099198.583 1
  22008932.630    -9764495.200 4  -7608682.470 3
  22664695.653    10603220.391 3   8262245.971 2
  24573018.554     3187017.693 2   2483418.624 1
 91  5 14 20 20  0.0030000  0  6 16 06 18 02 19 11
  24978272.002     3348990.279 2   2609585.207 1
  23264516.813    -7161297.335 3  -5580207.491 2
  25232390.178    24581788.162 2  19154599.188 1
  22008946.721    -9764431.087 4  -7608632.473 3
  22672170.681    10642477.604 3   8292835.982 2
  24581293.125     3230497.618 2   2517299.105 1
 91  5 14 20 20 15.0030000  0  6 16 06 18 02 19 11
  24985697.558     3388021.393 2   2639998.967 1
  23262141.855    -7173768.053 3  -5589924.879 2
  25245926.408    24652914.680 2  19210022.257 1
  22008974.004    -9764282.100 4  -7608516.346 3
  22679647.506    10681800.738 3   8323477.358 2
  24589592.876     3274114.553 2   2551286.384 1
 91  5 14 20 20 30.0030000  0  6 16 06 18 02 19 11
  24993147.109     3427153.884 2   2670491.681 1
  23259774.097    -7186211.964 3  -5599621.395 2
  25259471.328    24724071.809 2  19265469.154 1
  22009018.973    -9764046.323 4  -7608332.592 3
  22687142.915    10721191.739 3   8354171.617 2
  24597917.816     3317870.097 2   2585381.666 1
 91  5 14 20 20 45.0030000  0  6 16 06 18 02 19 11
  25000614.938     3466386.448 2   2701062.422 1
  23257411.128    -7198629.959 3  -5609297.728 2
  25273018.351    24795258.128 2  19320938.846 1
  22009080.730    -9763724.832 4  -7608082.050 3
  22694650.619    10760649.536 3   8384917.931 2
  24606274.830     3361762.840 2   2619583.829 1
 91  5 14 20 21  0.0030000  0  6 16 06 18 02 19 11
  25008095.960     3505712.498 2   2731705.997 1
  23255047.565    -7211028.139 3  -5618958.584 2
  25286563.577    24866467.250 2  19376426.295 1
  22009157.179    -9763323.891 4  -7607769.600 3
  22702169.115    10800168.241 3   8415711.721 2
  24614652.235     3405786.430 2   2653887.917 1
 91  5 14 20 21 15.0030000  0  6 16 06 18 02 19 11
  25015599.161     3545136.840 2   2762426.228 1
  23252696.594    -7223401.482 3  -5628600.099 2
  25300120.494    24937703.851 2  19431935.186 1
  22009251.916    -9762838.505 4  -7607391.336 3
  22709710.697    10839752.714 3   8446556.741 2
  24623052.717     3449945.707 2   2688297.752 1
 91  5 14 20 21 30.0030000  0  6 16 06 18 02 19 11
  25023121.854     3584662.772 2   2793225.598 1
  23250345.020    -7235746.155 3  -5638219.279 2
  25313682.201    25008971.203 2  19487467.993 1
  22009359.540    -9762264.967 4  -7606944.403 3
  22717253.476    10879406.561 3   8477455.827 2
  24631484.078     3494243.956 2   2722815.883 1
 91  5 14 20 21 45.0030000  0  6 16 06 18 02 19 11
  25030657.433     3624287.138 2   2824101.650 1
  23248000.941    -7248064.998 3  -5647818.344 2
  25327247.512    25080266.240 2  19543022.445 1
  22009483.655    -9761606.127 4  -7606430.991 3
  22724808.844    10919127.209 3   8508406.963 2
  24639934.328     3538678.179 2   2757439.963 1
 91  5 14 20 22  0.0030000  0  6 16 06 18 02 19 11
  25038220.602     3664008.634 2   2855053.366 1
  23245659.863    -7260358.682 3  -5657397.800 2
  25340818.816    25151587.748 2  19598597.505 1
  22009626.956    -9760863.015 4  -7605851.911 3
  22732381.296    10958913.607 3   8539409.322 2
  24648416.652     3583247.242 2   2792169.141 1
 91  5 14 20 22 15.0030000  0  6 16 06 18 02 19 11
  25045796.352     3703822.964 2   2886077.444 1
  23243326.882    -7272631.549 3  -5666961.037 2
  25354394.920    25222931.314 2  19654189.655 1
  22009784.043    -9760040.036 4  -7605210.602 3
  22739963.355    10998761.481 3   8570459.602 2
  24656922.665     3627946.595 2   2826999.817 1
 91  5 14 20 22 30.0030000  0  6 16 06 18 02 19 11
  25053395.791     3743733.032 2   2917176.108 1
  23240997.191    -7284880.411 3  -5676505.556 1
  25367977.314    25294299.532 2  19709801.107 1
  22009955.823    -9759134.189 4  -7604504.719 3
  22747557.689    11038673.975 3   8601560.227 2
  24665458.360     3672779.023 2   2861934.195 1
 91  5 14 20 22 45.0030000  0  6 16 06 18 02 19 11
  25061005.125     3783738.653 2   2948349.259 1
  23238671.400    -7297104.876 3  -5686031.070 2
  25381564.804    25365692.818 2  19765432.086 1
  22010143.797    -9758145.021 4  -7603733.914 3
  22755170.626    11078651.628 3   8632711.615 2
  24674010.538     3717744.643 2   2896972.370 1
 91  5 14 20 23  0.0030000  0  6 16 06 18 02 19 11
  25068636.044     3823839.560 2   2979596.652 1
  23236348.008    -7309304.807 3  -5695537.462 2
  25395146.605    25437110.713 2  19821082.250 1
  22010348.549    -9757072.586 4  -7602898.218 3
  22762787.149    11118694.522 3   8663913.849 2
  24682597.197     3762843.169 2   2932114.091 1
 91  5 14 20 23 15.0030000  0  6 16 06 18 02 19 11
  25076285.251     3864035.431 2   3010918.030 1
  23234035.409    -7321479.812 3  -5705024.439 2
  25408751.484    25508553.143 2  19876751.429 1
  22010567.401    -9755916.600 4  -7601997.428 3
  22770416.567    11158802.749 3   8695166.987 2
  24691202.737     3808074.607 2   2967359.373 1
 91  5 14 20 23 30.0030000  0  6 16 06 18 02 19 11
  25083943.148     3904325.683 2   3042312.939 1
  23231722.514    -7333630.387 3  -5714492.369 2
  25422350.971    25580019.467 2  19932439.273 1
  22010803.337    -9754677.551 4  -7601031.903 3
  22778062.773    11198975.837 3   8726470.672 2
  24699835.857     3853438.268 2   3002707.694 2
 91  5 14 20 23 45.0030000  0  6 16 06 18 02 19 11
  25091632.525     3944714.360 2   3073784.585 1
  23229412.916    -7345751.885 3  -5723937.665 2
  25435948.059    25651513.965 2  19988149.101 1
  22011054.262    -9753351.026 4  -7599998.222 3
  22785723.375    11239218.434 3   8757828.512 2
  24708491.470     3898938.393 2   3038162.371 1
 91  5 14 20 24  0.0030000  0  6 16 06 18 02 19 11
  25099338.986     3985195.859 2   3105328.512 1
  23227110.203    -7357849.715 3  -5733364.495 2
  25449561.035    25723030.572 2  20043876.187 1
  22011324.976    -9751942.447 4  -7598900.596 3
  22793388.767    11279525.206 3   8789236.373 2
  24717173.154     3944569.211 2   3073718.855 1
 91  5 14 20 24 15.0030000  0  6 16 06 18 02 19 11
  25107059.844     4025775.237 2   3136948.698 1
  23224811.695    -7369918.486 3  -5742768.691 2
  25463179.412    25794574.508 2  20099624.534 1
  22011608.280    -9750446.796 4  -7597735.127 3
  22801075.448    11319901.380 3   8820698.310 2
  24725885.725     3990335.754 2   3109381.140 1
 91  5 14 20 24 30.0030000  0  6 16 06 18 02 19 11
  25114799.583     4066448.200 2   3168641.881 1
  23222527.881    -7381961.930 3  -5752153.144 2
  25476797.780    25866141.848 2  20155391.048 1
  22011908.974    -9748867.676 4  -7596504.618 3
  22808770.218    11360343.108 2   8852211.339 2
  24734618.983     4036233.974 2   3145146.000 1
 91  5 14 20 24 45.0030000  0  6 16 06 18 02 19 11
  25122555.218     4107214.803 2   3200408.023 1
  23220235.062    -7393979.684 3  -5761517.583 2
  25490429.340    25937732.340 2  20211175.667 1
  22012227.353    -9747205.026 4  -7595209.016 3
  22816479.680    11400850.779 3   8883775.734 2
  24743379.516     4082263.885 2   3181013.473 1
 91  5 14 20 25  0.0030000  0  6 16 06 18 02 19 11
  25130331.236     4148072.618 2   3232245.171 1
  23217952.748    -7405973.811 3  -5770863.613 2
  25504053.711    26009343.757 2  20266976.573 1
  22012555.321    -9745460.947 4  -7593849.959 3
  22824199.639    11441422.257 3   8915389.864 2
  24752161.931     4128423.131 2   3216981.749 1
 91  5 14 20 25 15.0030000  0  6 16 06 18 02 19 11
  25138131.230     4189023.688 2   3264155.051 1
  23215676.122    -7417941.509 3  -5780189.046 2
  25517683.177    26080978.530 2  20322795.725 1
  22012903.985    -9743632.843 4  -7592425.435 3
  22831931.883    11482060.387 3   8947055.914 2
  24760970.435     4174714.132 2   3253052.689 1
 91  5 14 20 25 30.0030000  0  6 16 06 18 02 19 11
  25145938.432     4230071.721 2   3296140.441 1
  23213404.593    -7429879.096 3  -5789491.001 2
  25531322.835    26152639.903 2  20378635.530 1
  22013267.333    -9741717.031 4  -7590932.558 3
  22839683.619    11522768.645 2   8978776.611 2
  24769805.619     4221140.308 2   3289228.914 1
 91  5 14 20 25 45.0030000  0  6 16 06 18 02 19 11
  25153765.107     4271212.361 2   3328197.973 1
  23211140.261    -7441790.121 3  -5798772.286 2
  25544958.295    26224323.935 2  20434493.042 1
  22013652.564    -9739717.347 4  -7589374.336 3
  22847440.144    11563543.488 2   9010549.207 2
  24778665.688     4267697.699 2   3325507.418 1
 91  5 14 20 26  0.0030000  0  6 16 06 18 02 19 11
  25161613.081     4312451.851 2   3360332.548 1
  23208879.830    -7453668.227 3  -5808027.900 2
  25558596.748    26296036.588 2  20490372.857 1
  22014046.494    -9737627.582 4  -7587745.917 3
  22855211.363    11604391.152 2   9042378.540 2
  24787553.032     4314392.230 2   3361892.805 1
 91  5 14 20 26 15.0030000  0  6 16 06 18 02 19 11
  25169480.529     4353791.155 2   3392544.917 1
  23206622.993    -7465511.837 3  -5817256.653 2
  25572253.202    26367779.016 2  20546275.859 1
  22014461.705    -9735446.174 4  -7586046.082 3
  22863001.175    11645313.109 2   9074265.765 2
  24796468.863     4361225.177 2   3398386.011 1
 91  5 14 20 26 30.0030000  0  6 16 06 18 02 19 11
  25177367.173     4395229.396 2   3424834.369 1
  23204375.449    -7477321.569 3  -5826459.000 2
  25585914.436    26439550.479 2  20602201.481 1
  22014896.102    -9733173.807 4  -7584275.375 3
  22870801.772    11686308.805 2   9106210.458 2
  24805406.576     4408195.538 2   3434986.294 1
 91  5 14 20 26 45.0030000  0  6 16 06 18 02 19 11
  25185267.305     4436763.367 2   3457198.443 1
  23202136.594    -7489099.984 3  -5835636.942 2
  25599574.781    26511347.761 2  20658147.235 1
  22015346.396    -9730813.368 4  -7582436.040 3
  22878617.061    11727375.512 2   9138210.491 2
  24814366.469     4455300.293 2   3471691.319 1
 91  5 14 20 27  0.0030000  0  6 16 06 18 02 19 11
  25193190.219     4478395.196 2   3489638.761 1
  23199900.445    -7500844.604 3  -5844788.549 2
  25613241.721    26583173.188 2  20714114.875 1
  22015812.570    -9728362.350 4  -7580526.123 3
  22886445.246    11768515.883 2   9170267.887 2
  24823354.553     4502541.784 2   3508502.865 1
 91  5 14 20 27 15.0030000  0  6 16 06 18 02 19 11
  25201126.019     4520132.163 2   3522161.035 1
  23197672.087    -7512547.767 3  -5853907.852 2
  25626922.753    26655033.990 2  20770110.143 1
  22016296.133    -9725813.340 4  -7578539.852 3
  22894289.014    11809737.349 2   9202388.493 2
  24832369.911     4549927.062 2   3545426.447 1
 91  5 14 20 27 30.0030000  0  6 16 06 18 02 19 11
  25209096.607     4561970.925 2   3554762.569 1
  23195453.624    -7524212.505 3  -5862997.202 2
  25640605.582    26726926.908 2  20826130.371 1
  22016800.383    -9723169.376 4  -7576479.588 3
  22902145.373    11851036.615 3   9234569.721 2
  24841416.741     4597452.774 2   3582459.486 1
 91  5 14 20 27 45.0040000  0  6 16 06 18 02 19 11
  25217075.879     4603917.581 2   3587448.234 1
  23193241.157    -7535836.059 3  -5872054.468 2
  25654287.804    26798859.733 2  20882181.733 1
  22017321.127    -9720426.935 4  -7574342.586 3
  22910023.617    11892420.196 2   9266816.647 2
  24850485.169     4645125.355 2   3619606.948 1
 91  5 14 20 28  0.0040000  0  6 16 06 18 02 19 11
  25225076.743     4645969.817 2   3620216.124 1
  23191040.379    -7547413.072 3  -5881075.476 2
  25667986.818    26870826.237 2  20938259.352 1
  22017862.249    -9717582.779 4  -7572126.338 3
  22917918.052    11933886.086 2   9299127.722 2
  24859588.066     4692941.799 2   3656866.525 1
 91  5 14 20 28 15.0040000  0  6 16 06 18 02 19 11
  25233106.382     4688129.752 2   3653067.952 1
  23188845.299    -7558944.580 3  -5890061.018 2
  25681689.733    26942830.755 2  20994366.539 1
  22018421.363    -9714636.950 4  -7569830.852 3
  22925818.185    11975436.959 2   9331505.000 2
  24868715.245     4740904.812 2   3694240.289 1
 91  5 14 20 28 30.0040000  0  6 16 06 18 02 19 11
  25241145.916     4730396.112 2   3686002.744 1
  23186659.206    -7570431.260 3  -5899011.632 2
  25695400.744    27014872.238 2  21050502.691 1
  22019001.461    -9711590.446 4  -7567456.921 3
  22933743.498    12017071.919 3   9363947.810 2
  24877867.309     4789013.213 2   3731727.348 1
 91  5 14 20 28 45.0040000  0  6 16 06 18 02 19 11
  25249212.130     4772764.336 2   3719016.859 1
  23184479.420    -7581877.273 3  -5907930.556 2
  25709115.952    27086946.245 2  21106664.036 1
  22019598.345    -9708447.479 4  -7565007.831 3
  22941680.502    12058786.891 2   9396452.967 2
  24887054.752     4837262.632 2   3769324.314 2
 91  5 14 20 29  0.0040000  0  6 16 06 18 02 19 11
  25257296.336     4815220.665 2   3752099.677 1
  23182309.521    -7593295.927 3  -5916828.168 2
  25722831.457    27159038.829 2  21162840.315 1
  22020214.722    -9705221.606 4  -7562494.133 3
  22949633.395    12100568.536 2   9429010.083 2
  24896255.685     4885639.306 2   3807020.386 1
 91  5 14 20 29 15.0040000  0  6 16 06 18 02 19 11
  25265398.525     4857769.774 2   3785254.762 1
  23180141.418    -7604682.225 3  -5925700.571 2
  25736556.856    27231154.744 2  21219034.387 1
  22020846.088    -9701907.976 4  -7559912.056 3
  22957595.886    12142421.594 2   9461622.838 2
  24905488.386     4934147.815 2   3844819.228 1
 91  5 14 20 29 30.0040000  0  6 16 06 18 02 19 11
  25273501.621     4900406.193 2   3818477.818 1
  23177979.616    -7616041.440 3  -5934551.874 2
  25750285.849    27303288.486 2  21275242.326 1
  22021489.443    -9698511.838 4  -7557265.689 3
  22965579.657    12184340.793 2   9494287.114 2
  24914736.984     4982782.586 2   3882716.436 2
 91  5 14 20 29 45.0040000  0  6 16 06 18 02 19 11
  25281625.692     4943129.866 2   3851768.979 1
  23175822.908    -7627372.688 3  -5943381.369 2
  25764007.645    27375440.354 2  21331464.810 1
  22022154.078    -9695032.423 4  -7554554.436 3
  22973562.835    12226326.996 2   9527003.666 2
  24924021.259     5031544.077 2   3920712.387 1
 91  5 14 20 30  0.0040000  0  6 16 06 18 02 19 11
  25289780.048     4985938.854 2   3885126.599 1
  23173673.103    -7638677.755 3  -5952190.477 2
  25777739.343    27447608.294 2  21387699.461
  22022831.914    -9691471.748 4  -7551779.874 3
  22981564.598    12268378.243 2   9559770.820 2
  24933323.220     5080430.007 2   3958805.310 1
 91  5 14 20 30 15.0040000  0  6 16 06 18 02 19 11
  25297937.702     5028835.013 2   3918552.037 1
  23171526.883    -7649954.090 3  -5960977.184 2
  25791485.429    27519794.369 2  21443948.139 1
  22023525.028    -9687827.570 4  -7548940.206 3
  22989580.443    12310496.898 2   9592590.510 1
  24942653.057     5129442.525 2   3996996.886 1
 91  5 14 20 30 30.0040000  0  6 16 06 18 02 19 11
  25306117.840     5071818.113 2   3952045.326 1
  23169384.267    -7661201.771 3  -5969741.575 2
  25805224.614    27591998.394 2  21500210.820 1
  22024232.844    -9684100.084 4  -7546035.646 3
  22997605.885    12352682.938 3   9625462.739 2
  24951999.690     5178581.302 2   4035286.847 1
 91  5 14 20 30 45.0040000  0  6 16 06 18 02 19 11
  25314313.562     5114887.670 2   3985605.960 1
  23167251.545    -7672420.648 3  -5978483.514 2
  25818972.498    27664220.250 2  21556487.384 1
  22024959.236    -9680289.192 4  -7543066.100 3
  23005648.716    12394936.654 2   9658387.706 2
  24961379.898     5227846.256 2   4073675.097 1
 91  5 14 20 31  0.0040000  0  6 16 06 18 02 19 11
  25322530.276     5158044.653 2   4019234.717 1
  23165123.621    -7683609.558 3  -5987202.103 2
  25832716.481    27736460.443 2  21612778.237 1
  22025698.226    -9676393.866 4  -7540030.758 3
  23013700.247    12437258.875 2   9691366.036 2
  24970772.992     5277237.996 2   4112162.147 1
 91  5 14 20 31 15.0040000  0  6 16 06 18 02 19 11
  25330756.579     5201278.957 2   4052923.712 1
  23162995.096    -7694778.275 3  -5995904.965 2
  25846470.062    27808708.735 2  21669075.405 1
  22026453.707    -9672423.839 4  -7536937.206 3
  23021769.760    12479639.789 2   9724390.101 2
  24980193.972     5326746.398 2   4150740.106 1
 91  5 14 20 31 30.0040000  0  6 16 06 18 02 19 11
  25338995.778     5244588.984 2   4086671.706 1
  23160872.862    -7705927.413 3  -6004592.560 2
  25860213.147    27880964.330 2  21725378.264 1
  22027226.569    -9668380.059 4  -7533786.185 3
  23029845.869    12522078.785 2   9757459.431 2
  24989637.131     5376370.338 2   4189408.083 1
 91  5 14 20 31 45.0040000  0  6 16 06 18 02 19 11
  25347259.259     5287979.720 2   4120482.560 1
  23158756.927    -7717051.840 3  -6013260.910 2
  25873968.822    27953231.957 2  21781690.521 1
  22028009.926    -9664257.606 4  -7530573.858 3
  23037930.974    12564580.842 2   9790577.905 2
  24999104.878     5426114.613 2   4228169.849 1
 91  5 14 20 32  0.0040000  0  6 16 06 18 02 19 11
  25355523.333     5331451.631 2   4154356.733 1
  23156646.384    -7728150.781 3  -6021909.394 2
  25887717.308    28025511.799 2  21838012.319 1
  22028807.977    -9660055.752 4  -7527299.664 3
  23046031.365    12607146.665 3   9823746.056 2
  25008594.812     5475979.559 2   4267025.663 1
 91  5 14 20 32 15.0040000  0  6 16 06 18 02 19 11
  25363814.996     5375004.895 2   4188294.215 1
  23154536.147    -7739223.625 3  -6030537.546 2
  25901478.078    28097804.191 2  21894343.896 1
  22029622.213    -9655774.170 4  -7523963.341 3
  23054143.151    12649776.861 2   9856964.385 2
  25018101.831     5525965.530 2   4305975.750 1
 91  5 14 20 32 30.0040000  0  6 16 06 18 02 19 11
  25372126.438     5418643.339 2   4222298.164 1
  23152435.804    -7750265.954 3  -6039141.931 2
  25915237.051    28170113.278 2  21950688.408 1
  22030456.229    -9651408.418 4  -7520561.436 3
  23062267.824    12692475.806 2   9890236.268 1
  25027644.526     5576076.513 2   4345023.268 1
 91  5 14 20 32 45.0040000  0  6 16 06 18 02 19 11
  25380448.683     5462373.863 2   4256373.841 1
  23150341.751    -7761270.395 3  -6047716.776 2
  25928997.525    28242446.063 2  22007051.445 1
  22031302.843    -9646951.349 4  -7517088.365 3
  23070407.487    12735250.683 2   9923567.325 2
  25037204.305     5626319.354 2   4384173.532 1
 91  5 14 20 33  0.0040000  0  6 16 06 18 02 19 11
  25388777.811     5506200.528 2   4290524.390 1
  23148253.999    -7772232.494 3  -6056258.634 2
  25942765.494    28314806.770 2  22063436.304 1
  22032170.442    -9642398.680 4  -7513540.807 3
  23078561.240    12778105.805 2   9956960.914 2
  25046788.366     5676698.164 2   4423429.729 1
 91  5 14 20 33 15.0040000  0  6 16 06 18 02 19 11
  25397138.123     5550125.130 2   4324751.237 1
  23146180.031    -7783150.034 3  -6064765.753 2
  25956544.561    28387196.932 2  22119843.993 1
  22033054.235    -9637748.498 4  -7509917.264 3
  23086735.682    12821043.335 2   9990418.724 2
  25056400.312     5727214.789 2   4462793.356 1
 91  5 14 20 33 30.0040000  0  6 16 06 18 02 19 11
  25405515.231     5594146.739 2   4359053.743 1
  23144110.863    -7794023.389 3  -6073238.463 2
  25970323.017    28459615.571 2  22176273.947 1
  22033956.611    -9633001.243 4  -7506218.076 3
  23094916.719    12864062.867 3  10023940.400 2
  25066042.543     5777868.482 2   4502263.746 1
 91  5 14 20 33 45.0040000  0  6 16 06 18 02 19 11
  25413903.420     5638262.855 2   4393429.814 1
  23142047.698    -7804854.845 3  -6081678.537 2
  25984109.274    28532060.432 2  22232724.271 1
  22034877.870    -9628159.240 4  -7502445.062 3
  23103123.242    12907161.975 2  10057524.110 2
  25075706.945     5828656.476 2   4541838.763 1
 91  5 14 20 34  0.0040000  0  6 16 06 18 02 19 11
  25422324.887     5682465.785 2   4427873.564 1
  23139995.613    -7815651.516 3  -6090091.482 2
  25997894.335    28604523.996 2  22289189.174 1
  22035818.017    -9623229.704 4  -7498603.848 3
  23111335.157    12950333.578 2  10091164.299 1
  25085395.943     5879571.139 2   4581512.554 1
 91  5 14 20 34 15.0040000  0  6 16 06 18 02 19 11
  25430736.467     5726752.969 2   4462383.010 1
  23137944.131    -7826415.540 3  -6098479.000 2
  26011694.378    28677003.587 2  22345666.591 1
  22036771.358    -9618215.038 4  -7494696.280 3
  23119563.563    12993575.443 2  10124859.248 2
  25095108.315     5930610.100 2   4621283.146 1
 91  5 14 20 34 30.0040000  0  6 16 06 18 02 19 11
  25439187.014     5771123.116 2   4496957.052 1
  23135905.247    -7837147.838 3  -6106841.797 2
  26025489.028    28749498.038 2  22402156.014 1
  22037739.391    -9613116.657 4  -7490723.494 3
  23127806.654    13036886.500 2  10158608.097 2
  25104844.682     5981772.007 2   4661149.540 1
 91  5 14 20 34 45.0040000  0  6 16 06 18 02 19 11
  25447649.262     5815571.580 2   4531592.174 1
  23133866.660    -7847852.420 3  -6115182.986 2
  26039287.875    28822002.950 2  22458653.109 1
  22038726.611    -9607938.459 4  -7486688.507 3
  23136058.443    13080262.545 2  10192407.592 2
  25114602.922     6033052.596 2   4701108.421 1
 91  5 14 20 35  0.0040000  0  6 16 06 18 02 19 11
  25456127.389     5860094.785 2   4566285.427 1
  23131833.169    -7858532.613 3  -6123505.178 2
  26053089.121    28894514.715 2  22515155.541 1
  22039726.718    -9602683.769 4  -7482593.915 3
  23144327.918    13123700.333 2  10226255.204 2
  25124381.256     6084448.093 2   4741156.849 1
 91  5 14 20 35 15.0040000  0  6 16 06 18 02 19 11
  25464601.023     5904686.539 2   4601032.176 1
  23129803.866    -7869194.163 3  -6131812.826 2
  26066887.968    28967027.301 2  22571659.039 1
  22040739.110    -9597358.538 4  -7478444.365 4
  23152606.982    13167194.012 2  10260146.370 2
  25134178.768     6135952.230 2   4781289.898 1
 91  5 14 20 35 30.0040000  0  6 16 06 18 02 19 11
  25473110.936     5949347.906 2   4635833.140 1
  23127780.574    -7879835.265 3  -6140104.578 2
  26080686.213    29039541.910 2  22628163.869 1
  22041766.500    -9591961.400 4  -7474238.774 3
  23160891.752    13210745.208 2  10294082.340 2
  25144005.370     6187566.252 2   4821508.578 1
 91  5 14 20 35 45.0040000  0  6 16 06 18 02 19 11
  25481616.041     5994081.192 2   4670690.130 1
  23125758.173    -7890453.253 3  -6148378.299 2
  26094482.669    29112060.762 2  22684671.923 1
  22042808.583    -9586489.572 4  -7469974.988 3
  23169191.206    13254356.605 2  10328065.213 2
  25153849.055     6239292.584 2   4861814.812 1
 91  5 14 20 36  0.0040000  0  6 16 06 18 02 19 11
  25490136.747     6038882.415 2   4705600.139 1
  23123740.570    -7901051.410 3  -6156636.574 2
  26108287.510    29184580.305 2  22741180.590 1
  22043861.451    -9580946.570 4  -7465655.741 3
  23177503.251    13298024.761 2  10362092.339 2
  25163711.621     6291127.521 2   4902205.679 1
 91  5 14 20 36 15.0040000  0  5 16 06 02 19 11
  25498691.027     6083755.687 2   4740566.180 1
  23121732.259    -7911625.479 3  -6164876.083 2
  22044930.512    -9575328.225 4  -7461277.792 3
  23185821.586    13341753.860 2  10396166.944 1
  25173596.079     6343074.967 2   4942684.189 1
 91  5 14 20 36 30.0040000  0  5 16 06 02 19 11
  25507234.810     6128707.433 2   4775593.435 1
  23119723.652    -7922168.537 3  -6173091.407 2
  22046016.064    -9569627.781 4  -7456835.861 3
  23194156.718    13385550.729 2  10430294.355 2
  25183507.218     6395141.339 2   4983255.363 1
 91  5 14 20 36 45.0040000  0  5 16 06 02 19 11
  25515813.067     6173751.350 2   4810692.464 1
  23117728.228    -7932666.708 3  -6181271.770 2
  22047118.395    -9563831.680 4  -7452319.388 3
  23202504.143    13429429.132 2  10464485.297 2
  25193437.544     6447340.132 2   5023929.706 1
 91  5 14 20 37  0.0040000  0  5 16 06 02 19 11
  25524396.724     6218888.607 2   4845864.298 1
  23115733.110    -7943118.033 3  -6189415.606 2
  22048239.021    -9557938.114 4  -7447726.980 3
  23210870.152    13473390.975 2  10498741.249 2
  25203400.545     6499672.995 2   5064708.528 1
 91  5 14 20 37 15.0040000  0  5 16 06 02 19 11
  25533006.164     6264120.141 2   4881109.514 1
  23113757.178    -7953521.204 3  -6197521.940 2
  22049383.031    -9551946.031 4  -7443057.796 3
  23219252.347    13517437.426 2  10533063.141 2
  25213380.036     6552140.629 2   5105592.377 1
 91  5 14 20 37 30.0040000  0  5 16 06 02 19 11
  25541640.489     6309445.769 2   4916428.121 1
  23111788.139    -7963875.829 3  -6205590.440 2
  22050540.827    -9545855.128 4  -7438311.616 3
  23227649.837    13561568.775 2  10567451.195 2
  25223389.508     6604743.022 2   5146581.193 1
 91  5 14 20 37 45.0040000  0  5 16 06 02 19 11
  25550265.817     6354857.315 2   4951813.642 1
  23109825.103    -7974190.087 3  -6213627.494 2
  22051718.115    -9539673.658 4  -7433494.859 3
  23236068.302    13605776.852 2  10601899.027 1
  25233425.363     6657471.594 2   5187668.410 1
 91  5 14 20 38  0.0040000  0  5 16 06 02 19 11
  25558928.620     6400353.230 2   4987264.867 1
  23107868.052    -7984464.760 3  -6221633.694 2
  22052909.485    -9533402.654 4  -7428608.339 3
  23244489.777    13650060.581 2  10636405.805 2
  25243483.704     6710325.079 2   5228852.928 1
 91  5 14 20 38 15.0040000  0  5 16 06 02 19 11
  25567605.514     6445924.301 2   5022774.701 1
  23105922.405    -7994708.392 3  -6229615.719 2
  22054118.549    -9527050.816 4  -7423658.832 3
  23252928.929    13694411.562 2  10670964.983 2
  25253563.918     6763294.632 2   5270127.908 1
 91  5 14 20 38 30.0040000  0  5 16 06 02 19 11
  25576296.499     6491561.834 2   5058336.307 1
  23103974.054    -8004929.095 3  -6237579.861 2
  22055339.908    -9520626.598 4  -7418652.924 3
  23261380.384    13738821.410 2  10705570.041 1
  25263662.429     6816371.627 2   5311486.566 1
 91  5 14 20 38 45.0040000  0  5 16 06 02 19 11
  25584982.388     6537266.711 2   5093950.407 1
  23102034.697    -8015125.657 3  -6245525.201 2
  22056577.146    -9514128.793 4  -7413589.676 3
  23269844.123    13783291.064 2  10740221.711 2
  25273785.222     6869556.873 2   5352929.640 1
 91  5 14 20 39  0.0040000  0  5 16 06 02 19 11
  25593699.147     6583037.358 2   5129615.771 1
  23100098.631    -8025299.265 3  -6253452.648 2
  22057829.984    -9507558.644 4  -7408470.057 3
  23278315.357    13827819.512 2  10774919.182 2
  25283926.904     6922848.744 2   5394455.696 1
 91  5 14 20 39 15.0040000  0  5 16 06 02 19 11
  25602413.516     6628866.717 2   5165326.882 1
  23098165.574    -8035456.696 3  -6261367.500 2
  22059089.410    -9500923.179 4  -7403299.544 3
  23286800.980    13872399.908 2  10809657.122 2
  25294079.676     6976239.989 2   5436059.282 1
 91  5 14 20 39 30.0040000  0  5 16 06 02 19 11
  25611157.863     6674758.528 2   5201086.652 1
  23096234.612    -8045593.723 3  -6269266.451 2
  22060367.123    -9494218.257 4  -7398074.906 3
  23295297.098    13917036.239 2  10844438.654 2
  25304264.819     7029734.489 2   5477743.267 1
 91  5 14 20 39 45.0040000  0  5 16 06 02 19 11
  25619895.318     6720713.273 2   5236895.435 1
  23094307.540    -8055709.164 3  -6277148.570 2
  22061654.731    -9487442.988 4  -7392795.460 3
  23303795.921    13961729.584 2  10879264.614 1
  25314459.864     7083332.884 2   5519508.194 1
 91  5 14 20 40  0.0040000  0  5 16 06 02 19 11
  25628652.553     6766731.908 2   5272754.033 1
  23092391.568    -8065801.699 3  -6285012.859 2
  22062958.830    -9480596.365 4  -7387460.411 3
  23312315.423    14006481.467 2  10914136.187 1
  25324684.287     7137036.201 2   5561354.943 1
 91  5 14 20 40 15.0040000  0  5 16 06 02 19 11
  25637418.487     6812811.990 2   5308660.502 1
  23090474.696    -8075873.140 3  -6292860.699 2
  22064272.526    -9473680.428 4  -7382071.350 3
  23320844.513    14051289.543 2  10949051.538 2
  25334921.902     7190842.068 2   5603281.563 1
 91  5 14 20 40 30.0040000  0  5 16 06 02 19 11
  25646205.997     6858956.511 2   5344617.205 1
  23088561.725    -8085920.296 3  -6300689.617 2
  22065605.400    -9466691.936 4  -7376625.751 3
  23329380.802    14096157.049 2  10984013.211 2
  25345186.792     7244753.345 2   5645290.334 1
 91  5 14 20 40 45.0040000  0  5 16 06 02 19 11
  25654995.916     6905168.280 2   5380626.306 1
  23086656.536    -8095939.484 3  -6308496.744 2
  22066947.574    -9459627.497 4  -7371120.981 3
  23337934.183    14141087.575 2  11019023.984 2
  25355462.475     7298773.183 2   5687383.705 1
 91  5 14 20 41  0.0040000  0  5 16 06 02 19 11
  25663804.716     6951444.026 2   5416685.208 1
  23084754.654    -8105933.838 3  -6316284.523 2
  22068305.332    -9452490.338 4  -7365559.535 3
  23346494.754    14186077.992 2  11054081.439 2
  25365758.854     7352898.116 2   5729558.974 1
 91  5 14 20 41 15.0040000  0  5 16 06 02 19 11
  25672614.415     6997783.746 2   5452793.998 1
  23082860.267    -8115902.765 3  -6324052.472 2
  22069677.181    -9445280.184 4  -7359941.208 3
  23355065.228    14231128.384 2  11089185.607 2
  25376079.506     7407128.130 2   5771816.092 1
 91  5 14 20 41 30.0040000  0  5 16 06 02 19 11
  25681453.500     7044188.354 2   5488953.305 1
  23080963.778    -8125845.056 3  -6331799.677 2
  22071065.224    -9437995.845 4  -7354265.087 3
  23363648.885    14276240.231 2  11124337.679 2
  25386419.048     7461464.087 2   5814155.771 1
 91  5 14 20 41 45.0040000  0  5 16 06 02 19 11
  25690291.085     7090656.544 2   5525162.210 1
  23079075.690    -8135761.358 3  -6339526.637 2
  22072466.153    -9430638.322 4  -7348531.931 3
  23372246.328    14321412.636 2  11159536.918 2
  25396778.972     7515904.861 2   5856577.150 1
 91  5 14 20 42  0.0040000  0  5 16 06 02 19 11
  25699153.247     7137184.765 2   5561417.879 1
  23077198.090    -8145654.603 3  -6347235.634 2
  22073878.469    -9423210.755 4  -7342744.198 3
  23380856.973    14366642.322 2  11194780.805 2
  25407159.286     7570447.043 2   5899077.514 1
 91  5 14 20 42 15.0040000  0  5 16 06 02 19 11
  25708016.614     7183774.475 2   5597721.469 1
  23075316.294    -8155522.989 3  -6354925.245 2
  22075303.690    -9415711.360 4  -7336900.492 3
  23389467.905    14411931.201 2  11230070.824 1
  25417556.693     7625092.105 2   5941658.021 1
 91  5 14 20 42 30.0040000  0  5 16 06 02 19 11
  25716879.676     7230425.111 2   5634072.537 1
  23073444.086    -8165366.713 3  -6362595.642 2
  22076745.985    -9408140.475 4  -7331001.081 3
  23398101.932    14457278.797 2  11265406.562 2
  25427977.474     7679839.246 2   5984318.146 1
 91  5 14 20 42 45.0040000  0  5 16 06 02 19 11
  25725785.011     7277138.200 2   5670472.255 1
  23071575.482    -8175183.585 3  -6370245.110 2
  22078200.583    -9400496.118 4  -7325044.420 3
  23406741.648    14502687.421 2  11300789.888 2
  25438414.450     7734690.289 2   6027059.187 1
 91  5 14 20 43  0.0040000  0  5 16 06 02 19 11
  25734687.344     7323917.798 2   5706923.780 1
  23069711.668    -8184969.134 3  -6377870.173 2
  22079668.966    -9392774.197 4  -7319027.321 3
  23415389.165    14548161.222 2  11336223.997 2
  25448870.917     7789649.170 2   6069884.276 1
 91  5 14 20 43 15.0040000  0  5 16 06 02 19 11
  25743596.282     7370762.719 2   5743426.140 1
  23067856.553    -8194724.126 3  -6385471.425 2
  22081153.535    -9384975.632 4  -7312950.498 3
  23424062.159    14593699.650 2  11371708.451 2
  25459355.854     7844714.722 2   6112792.486 1
 91  5 14 20 43 30.0040000  0  5 16 06 02 19 11
  25752498.912     7417673.641 2   5779980.089 1
  23066006.236    -8204447.219 3  -6393047.830 2
  22082652.500    -9377099.288 4  -7306813.065 3
  23432735.152    14639303.673 2  11407244.047 2
  25469856.086     7899887.790 2   6155784.479 1
 91  5 14 20 43 45.0040000  0  5 16 06 02 19 11
  25761456.118     7464651.644 2   5816586.216 1
  23064162.211    -8214137.133 3  -6400598.381 2
  22084163.750    -9369144.053 4  -7300614.160 3
  23441428.240    14684974.508 2  11442831.661 2
  25480370.104     7955169.279 2   6198860.913 1
 91  5 14 20 44  0.0040000  0  5 16 06 02 19 11
  25770412.416     7511698.391 2   5853245.939 1
  23062327.486    -8223791.602 3  -6408121.301 2
  22085696.891    -9361107.788 4  -7294352.122 3
  23450137.810    14730714.282 2  11478473.021 2
  25490910.507     8010560.878 2   6242023.214 1
 91  5 14 20 44 15.0040000  0  5 16 06 02 19 11
  25779394.793     7558810.585 2   5889956.658 1
  23060496.051    -8233413.261 3  -6415618.661 2
  22087238.722    -9352993.451 4  -7288029.236 3
  23458851.279    14776520.115 2  11514165.827 1
  25501472.495     8066059.510 2   6285268.894 1
 91  5 14 20 44 30.0040000  0  5 16 06 02 19 11
  25788365.182     7605994.180 2   5926722.954 1
  23058673.315    -8242995.750 3  -6423085.497 2
  22088799.740    -9344794.711 4  -7281640.588 3
  23467579.433    14822398.479 2  11549915.178 1
  25512050.076     8121671.176 2   6328602.636 1
 91  5 14 20 44 45.0040000  0  5 16 06 02 19 11
  25797357.157     7653243.276 2   5963540.275 1
  23056854.470    -8252544.296 3  -6430525.895 2
  22090375.748    -9336517.102 4  -7275190.487 3
  23476316.888    14868343.816 2  11585716.721 2
  25522656.728     8177390.115 2   6372019.956 1
 91  5 14 20 45  0.0040000  0  5 16 06 02 19 11
  25806354.533     7700560.554 1   6000410.861 1
  23055044.926    -8262056.086 3  -6437937.645 2
  22091966.449    -9328158.002 4  -7268676.880 3
  23485077.115    14914358.907 2  11621572.601 2
  25533280.779     8233218.684 2   6415522.690 1
 91  5 14 20 45 15.0040000  0  5 16 06 02 19 11
  25815374.987     7747944.550 2   6037333.393 1
  23053240.172    -8271531.909 3  -6445321.362 2
  22093572.139    -9319718.275 4  -7262100.446 3
  23493848.747    14960442.810 2  11657482.098 2
  25543924.007     8289155.665 2   6459109.948 1
 91  5 14 20 45 30.0040000  0  5 16 06 02 19 11
  25824391.549     7795389.605 2   6074303.503 1
  23051443.515    -8280977.127 3  -6452681.243 2
  22095191.319    -9311203.465 4  -7255465.514 3
  23502631.467    15006590.054 2  11693440.954 2
  25554590.025     8345195.120 2   6502777.013 1
 91  5 14 20 45 45.0040000  0  5 16 06 02 19 11
  25833448.273     7842895.639 2   6111321.072 1
  23049653.759    -8290391.049 3  -6460016.739 2
  22096826.387    -9302613.219 4  -7248771.791 3
  23511425.278    15052801.235 2  11729449.647 2
  25565270.134     8401337.349 2   6546524.179 1
 91  5 14 20 46  0.0040000  0  5 16 06 02 19 11
  25842484.319     7890464.039 2   6148387.339 1
  23047864.292    -8299771.697 3  -6467326.298 2
  22098475.842    -9293945.667 4  -7242017.831 3
  23520231.085    15099078.257 2  11765509.616 2
  25575975.720     8457583.998 2   6590352.739 1
 91  5 14 20 46 15.0040000  0  5 16 06 02 19 11
  25851536.550     7938094.318 1   6185501.683 1
  23046087.127    -8309119.438 3  -6474610.231 2
  22100140.288    -9285201.614 4  -7235204.265 3
  23529053.374    15145420.597 2  11801620.496 2
  25586697.195     8513934.184 2   6634261.974 1
 91  5 14 20 46 30.0040000  0  5 16 06 02 19 11
  25860631.961     7985785.887 2   6222663.921 1
  23044318.347    -8318434.131 3  -6481868.393 2
  22101816.730    -9276380.993 4  -7228331.034 3
  23537880.768    15191828.282 2  11837782.291 1
  25597442.062     8570387.602 2   6678251.617 1
 91  5 14 20 46 45.0040000  0  5 16 06 02 19 11
  25869718.970     8033538.869 2   6259873.914 1
  23042547.778    -8327715.422 3  -6489100.537 2
  22103509.960    -9267483.359 4  -7221397.787 4
  23546723.439    15238301.674 2  11873995.272 2
  25608204.606     8626944.126 2   6722321.604 1
 91  5 14 20 47  0.0040000  0  5 16 06 02 19 11
  25878812.270     8081347.280 1   6297127.191 1
  23040788.595    -8336968.678 3  -6496310.837 2
  22105218.772    -9258514.601 4  -7214409.127 3
  23555575.114    15284834.996 2  11910254.960 2
  25618983.946     8683597.877 2   6766467.363 1
 91  5 14 20 47 15.0040000  0  5 16 06 02 19 11
  25887912.471     8129221.516 1   6334431.620 1
  23039035.407    -8346183.088 3  -6503490.860 2
  22106941.685    -9249463.914 4  -7207356.618 3
  23564451.673    15331439.132 2  11946569.834 2
  25629785.770     8740359.277 2   6810696.975 1
 91  5 14 20 47 30.0040000  0  5 16 06 02 19 11
  25897052.546     8177159.403 2   6371785.815 1
  23037288.814    -8355359.995 3  -6510641.665 2
  22108678.976    -9240333.112 4  -7200241.688 3
  23573325.222    15378112.372 2  11982938.574 2
  25640609.774     8797226.356 2   6855008.980 1
 91  5 14 20 47 45.0040000  0  5 16 06 02 19 11
  25906193.520     8225158.655 2   6409187.723 1
  23035548.522    -8364501.154 3  -6517764.621 2
  22110432.165    -9231123.878 4  -7193065.646 4
  23582227.268    15424852.865 2  12019359.696 1
  25651449.674     8854196.909 2   6899401.597 1
 91  5 14 20 48  0.0040000  0  5 16 06 02 19 11
  25915331.492     8273213.300 2   6446632.796 1
  23033814.825    -8373612.087 3  -6524864.023 2
  22112196.443    -9221842.075 4  -7185833.047 3
  23591128.406    15471654.978 2  12055828.843 2
  25662309.652     8911264.914 2   6943870.138 1
 91  5 14 20 48 15.0040000  0  5 16 06 02 19 11
  25924497.646     8321324.746 2   6484122.225 1
  23032087.114    -8382691.055 3  -6531938.512 2
  22113976.312    -9212486.006 4  -7178542.574 3
  23600048.425    15518520.439 2  12092347.357 2
  25673183.127     8968431.720 2   6988415.653 1
 91  5 14 20 48 30.0040000  0  5 16 06 02 19 11
  25933652.109     8369489.878 2   6521653.459 1
  23030366.008    -8391740.665 3  -6538990.127 2
  22115772.367    -9203058.484 4  -7171196.436 3
  23608978.643    15565446.532 2  12128913.079 1
  25684083.283     9025694.313 2   7033035.839 1
 91  5 14 20 48 45.0040000  0  5 16 06 02 19 11
  25942822.155     8417709.343 2   6559226.980
  23028649.395    -8400759.927 3  -6546018.097 2
  22117578.317    -9193558.803 4  -7163794.063 3
  23617924.149    15612434.038 2  12165526.688 2
  25694998.420     9083053.111 2   7077730.971 1
 91  5 14 20 49  0.0040000  0  4 16 06 19 11
  25952019.187     8465977.851 2   6596838.788 1
  23026937.886    -8409753.383 3  -6553025.960 2
  23626867.560    15659478.078 2  12202184.353 2
  25705927.657     9140502.951 2   7122497.052 1
 91  5 14 20 49 15.0040000  0  5 16 06 02 19 11
  25961203.333     8514296.086 2   6634489.172 1
  23025230.862    -8418719.876 3  -6560012.821 2
  22121232.192       53638.26114     41814.128 4
  23635835.549    15706579.679 2  12238886.849 1
  25716884.771     9198044.712 2   7167334.766 1
 91  5 14 20 49 30.0040000  0  5 16 06 02 19 11
  25970405.164     8562660.185 2   6672175.592 1
  23023528.646    -8427662.765 3  -6566981.284 2
  22123078.913       63338.116 4     49372.473 3
  23644803.844    15753735.470 2  12275631.578 2
  25727850.279     9255674.479 2   7212241.054 1
 91  5 14 20 49 45.0040000  0  5 16 06 02 19 11
  25979622.282     8611076.873 2   6709902.794 1
  23021833.017    -8436574.752 3  -6573925.664 2
  22124937.326       73109.781 4     56986.785 3
  23653797.015    15800952.714 2  12312424.207 1
  25738835.871     9313398.988 2   7257221.153 1
 91  5 14 20 50  0.0040000  0  5 16 06 02 19 11
  25988852.296     8659546.555 2   6747671.246 1
  23020145.781    -8445454.990 3  -6580845.302 2
  22126810.424       82953.822 4     64657.488 3
  23662791.093    15848232.162 2  12349265.287 1
  25749833.461     9371218.744 2   7302275.513 1
 91  5 14 20 50 15.0040000  0  5 16 06 02 19 11
  25998067.014     8708066.472 2   6785478.997 1
  23018461.853    -8454305.713 3  -6587741.940 2
  22128697.020       92867.867 4     72382.736 3
  23671800.754    15895571.190 2  12386152.817 1
  25760853.832     9429131.060 2   7347401.963 1
 91  5 14 20 50 30.0040000  0  5 16 06 02 19 11
  26007321.606     8756640.577 2   6823328.917 1
  23016783.011    -8463122.530 3  -6594612.156 2
  22130598.308      102856.185 4     80165.869 3
  23680818.215    15942974.108 2  12423090.100 2
  25771896.687     9487139.794 2   7392603.534 1
 91  5 14 20 50 45.0040000  0  5 16 06 02 19 11
  26016580.098     8805269.570 2   6861221.509 1
  23015108.671    -8471904.103 3  -6601454.919 2
  22132512.178      112919.818 4     88007.686 3
  23689853.353    15990442.075 2  12460078.080 1
  25782949.132     9545245.775 2   7437880.866 1
 91  5 14 20 51  0.0040000  0  5 16 06 02 19 11
  26025834.987     8853954.887 2   6899158.072 1
  23013446.922    -8480648.779 3  -6608268.926 2
  22134442.844      123060.199 4     95909.303 3
  23698897.792    16037976.530 2  12497117.875 1
  25794026.164     9603450.176 2   7483234.947 1
 91  5 14 20 51 15.0040000  0  5 16 06 02 19 11
  26035115.667     8902694.345 2   6937136.840 1
  23011790.268    -8489357.936 3  -6615055.250 2
  22136386.397      133275.746 4    103869.495 3
  23707956.025    16085576.053 2  12534208.375 2
  25805122.382     9661751.093 2   7528664.169 1
 91  5 14 20 51 30.0040000  0  6 15 16 06 02 19 11
  26216672.976           0.038 2         0.108 1
  26044402.036     8951491.075 2   6975160.293 1
  23010141.109    -8498027.707 3  -6621810.896 2
  22138345.542      143570.190 4    111891.169 3
  23717030.139    16133244.494 2  12571352.580 2
  25816237.787     9720151.864 2   7574171.235 1
 91  5 14 20 51 45.0040000  0  5 15 16 06 19 11
  26213854.025      -14839.536 2    -11562.984 1
  26053701.597     9000341.927 2   7013225.799 1
  23008497.648    -8506660.978 3  -6628538.086 2
  23726112.357    16180978.738 2  12608548.050 1
  25827365.189     9778649.091 2   7619753.471 1
 91  5 14 20 52  0.0040000  0  6 15 16 06 02 19 11
  26211037.778      -29612.207 2    -23073.975 1
  26062998.166     9049248.420 2   7051334.751 1
  23006860.782    -8515255.781 3  -6635235.299 2
  22142308.198       52311.63714     40780.604 3
  23735207.158    16228780.558 2  12645796.176 2
  25838516.864     9837244.389 2   7665412.121 1
 91  5 14 20 52 15.0050000  0  6 15 16 06 02 19 11
  26208231.419      -44320.487 1    -34534.809 1
  26072324.107     9098211.394 2   7089487.608 1
  23005230.508    -8523814.639 3  -6641904.517 2
  22144308.415       62835.084 4     48980.719 3
  23744316.349    16276650.921 2  12683097.709 2
  25849683.540     9895939.208 2   7711148.297 1
 91  5 14 20 52 30.0050000  0  6 15 16 06 02 19 11
  26205455.945      -58960.164 1    -45942.551 1
  26081639.260     9147226.143 2   7127680.946 1
  23003613.728    -8532334.314 3  -6648543.199 2
  22146325.416       73434.854 4     57240.299 3
  23753433.041    16324585.504 2  12720449.281 2
  25860866.992     9954727.296 2   7756957.222 1
 91  5 14 20 52 45.0050000  0  6 15 16 06 02 19 11
  26202672.364      -73533.782 2    -57298.406 1
  26091001.179     9196293.196 2   7165915.041 1
  23001996.345    -8540817.162 3  -6655153.185 2
  22148358.907       84109.790 4     65558.455 3
  23762568.614    16372585.628 2  12757851.912 1
  25872078.330    10013610.269 2   7802839.976 1
 91  5 14 20 53  0.0050000  0  6 15 16 06 02 19 11
  26199917.874      -88044.760 2    -68605.623 1
  26100322.327     9245408.467 2   7204186.638 1
  23000389.163    -8549266.886 3  -6661737.353 2
  22150402.293       94855.791 4     73931.993 3
  23771715.285    16420647.336 2  12795302.552 2
  25883299.867    10072583.929 2   7848793.463 1
 91  5 14 20 53 15.0050000  0  6 15 16 06 02 19 11
  26197164.884     -102487.794 2    -79860.036 1
  26109699.227     9294576.658 2   7242499.492 1
  22998788.271    -8557678.352 3  -6668291.733 2
  22152461.270      105677.945 4     82364.859 3
  23780873.343    16468775.678 2  12832805.121 1
  25894539.081    10131652.885 2   7894821.220 1
 91  5 14 20 53 30.0050000  0  6 15 16 06 02 19 11
  26194440.067     -116859.721 2    -91058.953 1
  26119045.860     9343800.068 2   7280855.380 1
  22997196.968    -8566048.593 3  -6674813.958 2
  22154538.832      116579.023 4     90859.226 3
  23790050.290    16516973.421 2  12870361.744 1
  25905801.390    10190819.651 2   7940925.146 1
 91  5 14 20 53 45.0050000  0  6 15 16 06 02 19 11
  26191713.750     -131158.074 2   -102200.528 1
  26128441.956     9393080.370 2   7319255.571 1
  22995609.871    -8574375.511 3  -6681302.438 3
  22156626.890      127560.915 4     99416.570 3
  23799235.631    16565242.537 2  12907974.014 1
  25917076.281    10250085.790 2   7987106.552 1
 91  5 14 20 54  0.0050000  0  6 15 16 06 02 19 11
  26189010.223     -145379.379 2   -113281.877 1
  26137825.759     9442420.275 2   7357702.241 1
  22994034.160    -8582655.630 3  -6687754.453 2
  22158731.727      138626.952 4    108039.474 3
  23808429.967    16613586.449 2  12945644.534 1
  25928375.760    10309454.439 2   8033367.816 1
 91  5 14 20 54 15.0050000  0  6 15 16 06 02 19 11
  26186316.589     -159521.708 2   -124301.726 1
  26147220.057     9491820.969 2   7396196.257 1
  22992467.148    -8590887.250 3  -6694168.676 2
  22160857.259      149778.388 4    116728.930 3
  23817649.485    16662006.403 2  12983374.317 2
  25939689.024    10368926.444 2   8079709.619 1
 91  5 14 20 54 30.0050000  0  6 15 16 06 02 19 11
  26183638.243     -173586.964 2   -135261.505 1
  26156639.240     9541279.703 2   7434735.611 1
  22990912.726    -8599072.652 3  -6700546.892 2
  22162992.677      161012.910 4    125483.125 4
  23826877.099    16710500.174 2  13021161.617 1
  25951025.680    10428499.257 2   8126129.937 1
 91  5 14 20 54 45.0050000  0  6 15 16 06 02 19 11
  26180979.388     -187570.841 2   -146157.930 1
  26166060.813     9590800.535 2   7473323.322 1
  22989362.196    -8607207.737 3  -6706885.890 2
  22165146.985      172334.400 4    134305.084 3
  23836120.296    16759071.730 2  13059009.515 1
  25962388.110    10488176.501 2   8172631.694 1
 91  5 14 20 55  0.0050000  0  6 15 16 06 02 19 11
  26178322.322     -201479.579 2   -156995.746 1
  26175491.687     9640376.082 2   7511953.546 1
  22987822.764    -8615298.850 3  -6713190.631 3
  22167317.487      183736.172 4    143189.607 3
  23845376.389    16807714.477 2  13096912.910 1
  25973757.738    10547951.160 2   8219209.312 1
 91  5 14 20 55 15.0050000  0  5 15 06 02 19 11
  26175689.843     -215310.335 2   -167772.761 1
  22986293.523    -8623343.263 3  -6719458.977 2
  22169502.376      195220.743 4    152138.648 4
  23854645.368    16856430.997 2  13134873.779 1
  25985155.252    10607825.635 2   8265864.694 1
 91  5 14 20 55 30.0050000  0  5 15 06 02 19 11
  26173080.451     -229067.437 1   -178492.444 1
  22984770.276    -8631345.567 3  -6725694.514 2
  22171701.653      206783.211 4    161148.377 4
  23863926.049    16905216.496 2  13172888.379 1
  25996565.356    10667794.659 2   8312593.829 1
 91  5 14 20 55 45.0050000  0  5 15 06 02 19 11
  26170478.257     -242749.559 1   -189153.699 1
  22983255.422    -8639304.821 3  -6731896.496 2
  22173919.218      218424.294 4    170219.379 3
  23873222.312    16954071.807 2  13210957.408 1
  26007994.638    10727858.750 2   8359396.977 1
 91  5 14 20 56  0.0050000  0  5 15 06 02 19 11
  26167879.353     -256363.899 1   -199762.118 1
  22981747.165    -8647228.416 3  -6738070.695 2
  22176146.372      230136.289 4    179345.632 4
  23882532.369    17002989.234 2  13249074.834 1
  26019438.316    10788010.077 2   8406268.102 1
 91  5 14 20 56 15.0050000  0  5 15 06 02 19 11
  26165305.637     -269907.906 1   -210315.732 1
  22980249.701    -8655114.146 3  -6744215.403 2
  22178388.525      241921.273 4    188528.750 4
  23891854.712    17051970.726 2  13287242.165 1
  26030906.879    10848250.234 2   8453208.469 1
 91  5 14 20 56 30.0050000  0  5 15 06 02 19 11
  26162745.106     -283379.832 2   -220813.289 1
  22978752.839    -8662960.359 3  -6750329.307 2
  22180645.361      253780.809 4    197769.962 4
  23901196.843    17101018.147 2  13325460.883 1
  26042383.529    10908580.585 2   8500219.062 1
 91  5 14 20 56 45.0050000  0  5 15 06 02 19 11
  26160190.577     -296778.779 2   -231253.888 1
  22977268.270    -8670766.246 3  -6756411.783 2
  22182917.790      265715.491 4    207069.737 3
  23910533.285    17150131.863 2  13363731.250 1
  26053884.174    10969001.250 2   8547300.085 1
 91  5 14 20 57  0.0050000  0  5 15 06 02 19 11
  26157663.323     -310104.371 2   -241637.389 1
  22975788.195    -8678531.717 3  -6762462.774 2
  22185200.409      277725.072 4    216427.867 4
  23919889.202    17199311.714 2  13402053.149 1
  26065395.602    11029511.714 2   8594451.086 1
 91  5 14 20 57 15.0050000  0  5 15 06 02 19 11
  26155135.179     -323349.613 2   -251958.165 1
  22974322.211    -8686250.063 3  -6768477.041 2
  22187502.808      289816.170 4    225849.518 3
  23929266.417    17248564.438 2  13440431.845 1
  26076929.821    11090118.359 2   8641677.041 1
 91  5 14 20 57 30.0050000  0  5 15 06 02 19 11
  26152630.113     -336515.146 2   -262216.910 1
  22972862.221    -8693922.112 3  -6774455.229 2
  22189821.410      301987.545 4    235333.722 3
  23938650.516    17297889.021 2  13478866.507 2
  26088484.116    11150819.655 2   8688976.719 1
 91  5 14 20 57 45.0050000  0  5 15 06 02 19 11
  26150142.131     -349599.600 2   -272412.614 1
  22971413.923    -8701546.543 3  -6780396.322 3
  22192151.092      314240.217 4    244881.278 4
  23948048.715    17347286.479 2  13517357.981 1
  26100051.011    11211616.482 2   8736350.889 1
 91  5 14 20 58  0.0050000  0  5 15 06 02 19 11
  26147671.241     -362601.248 2   -282543.537 1
  22969968.626    -8709121.828 3  -6786299.113 3
  22194496.672      326575.600 4    254493.280 3
  23957466.091    17396758.310 2  13555907.394 2
  26111634.692    11272509.968 2   8783800.303 1
 91  5 14 20 58 15.0050000  0  5 15 06 02 19 11
  26145212.349     -375521.322 2   -292611.065 1
  22968537.411    -8716649.663 3  -6792164.930 2
  22196858.734      338991.764 4    264168.228 4
  23966893.667    17446302.624 2  13594513.292 1
  26123245.657    11333497.876 2   8831323.293 1
 91  5 14 20 58 30.0050000  0  5 15 06 02 19 11
  26142761.239     -388356.991 2   -302612.705 1
  22967112.200    -8724127.297 3  -6797991.637 2
  22199238.490      351491.090 4    273907.979 4
  23976333.834    17495921.893 2  13633177.593 1
  26134867.109    11394582.448 2   8878921.658 1
 91  5 14 20 58 45.0050000  0  5 15 06 02 19 11
  26140353.013     -401104.776 2   -312545.967 1
  22965701.672    -8731551.497 3  -6803776.705 2
  22201634.431      364076.641 4    283714.913 4
  23985793.178    17545619.276 2  13671902.768 1
  26146509.545    11455766.366 2   8926597.410 1
 91  5 14 20 59  0.0050000  0  5 15 06 02 19 11
  26137942.980     -413761.900 2   -322408.545 1
  22964300.446    -8738919.705 3  -6809518.146 2
  22204045.658      376750.865 4    293590.947 4
  23995264.825    17595397.203 2  13710690.691 1
  26158176.272    11517051.682 2   8974352.174 1
 91  5 14 20 59 15.0050000  0  5 15 06 02 19 11
  26135544.937     -426329.141 2   -332201.031 1
  22962910.309    -8746232.730 3  -6815216.579 2
  22206472.783      389512.714 4    303535.261 4
  24004755.056    17645254.569 2  13749540.537 1
  26169854.682    11578436.996 2   9022184.870 1
 91  5 14 20 59 30.0050000  0  5 15 06 02 19 11
  26133163.985     -438808.109 2   -341924.782 1
  22961527.668    -8753492.492 3  -6820873.509 2
  22208917.890      402360.167 4    313546.278 3
  24014254.876    17695189.377 2  13788450.710 1
  26181557.688    11639919.970 2   9070093.653 1
 91  5 14 20 59 45.0050000  0  5 15 06 02 19 11
  26130813.310     -451193.308 2   -351575.415 1
  22960158.209    -8760693.736 3  -6826484.839 2
  22211380.979      415297.951 4    323627.683 3
  24023772.992    17745206.415 2  13827424.971 1
  26193274.175    11701505.136 2   9118082.127 1
 91  5 14 21  0  0.0050000  0  5 15 06 02 19 11
  26128468.341     -463485.328 2   -361153.473 1
  22958795.958    -8767837.091 3  -6832051.064 2
  22213860.568      428325.147 4    333778.767 4
  24033307.887    17795305.142 2  13866462.872 1
  26205013.145    11763191.387 2   9166149.319 1
 91  5 14 21  0 15.0050000  0  5 15 06 02 19 11
  26126147.942     -475684.892 2   -370659.469 1
  22957447.789    -8774923.827 3  -6837573.174 2
  22216356.333      441440.461 4    343998.507 3
  24042855.678    17845484.067 2  13905563.264 2
  26216767.411    11824977.218 2   9214294.086 1
 91  5 14 21  0 30.0050000  0  5 15 06 02 19 11
  26123851.232     -487790.322 2   -380092.123 1
  22956108.014    -8781952.402 3  -6843049.947 2
  22218870.098      454645.164 4    354287.898 3
  24052422.358    17895744.503 2  13944727.151 1
  26228544.755    11886863.458 2   9262517.132 1
 91  5 14 21  0 45.0050000  0  5 15 06 02 19 11
  26121564.119     -499801.334 2   -389451.245 1
  22954781.736    -8788922.507 3  -6848481.176 2
  22221397.945      467939.205 4    364646.909 4
  24061999.526    17946086.746 2  13983954.819 1
  26240341.286    11948849.964 2   9310818.335 1
 91  5 14 21  1  0.0050000  0  5 15 06 02 19 11
  26119291.690     -511721.397 2   -398739.427 1
  22953469.244    -8795837.923 3  -6853869.777 2
  22223943.784      481318.604 4    375072.425 3
  24071598.577    17996506.727 2  14023243.049 1
  26252152.213    12010932.336 2   9359194.201 1
 91  5 14 21  1 15.0050000  0  5 15 06 02 19 11
  26117033.353     -523553.763 2   -407959.384 1
  22952161.848    -8802702.146 3  -6859218.486 2
  22226505.511      494779.757 4    385561.646 4
  24081207.531    18047000.782 2  14062588.981 1
  26263995.518    12073106.608 2   9407641.675 1
 91  5 14 21  1 30.0050000  0  5 15 06 02 19 11
  26114803.800     -535304.008 2   -417115.309 1
  22950862.548    -8809520.715 3  -6864531.630 2
  22229084.321      508316.760 4    396109.975 3
  24090826.065    18097562.919 2  14101987.994 1
  26275834.016    12135366.658 2   9456155.965 1
 91  5 14 21  1 45.0050000  0  5 15 06 02 19 11
  26112582.038     -546980.132 2   -426213.526 1
  22949571.642    -8816302.211 3  -6869815.884 2
  22231671.831      521920.957 4    406710.661 3
  24100456.901    18148184.689 2  14141433.475 1
  26287693.804    12197703.445 2   9504730.097 1
 91  5 14 21  2  0.0050000  0  5 15 06 02 19 11
  26110371.069     -558583.151 2   -435254.635 1
  22948292.131    -8823047.825 3  -6875072.183 2
  22234273.135      535590.891 4    417362.569 4
  24110100.022    18198864.663 2  14180924.276 1
  26299571.888    12260115.267 2   9553362.676 1
 91  5 14 21  2 15.0050000  0  5 15 06 02 19 11
  26108174.488     -570116.558 2   -444241.553 1
  22947012.018    -8829761.210 3  -6880303.368 3
  22236884.926      549322.569 4    428062.593 3
  24119761.440    18249598.893 2  14220457.378 1
  26311473.050    12322597.901 2   9602050.364 1
 91  5 14 21  2 30.0050000  0  5 15 06 02 19 11
  26105992.295     -581578.252 2   -453172.636 1
  22945742.689    -8836440.157 3  -6885507.720 3
  22239510.207      563117.848 4    438812.178 4
  24129421.051    18300389.495 2  14260034.428 2
  26323367.310    12385153.036 2   9650794.706 1
 91  5 14 21  2 45.0050000  0  5 15 06 02 19 11
  26103828.695     -592974.335 2   -462052.532 1
  22944476.371    -8843090.952 3  -6890690.129 2
  22242146.280      576970.216 4    449606.244 4
  24139096.848    18351229.768 2  14299650.155 1
  26335286.463    12447773.897 2   9699590.107 1
 91  5 14 21  3  0.0050000  0  5 15 06 02 19 11
  26101665.993     -604304.922 1   -470881.492 1
  22943216.945    -8849714.263 3  -6895851.129 2
  22244793.147      590878.927 4    460444.219 4
  24148783.447    18402118.934 2  14339303.979 1
  26347210.703    12510459.257 2   9748435.872 1
 91  5 14 21  3 15.0050000  0  5 15 06 02 19 11
  26099518.875     -615565.313 1   -479655.672 1
  22941960.808    -8856305.266 3  -6900986.958 2
  22247451.112      604848.498 4    471329.618 4
  24158479.931    18453061.598 2  14378999.488 1
  26359152.934    12573213.338 2   9797335.158 1
 91  5 14 21  3 30.0050000  0  4 06 02 19 11
  22940712.777    -8862869.081 3  -6906101.599 2
  22250119.259      618873.424 4    482258.145 4
  24168173.718    18504052.655 2  14418732.731 1
  26371103.864    12636030.513 2   9846283.582 1
 91  5 14 21  3 45.0050000  0  4 06 02 19 11
  22939470.435    -8869401.910 3  -6911192.087 2
  22252797.911      632957.414 4    493232.698 3
  24177896.291    18555095.484 2  14458506.266 1
  26383077.279    12698914.100 2   9895283.772 1
 91  5 14 21  4  0.0050000  0  4 06 02 19 11
  22938230.493    -8875905.508 3  -6916259.803 2
  22255491.247      647098.428 4    504251.687 4
  24187610.766    18606188.176 2  14498318.691 1
  26395054.288    12761861.926 2   9944334.000 1
 91  5 14 21  4 15.0050000  0  4 06 02 19 11
  22936998.944    -8882380.057 3  -6921304.885 3
  22258192.672      661295.853 4    515314.628 4
  24197347.123    18657330.323 2  14538169.660 1
  26407039.691    12824873.097 2   9993433.634 1
 91  5 14 21  4 30.0050000  0  5 15 06 02 19 11
  26089009.350      279061.75012    217456.091 1
  22935772.795    -8888822.271 3  -6926324.772 2
  22260905.500      675552.831 4    526423.975 3
  24207089.179    18708525.161 2  14578061.666 1
  26419050.274    12887950.400 2  10042584.710 1
 91  5 14 21  4 45.0050000  0  5 15 06 02 19 11
  26086944.981      268214.117 2    209003.627 1
  22934554.439    -8895232.033 3  -6931319.362 2
  22263629.706      689869.142 4    537579.566 3
  24216838.135    18759772.486 2  14617994.564 1
  26431062.359    12951093.377 2  10091787.016 1
 91  5 14 21  5  0.0050000  0  5 15 06 02 19 11
  26084897.704      257441.947 2    200609.797 1
  22933340.575    -8901605.698 3  -6936285.825 2
  22266365.917      704248.533 4    548784.288 3
  24226601.471    18811075.825 2  14657971.125 1
  26443090.331    13014305.238 2  10141043.032 1
 91  5 14 21  5 15.0050000  0  5 15 06 02 19 11
  26082857.014      246745.534 2    192275.080 1
  22932132.418    -8907942.921 3  -6941223.896 2
  22269113.812      718690.882 4    560038.075 4
  24236374.404    18862435.252 2  14697991.396 1
  26455134.794    13077585.599 2  10190352.397 1
 91  5 14 21  5 30.0050000  0  5 15 06 02 19 11
  26080833.112      236126.023 2    184000.255 1
  22930936.843    -8914243.000 3  -6946133.028 2
  22271875.798      733196.747 4    571341.361 4
  24246162.930    18913851.345 2  14738055.809 1
  26467190.949    13140934.731 2  10239715.353 1
 91  5 14 21  5 45.0050000  0  5 15 06 02 19 11
  26078829.905      225579.934 2    175782.574 1
  22929743.073    -8920509.174 3  -6951015.729 2
  22274646.482      747762.503 4    582691.314 4
  24255956.847    18965320.379 2  14778161.481 2
  26479251.292    13204348.725 2  10289128.839 1
 91  5 14 21  6  0.0050000  0  5 15 06 02 19 11
  26076836.279      215107.235 2    167622.161 1
  22928558.893    -8926741.997 3  -6955872.450 3
  22277429.155      762387.474 4    594087.405 4
  24265758.564    19016842.039 2  14818308.181 1
  26491335.332    13267826.715 2  10338592.203 1
 91  5 14 21  6 15.0050000  0  5 15 06 02 19 11
  26074856.753      204713.555 2    159523.308 1
  22927380.706    -8932935.999 3  -6960698.932 3
  22280224.121      777076.673 4    605533.545 4
  24275574.966    19068421.449 2  14858499.831 1
  26503427.757    13331373.562 2  10388109.219 1
 91  5 14 21  6 30.0050000  0  5 15 06 02 19 11
  26072894.310      194395.386 2    151483.240 1
  22926204.317    -8939094.745 3  -6965497.933 2
  22283032.280      791826.271 4    617026.755 3
  24285397.668    19120054.682 2  14898733.435 1
  26515534.875    13394985.176 2  10437676.717 1
 91  5 14 21  6 45.0050000  0  5 15 06 02 19 11
  26070946.264      184151.789 2    143501.368 1
  22925041.121    -8945219.260 3  -6970270.258 2
  22285847.628      806634.888 4    628565.945 4
  24295238.657    19171740.501 2  14939008.016 1
  26527644.995    13458659.998 2  10487293.468 1
 91  5 14 21  7  0.0050000  0  5 15 06 02 19 11
  26069009.298      173979.245 2    135574.821 1
  22923882.130    -8951313.434 3  -6975018.940 2
  22288678.569      821498.738 4    640148.178 3
  24305083.241    19223474.780 2  14979320.389 1
  26539782.389    13522393.624 2  10536956.013 1
 91  5 14 21  7 15.0050000  0  5 15 06 02 19 11
  26067077.140      163885.720 1    127709.953 1
  22922728.522    -8957369.609 3  -6979738.016 2
  22291518.504      836425.327 4    651779.301 4
  24314935.922    19275265.075 2  15019676.395 1
  26551918.893    13586193.273 2  10586670.036 1
 91  5 14 21  7 30.0050000  0  5 15 06 02 19 11
  26065186.950      153864.431 1    119901.292 1
  22921583.317    -8963394.470 3  -6984432.693 2
  22294367.427      851407.465 4    663453.712 4
  24324802.694    19327104.449 2  15060070.614 1
  26564072.176    13650051.561 2  10636429.752 1
 91  5 14 21  7 45.0050000  0  5 15 06 02 19 11
  26063293.758      143912.564 2    112146.732 1
  22920438.713    -8969391.287 3  -6989105.509 2
  22297230.152      866441.617 4    675168.639 4
  24334676.358    19378989.481 2  15100500.466 1
  26576230.258    13713964.714 2  10686232.200 1
 91  5 14 21  8  0.0050000  0  5 15 06 02 19 11
  26061402.068      134032.716 2    104448.203 1
  22919306.098    -8975357.532 3  -6993754.504 2
  22300100.661      881529.999 4    686925.836 4
  24344553.312    19430922.476 2  15140967.652 1
  26588409.628    13777934.617 2  10736078.872 1
 91  5 14 21  8 15.0050000  0  5 15 06 02 19 11
  26059544.553      124230.314 2     96810.049 1
  22918176.772    -8981287.767 3  -6998375.457 2
  22302984.964      896677.917 4    698729.419 4
  24354446.164    19482908.645 2  15181476.298 1
  26600583.598    13841966.184 2  10785973.586 1
 91  5 14 21  8 30.0050000  0  5 15 06 02 19 11
  26057693.338      114504.738 2     89231.768 1
  22917054.950    -8987182.986 3  -7002969.104 2
  22305877.067      911884.146 4    710578.435 4
  24364348.316    19534946.828 2  15222025.445 1
  26612786.352    13906058.012 2  10835915.273 1
 91  5 14 21  8 45.0050000  0  5 15 06 02 19 11
  26055860.699      104861.377 2     81717.542 1
  22915940.928    -8993037.722 3  -7007531.214 2
  22308782.650      927153.600 4    722476.722 3
  24374263.346    19587042.148 2  15262619.113 1
  26624994.498    13970214.900 2  10885907.657 1
 91  5 14 21  9  0.0050000  0  5 15 06 02 19 11
  26054032.570       95298.553 2     74266.054 1
  22914834.986    -8998853.903 3  -7012063.283 2
  22311699.332      942484.266 4    734422.708 3
  24384193.079    19639192.521 2  15303255.737 2
  26637223.637    14034434.415 2  10935948.814 1
 91  5 14 21  9 15.0050000  0  5 15 06 02 19 11
  26052230.512       85821.152 2     66881.195 1
  22913738.048    -9004626.948 3  -7016561.738 2
  22314629.503      957880.481 4    746419.773 4
  24394122.200    19691402.319 2  15343938.591 1
  26649445.272    14098720.679 2  10986042.019 1
 91  5 14 21  9 30.0050000  0  5 15 06 02 19 11
  26050448.252       76424.372 2     59559.137 1
  22912643.509    -9010361.583 3  -7021030.259 2
  22317572.569      973337.336 4    758464.080 4
  24404071.416    19743666.525 2  15384663.891 1
  26661690.300    14163068.380 2  11036183.052 1
 91  5 14 21  9 45.0050000  0  5 15 06 02 19 11
  26048673.477       67111.486 2     52302.460 1
  22911560.958    -9016054.683 3  -7025466.421 2
  22320526.717      988857.584 4    770557.798 4
  24414030.220    19795988.167 2  15425433.905 1
  26673953.606    14227479.929 2  11086373.886 1
 91  5 14 21 10  0.0050000  0  5 15 06 02 19 11
  26046916.991       57884.752 2     45112.908 1
  22910486.200    -9021704.414 3  -7029868.777 3
  22323490.470     1004442.939 4    782702.243 4
  24423991.721    19848368.874 2  15466249.994 1
  26686221.414    14291956.727 2  11136615.540 1
 91  5 14 21 10 15.0050000  0  5 15 06 02 19 11
  26045177.300       48742.988 2     37989.518 1
  22909420.436    -9027312.067 3  -7034238.355 2
  22326468.603     1020091.751 4    794896.133 4
  24433969.415    19900807.109 2  15507110.872 1
  26698498.218    14356496.971 2  11186906.613 1
 91  5 14 21 10 30.0050000  0  5 15 06 02 19 11
  26043455.889       39688.726 2     30934.318 1
  22908359.472    -9032875.360 3  -7038573.363 3
  22329459.335     1035806.045 4    807141.052 3
  24443959.403    19953304.938 2  15548018.207 1
  26710802.297    14421102.412 2  11237248.537 1
 91  5 14 21 10 45.0050000  0  5 15 06 02 19 11
  26041746.177       30720.501 2     23946.244 1
  22907309.300    -9038395.697 3  -7042874.897 2
  22332462.657     1051584.218 4    819435.739 4
  24453964.075    20005860.650 2  15588970.653 1
  26723100.382    14485771.066 2  11287639.721 1
 91  5 14 21 11  0.0050000  0  5 15 06 02 19 11
  26040056.542       21839.640 2     17026.153 1
  22906266.021    -9043872.031 3  -7047142.150 3
  22335477.671     1067426.823 4    831780.642 4
  24463973.241    20058475.103 2  15629968.846 1
  26735419.755    14550503.386 2  11338080.463 1
 91  5 14 21 11 15.0050000  0  5 15 06 02 19 11
  26038385.501       13046.478 2     10174.422 1
  22905232.934    -9049304.115 3  -7051374.929 3
  22338504.376     1083333.997 4    844175.850 4
  24473997.405    20111148.285 2  15671012.794 1
  26747751.118    14615299.073 2  11388570.594 1
 91  5 14 21 11 30.0050000  0  5 15 06 02 19 11
  26036731.543        4340.453 2      3390.650 1
  22904210.648    -9054692.517 3  -7055573.657 2
  22341543.070     1099305.141 4    856620.910 4
  24484031.454    20163879.586 2  15712102.060 1
  26760098.674    14680157.183 2  11439109.370 1
 91  5 14 21 11 45.0050000  0  4 15 06 02 19
  26035091.083       -4268.217 2     -3317.288 1
  22903196.144    -9060027.452 3  -7059730.726 3
  22344594.057     1115349.536 4    869123.046 4
  24494082.300    20216678.387 2  15753243.906 1
 91  5 14 21 12  0.0050000  0  4 15 06 02 19
  26033469.207      -12787.099 2     -9955.318 1
  22902187.949    -9065316.364 3  -7063851.944 3
  22347659.135     1131459.510 4    881676.278 4
  24504136.444    20269537.001 2  15794432.368 1
 91  5 14 21 12 15.0050000  0  4 15 06 02 19
  26031866.815      -21211.902 2    -16519.955 1
  22901188.741    -9070555.284 3  -7067934.197 3
  22350740.102     1147638.653 4    894283.418 4
  24514208.570    20322459.283 2  15835670.413 1
 91  5 14 21 12 30.0050000  0  4 15 06 02 19
  26030281.210      -29545.018 2    -23013.205 1
  22900201.224    -9075746.537 3  -7071979.307 3
  22353830.667     1163884.446 4    906942.486 4
  24524291.489    20375442.503 2  15876956.003 1
 91  5 14 21 12 45.0050000  0  4 15 06 02 19
  26028713.299      -37782.165 2    -29431.878 1
  22899222.695    -9080886.210 3  -7075984.221 3
  22356935.915     1180200.642 4    919656.407 4
  24534383.997    20428490.582 2  15918292.075 1
 91  5 14 21 13  0.0050000  0  4 15 06 02 19
  26027160.072      -45927.228 2    -35778.867 1
  22898255.569    -9085978.225 3  -7079952.012 3
  22360052.254     1196582.822 4    932421.757 4
  24544488.502    20481599.169 2  15959675.319 1
 91  5 14 21 13 15.0050000  0  4 15 06 02 19
  26025631.730      -53979.257 2    -42053.065 1
  22897296.531    -9091021.948 3  -7083882.167 3
  22363182.989     1213031.544 4    945238.949 4
  24554606.801    20534768.701 2  16001106.044 1
 91  5 14 21 13 30.0050000  0  4 15 06 02 19
  26024111.781      -61932.982 2    -48250.749 1
  22896344.395    -9096012.227 3  -7087770.679 3
  22366329.010     1229551.732 4    958111.840 4
  24564737.385    20588004.095 2  16042588.093 1
 91  5 14 21 13 45.0050000  0  4 15 06 02 19
  26022623.915      -69788.971 2    -54372.199 1
  22895403.339    -9100949.685 3  -7091618.028 3
  22369485.824     1246142.326 4    971039.587 4
  24574886.257    20641304.470 2  16084120.810 1
 91  5 14 21 14  0.0050000  0  4 15 06 02 19
  26021144.136      -77542.302 2    -60413.682 1
  22894475.782    -9105829.574 3  -7095420.520 3
  22372657.628     1262807.834 4    984025.708 4
  24585040.234    20694674.434 2  16125707.699 1
 91  5 14 21 14 15.0050000  0  4 15 06 02 19
  26019693.142      -85194.815 2    -66376.557 1
  22893557.220    -9110653.855 3  -7099179.678 3
  22375842.328     1279546.228 4    997068.623 4
  24595212.786    20748111.900 2  16167347.229 1
 91  5 14 21 14 30.0050000  0  4 15 06 02 19
  26018249.337      -92741.625 2    -72257.134 1
  22892650.951    -9115417.708 3  -7102891.749 3
  22379041.712     1296362.001 4   1010171.832 4
  24605393.740    20801621.249 2  16209042.736 1
 91  5 14 21 14 45.0050000  0  4 15 06 02 19
  26016837.021     -100185.105 2    -78057.189 1
  22891758.469    -9120123.711 3  -7106558.744 3
  22382256.085     1313252.233 4   1023333.058 4
  24615586.980    20855199.529 2  16250791.947 1
 91  5 14 21 15  0.0050000  0  4 15 06 02 19
  26015439.983     -107521.107 2    -83773.457 1
  22890874.676    -9124767.687 3  -7110177.411 3
  22385485.449     1330220.905 4   1036555.419 4
  24625800.609    20908850.864 2  16292598.109 1
 91  5 14 21 15 15.0050000  0  4 15 06 02 19
  26014060.944     -114741.571 2    -89399.682 1
  22890002.881    -9129341.923 3  -7113741.731 3
  22388731.599     1347275.343 4   1049844.615 4
  24636021.734    20962582.711 2  16334467.012 1
 91  5 14 21 15 30.0050000  0  4 15 06 02 19
  26012710.376     -121847.018 2    -94936.339 1
  22889144.575    -9133847.063 3  -7117252.204 3
  22391991.544     1364414.757 4   1063199.998 4
  24646265.946    21016394.167 2  16376397.940 1
 91  5 14 21 15 45.0050000  0  4 15 06 02 19
  26011384.090     -128833.427 2   -100380.123 1
  22888300.656    -9138279.171 3  -7120705.781 3
  22395268.879     1381642.715 4   1076624.390 4
  24656519.449    21070289.041 2  16418393.843 1
 91  5 14 21 16  0.0060000  0  4 15 06 02 19
  26010074.297     -135697.363 2   -105728.578 1
  22887475.630    -9142634.708 3  -7124099.687 3
  22398567.793     1398963.831 4   1090121.374 4
  24666786.140    21124274.366 2  16460460.273 1
 91  5 14 21 16 15.0060000  0  4 15 06 02 19
  26008792.989     -142441.347 2   -110983.503
  22886659.292    -9146916.957 3  -7127436.487 3
  22401877.803     1416371.655 4   1103685.923 4
  24677084.909    21178338.820 2  16502588.345 1
 91  5 14 21 16 30.0060000  0  4 15 06 02 19
  26007531.757     -149066.687 2   -116145.995 1
  22885859.452    -9151127.067 3  -7130717.070 3
  22405207.898     1433866.384 4   1117318.191 4
  24687384.883    21232485.031 2  16544780.123 1
 91  5 14 21 16 45.0060000  0  5 15 06 02 19 13
  26006287.321     -155578.772 2   -121220.242 1
  22885068.294    -9155270.399 3  -7133945.622 3
  22408550.583     1451442.247 4   1131013.684 4
  24697703.738    21286707.196 2  16587031.068 1
  25542896.623           0.896 2         0.010 1
 91  5 14 21 17  0.0060000  0  5 15 06 02 19 13
  26005080.961     -161985.706 2   -126212.590 1
  22884290.337    -9159355.103 3  -7137128.491 3
  22411910.954     1469090.770 4   1144765.788 4
  24708033.987    21340996.943 2  16629334.704 1
  25534711.685      -42987.406 2    -33497.293 1
 91  5 14 21 17 15.0060000  0  5 15 06 02 19 13
  26003871.896     -168291.792 2   -131126.348 1
  22883523.470    -9163385.701 3  -7140269.202 3
  22415281.821     1486807.249 4   1158570.847 4
  24718376.522    21395349.623 2  16671687.347 1
  25526538.448      -85937.910 2    -66965.449 1
 91  5 14 21 17 30.0060000  0  5 15 06 02 19 13
  26002692.209     -174504.860 1   -135967.657 1
  22882764.691    -9167370.412 3  -7143374.149 3
  22418665.584     1504583.241 4   1172422.290 4
  24728724.457    21449756.840 2  16714082.505 1
  25518374.800     -128858.378 2   -100410.198 1
 91  5 14 21 17 45.0060000  0  5 15 06 02 19 13
  26001523.019     -180628.631 1   -140739.365 1
  22882016.111    -9171312.815 3  -7146446.127 3
  22422056.536     1522414.965 4   1186317.148 4
  24739091.579    21504214.804 2  16756517.201 1
  25510204.556     -171752.416 2   -133833.927 1
 91  5 14 21 18  0.0060000  0  4 06 02 19 13
  22881272.627    -9175213.465 3  -7149485.582 3
  22425462.173     1540301.467 4   1200254.696 4
  24749467.697    21558722.373 2  16798990.541 1
  25502055.898     -214620.343 2   -167237.294 1
 91  5 14 21 18 15.0060000  0  5 15 06 02 19 13
  25999258.085      281904.81012    219676.165 1
  22880540.530    -9179072.294 3  -7152492.442 3
  22428874.415     1558242.604 4   1214234.819 4
  24759850.411    21613279.609 2  16841502.576 1
  25493895.548     -257461.975 2   -200620.199 1
 91  5 14 21 18 30.0060000  0  5 15 06 02 19 13
  25998136.568      276050.751 2    215114.736
  22879815.037    -9182886.645 3  -7155464.644 3
  22432300.443     1576240.757 4   1228259.363 4
  24770236.719    21667888.906 2  16884055.188 1
  25485751.086     -300274.322 2   -233980.712 1
 91  5 14 21 18 45.0060000  0  5 15 06 02 19 13
  25997028.235      270247.845 2    210593.052 1
  22879088.340    -9186697.261 3  -7158433.935 3
  22435730.963     1594254.786 4   1242296.282 3
  24780638.620    21722509.139 2  16926616.306 1
  25477600.325     -343098.036 2   -267350.036 1
 91  5 14 21 19  0.0060000  0  5 15 06 02 19 13
  25995938.486      264504.698 2    206117.633
  22878364.636    -9190495.708 3  -7161393.743 3
  22439162.994     1612292.964 4   1256352.020 4
  24791023.733    21777148.651 2  16969192.514 1
  25469452.565     -385924.196 2   -300720.961 1
 91  5 14 21 19 15.0060000  0  5 15 06 02 19 13
  25994854.741      258854.236 2    201714.728 1
  22877651.733    -9194249.254 3  -7164318.568 2
  22442604.307     1630387.757 4   1270451.869 4
  24801439.122    21831840.005 2  17011809.049 1
  25461312.597     -428720.065 2   -334068.155 1
 91  5 14 21 19 30.0060000  0  5 15 06 02 19 13
  25993803.662      253301.702 2    197388.178 1
  22876948.115    -9197952.767 3  -7167204.395 3
  22446058.814     1648544.073 4   1284599.657 4
  24811862.303    21886587.766 2  17054469.572 1
  25453173.833     -471480.579 2   -367387.871 1
 91  5 14 21 19 45.0060000  0  5 15 06 02 19 13
  25992763.384      247851.754 2    193141.645 1
  22876255.001    -9201601.667 3  -7170047.675 3
  22449525.919     1666766.125 4   1298798.672 4
  24822286.984    21941396.376 2  17097177.490 2
  25445042.860     -514200.946 2   -400676.685 1
 91  5 14 21 20  0.0060000  0  5 15 06 02 19 13
  25991747.686      242504.961 2    188975.401 1
  22875567.270    -9205195.479 3  -7172848.034 3
  22453008.607     1685054.162 4   1313049.112 4
  24832729.963    21996266.054 2  17139932.979 1
  25436924.783     -556880.345 2   -433933.178 1
 91  5 14 21 20 15.0060000  0  5 15 06 02 19 13
  25990738.889      237254.477 1    184884.181 1
  22874891.842    -9208741.172 3  -7175610.882 3
  22456498.494     1703400.964 4   1327345.326 4
  24843180.121    22051189.700 2  17182730.535 1
  25428803.103     -599525.523 2   -467163.011 1
 91  5 14 21 20 30.0060000  0  5 15 06 02 19 13
  25989757.366      232100.739 1    180868.356 1
  22874227.800    -9212238.414 3  -7178335.986 3
  22460001.564     1721806.468 4   1341687.294 4
  24853637.784    22106167.324 2  17225570.179 1
  25420697.913     -642135.849 2   -500365.772 1
 91  5 14 21 20 45.0060000  0  5 15 06 02 19 13
  25988799.227      227040.420 1    176925.297 1
  22873571.855    -9215690.704 3  -7181026.058 3
  22463514.834     1740266.965 4   1356072.116 4
  24864114.031    22161195.347 2  17268449.064 1
  25412597.225     -684714.411 2   -533543.754 1
 91  5 14 21 21  0.0060000  0  5 15 06 02 19 13
  25987851.584      222069.946 1    173052.257 1
  22872921.904    -9219101.355 3  -7183683.685 3
  22467036.192     1758778.818 4   1370496.944 4
  24874593.576    22216269.880 2  17311364.202 1
  25404501.930     -727264.870 2   -566700.162 1
 91  5 14 21 21 15.0060000  0  5 15 06 02 19 13
  25986923.425      217189.999 2    169249.782 1
  22872278.550    -9222470.163 3  -7186308.711 3
  22470570.751     1777341.932 4   1384961.721 4
  24885083.015    22271390.862 2  17354315.515 1
  25396410.229     -769786.526 2   -599833.711 1
 91  5 14 21 21 30.0060000  0  5 15 06 02 19 13
  25986030.043      212406.585 2    165522.520 1
  22871649.583    -9225791.362 3  -7188896.631 3
  22474110.998     1795961.884 4   1399470.794 4
  24895582.951    22326563.931 2  17397307.449 1
  25388317.935     -812273.769 2   -632940.484 1
 91  5 14 21 21 45.0060000  0  5 15 06 02 19 13
  25985138.163      207765.828 2    161906.437 1
  22871035.911    -9229018.693 3  -7191411.408 3
  22477675.825     1814684.608 4   1414059.938 4
  24906099.665    22381835.037 2  17440375.768 1
  25380256.213     -854679.892 2   -665984.020 1
 91  5 14 21 22  0.0060000  0  5 15 06 02 19 13
  25984273.862      203214.135 2    158359.726 1
  22870428.233    -9232205.880 3  -7193894.909 3
  22481246.654     1833455.950 4   1428686.970 4
  24916624.179    22437150.100 2  17483478.310 1
  25372190.897     -897058.695 2   -699006.338 1
 91  5 14 21 22 15.0060000  0  5 15 06 02 19 13
  25983425.747      198753.923 2    154884.316 1
  22869826.550    -9235350.758 3  -7196345.448 3
  22484830.676     1852278.014 4   1443353.527 3
  24927159.783    22492511.213 2  17526616.760 1
  25364127.082     -939407.662 2   -732005.327 1
 91  5 14 21 22 30.0060000  0  5 15 06 02 19 13
  25982595.919      194380.675 2    151476.696 1
  22869239.254    -9238457.619 3  -7198766.353 3
  22488419.191     1871146.235 4   1458056.052 4
  24937708.588    22547913.646 2  17569787.411 1
  25356073.457     -981730.750 2   -764984.162 1
 91  5 14 21 22 45.0060000  0  5 15 06 02 19 13
  25981777.792      190096.401 2    148138.398 1
  22868657.656    -9241524.811 3  -7201156.354 3
  22492018.796     1890062.016 4   1472795.624 4
  24948255.578    22603358.996 2  17612991.467 1
  25348026.726    -1024025.984 2   -797941.314 1
 91  5 14 21 23  0.0060000  0  5 15 06 02 19 13
  25980972.848      185901.589 2    144869.817 1
  22868077.261    -9244551.763 3  -7203514.996 3
  22495627.405     1909025.669 4   1487572.513 4
  24958813.972    22658847.473 2  17656229.153 1
  25339982.699    -1066292.881 2   -830876.480 1
 91  5 14 21 23 15.0060000  0  5 15 06 02 19 13
  25980191.288      181801.216 2    141674.836 1
  22867507.651    -9247533.572 3  -7205838.460 3
  22499247.391     1928041.572 4   1502390.114 4
  24969380.759    22714383.693 2  17699504.044 1
  25331947.955    -1108526.452 2   -863785.983 1
 91  5 14 21 23 30.0060000  0  5 15 06 02 19 13
  25979434.611      177793.062 2    138551.696 1
  22866950.937    -9250472.809 3  -7208128.755 3
  22502873.084     1947106.963 4   1517246.268 4
  24979952.040    22769964.789 2  17742813.882 1
  25323915.315    -1150728.933 2   -896671.273 1
 91  5 14 21 23 45.0060000  0  5 15 06 02 19 13
  25978689.025      173878.475 2    135501.441 1
  22866401.116    -9253368.013 3  -7210384.737 3
  22506511.969     1966223.078 4   1532141.961 4
  24990543.406    22825592.026 2  17786159.714 1
  25315891.670    -1192898.757 2   -929530.766 1
 91  5 14 21 24  0.0060000  0  5 15 06 02 19 13
  25977966.525      170057.152 2    132523.817 1
  22865857.297    -9256219.567 3  -7212606.706 3
  22510158.943     1985389.206 4   1547076.622 4
  25001133.873    22881264.746 2  17829540.981 1
  25307881.819    -1235036.201 2   -962364.953 1
 91  5 14 21 24 15.0060000  0  5 15 06 02 19 13
  25977252.418      166331.171 2    129620.576 1
  22865324.865    -9259025.602 3  -7214793.200 3
  22513813.411     2004606.943 4   1562051.487 4
  25011739.933    22936984.513 2  17872958.871 1
  25299858.471    -1277139.037 2   -995172.602 1
 91  5 14 21 24 30.0060000  0  5 15 06 02 19 13
  25976558.100      162698.927 2    126790.282 1
  22864800.529    -9261787.956 3  -7216945.661 3
  22517480.470     2023874.071 4   1577064.846 4
  25022351.087    22992749.037 2  17916411.639 1
  25291855.513    -1319209.098 2  -1027954.324 1
 91  5 14 21 24 45.0060000  0  5 15 06 02 19 13
  25975886.572      159165.351 2    124036.896 1
  22864280.085    -9264501.336 3  -7219059.962 3
  22521159.822     2043195.706 4   1592120.681 4
  25032981.428    23048563.511 2  17959903.367 1
  25283851.351    -1361240.878 2  -1060706.112 1
 91  5 14 21 25  0.0060000  0  5 15 06 02 19 13
  25975236.316      155734.695 2    121363.730 1
  22863775.835    -9267161.708 3  -7221132.959 3
  22524846.076     2062575.646 4   1607221.941 4
  25043606.674    23104431.745 2  18003436.935 1
  25275864.587    -1403230.054 2  -1093424.801 1
 91  5 14 21 25 15.0060000  0  5 15 06 02 19 13
  25974602.559      152407.269 2    118771.001 1
  22863282.980    -9269768.910 3  -7223164.511 2
  22528545.810     2082013.595 4   1622368.410 4
  25054243.611    23160353.465 2  18047012.234 1
  25267886.208    -1445176.475 2  -1126110.136 1
 91  5 14 21 25 30.0060000  0  5 15 06 02 19 13
  25973993.380      149186.703 2    116261.515 1
  22862796.119    -9272319.530 3  -7225151.978 3
  22532256.345     2101513.026 4   1637562.782 4
  25064897.335    23216331.995 2  18090631.745 1
  25259909.932    -1487076.496 2  -1158759.286 1
 91  5 14 21 25 45.0060000  0  5 15 06 02 19 13
  25973394.393      146076.215 2    113837.819 1
  22862318.550    -9274810.448 3  -7227092.930 3
  22535978.268     2121076.557 4   1652807.107 3
  25075563.947    23272370.045 2  18134297.685 1
  25251947.144    -1528926.959 2  -1191369.896 1
 91  5 14 21 26  0.0060000  0  5 15 06 02 19 13
  25972826.589      143071.020 2    111496.175 1
  22861856.870    -9277246.367 3  -7228991.031 3
  22539711.585     2140699.117 4   1668097.431 4
  25086233.263    23328462.776 2  18178006.215 1
  25243984.950    -1570732.191 2  -1223945.206 1
 91  5 14 21 26 15.0060000  0  5 15 06 02 19 13
  25972273.173      140174.601 2    109239.254 1
  22861405.380    -9279623.880 3  -7230843.618 2
  22543458.391     2160383.840 4   1683436.184 3
  25096927.454    23384613.132 2  18221759.618 1
  25236043.749    -1612488.732 2  -1256482.626 1
 91  5 14 21 26 30.0060000  0  5 15 06 02 19 13
  25971740.139      137386.054 2    107066.501 1
  22860960.783    -9281944.021 3  -7232651.497 3
  22547215.990     2180129.480 4   1698822.411 4
  25107619.255    23440819.738 2  18265556.904 1
  25228103.149    -1654197.034 2  -1288982.838 1
 91  5 14 21 26 45.0060000  0  5 15 06 02 19 13
  25971233.786      134707.831 2    104979.569 1
  22860532.983    -9284204.535 3  -7234412.926 3
  22550984.382     2199937.945 4   1714257.586 4
  25118328.445    23497084.789 2  18309399.713 1
  25220179.930    -1695854.884 2  -1321443.414 1
 91  5 14 21 27  0.0060000  0  5 15 06 02 19 13
  25970745.424      132140.874 2    102979.394 1
  22860115.975    -9286404.399 3  -7236127.081 3
  22554766.559     2219809.989 4   1729742.311 3
  25129046.325    23553408.921 2  18353288.593 1
  25212263.316    -1737461.059 2  -1353863.589 1
 91  5 14 21 27 15.0060000  0  5 15 06 02 19 13
  25970281.649      129686.404 2    101066.903 1
  22859706.156    -9288542.695 3  -7237793.265 3
  22558561.336     2239746.404 4   1745277.189 4
  25139773.794    23609792.818 2  18397223.940 1
  25204349.093    -1779014.364 2  -1386242.592 1
 91  5 14 21 27 30.0060000  0  5 15 06 02 19 13
  25969831.059      127347.567 2     99244.516 1
  22859315.228    -9290616.221 3  -7239408.980 3
  22562365.702     2259749.984 4   1760864.400 4
  25150519.856    23666239.364 2  18441208.192 1
  25196457.659    -1820511.682 2  -1418578.000 1
 91  5 14 21 27 45.0060000  0  5 15 06 02 19 13
  25969414.347      125123.752 2     97511.825 1
  22858930.590    -9292625.617 3  -7240974.722 3
  22566187.456     2279819.882 4   1776503.293 4
  25161268.615    23722747.715 2  18485240.565 1
  25188571.915    -1861953.660 2  -1450870.296 1
 91  5 14 21 28  0.0060000  0  5 15 06 02 19 13
  25969009.031      123011.942 2     95866.270 1
  22858559.450    -9294573.940 3  -7242492.884 3
  22570019.105     2299952.660 4   1792191.186 4
  25172035.661    23779314.488 2  18529318.468 1
  25180694.869    -1903342.934 2  -1483121.529 1
 91  5 14 21 28 15.0060000  0  5 15 06 02 19 13
  25968627.090      121011.951 2     94307.898 1
  22858202.096    -9296461.342 3  -7243963.565 3
  22573859.139     2320147.844 4   1807927.706 4
  25182811.406    23835939.122 2  18573441.486 1
  25172829.515    -1944679.539 2  -1515332.010 1
 91  5 14 21 28 30.0060000  0  5 15 06 02 19 13
  25968260.452      119121.189 2     92834.658 1
  22857851.338    -9298290.602 3  -7245388.944 3
  22577716.274     2340402.582 4   1823710.627 4
  25193592.543    23892618.681 2  18617607.287 1
  25164966.255    -1985965.777 2  -1547503.050 1
 91  5 14 21 28 45.0060000  0  5 15 06 02 19 13
  25967932.475      117341.084 2     91447.611 2
  22857512.873    -9300060.330 3  -7246767.936 3
  22581580.895     2360717.771 4   1839540.660 3
  25204389.560    23949354.134 2  18661816.634 1
  25157125.183    -2027200.396 2  -1579633.711 1
 91  5 14 21 29  0.0060000  0  5 15 06 02 19 13
  25967615.596      115671.858 2     90146.967 1
  22857190.899    -9301770.404 3  -7248100.439 3
  22585456.318     2381093.327 4   1855417.726 4
  25215195.581    24006145.581 2  18706069.620 1
  25149290.410    -2068383.031 2  -1611723.913 1
 91  5 14 21 29 15.0060000  0  5 15 06 02 19 13
  25967316.098      114115.599 2     88934.320 1
  22856874.911    -9303418.966 3  -7249385.022 3
  22589346.722     2401530.809 4   1871343.048 4
  25226011.793    24062994.503 2  18750367.389 1
  25141459.232    -2109511.637 2  -1643772.012 1
 91  5 14 21 29 30.0060000  0  5 15 06 02 19 13
  25967048.988      112672.597 2     87809.973 1
  22856576.024    -9305005.404 3  -7250621.195 3
  22593248.818     2422030.400 4   1887316.769 4
  25236849.294    24119901.106 2  18794710.126 1
  25133648.436    -2150585.693 2  -1675777.547 1
 91  5 14 21 29 45.0060000  0  5 15 06 02 19 13
  25966792.967      111340.639 2     86772.114 1
  22856283.427    -9306532.212 3  -7251810.902 3
  22597159.010     2442589.600 4   1903336.934 4
  25247680.793    24176862.709 2  18839095.669 1
  25125834.648    -2191607.076 2  -1707742.097 1
 91  5 14 21 30  0.0060000  0  5 15 06 02 19 13
  25966553.733      110125.928 2     85825.622 1
  22856006.117    -9307993.176 3  -7252949.309 3
  22601086.592     2463213.986 4   1919407.891 4
  25258531.487    24233885.038 2  18883528.591 1
  25118047.837    -2232569.910 2  -1739661.006 1
 91  5 14 21 30 15.0060000  0  5 15 06 02 19 13
  25966348.370      109024.948 2     84967.825 1
  22855739.600    -9309392.208 3  -7254039.456 3
  22605021.668     2483899.747 4   1935526.681 4
  25269398.959    24290964.149 2  18928005.733 1
  25110258.932    -2273477.459 2  -1771536.795 1
 91  5 14 21 30 30.0060000  0  5 15 06 02 19 13
  25966160.702      108041.850 2     84201.835 1
  22855487.776    -9310724.715 3  -7255077.752 3
  22608969.640     2504650.962 4   1951696.465 4
  25280266.440    24348104.240 2  18972530.392 1
  25102484.110    -2314325.206 2  -1803366.046 1
 91  5 14 21 30 45.0060000  0  5 15 06 02 19 13
  25965989.821      107176.093 2     83527.215 1
  22855244.345    -9311991.358 3  -7256064.745 3
  22612932.890     2525466.808 4   1967916.612 4
  25291153.395    24405304.381 2  19017101.811 1
  25094724.286    -2355113.775 2  -1835149.588 1
 91  5 14 21 31  0.0060000  0  5 15 06 02 19 13
  25965847.715      106425.393 2     82942.342 1
  22855018.304    -9313194.641 3  -7257002.353 3
  22616905.144     2546344.451 4   1984184.907 3
  25302046.056    24462561.815 2  19061717.908 1
  25086974.653    -2395845.222 2  -1866888.264 1
 91  5 14 21 31 15.0060000  0  5 15 06 02 19 13
  25965731.095      105791.625 2     82448.517 1
  22854801.546    -9314332.846 3  -7257889.255 3
  22620889.683     2567285.338 4   2000502.490 3
  25312959.702    24519877.905 2  19106379.696 1
  25079229.208    -2436517.833 2  -1898581.019 1
 91  5 14 21 31 30.0060000  0  5 15 06 02 19 13
  25965633.068      105278.596 2     82048.815 1
  22854594.394    -9315402.058 3  -7258722.390 3
  22624889.814     2588293.026 4   2016872.123 4
  25323880.240    24577256.216 2  19151089.927 1
  25071499.966    -2477127.515 2  -1930224.719 1
 91  5 14 21 31 45.0060000  0  5 15 06 02 19 13
  25965563.512      104883.118 2     81740.695 1
  22854405.225    -9316405.701 3  -7259504.442 3
  22628898.635     2609363.822 4   2033290.926 3
  25334809.477    24634693.090 2  19195845.863 1
  25063788.697    -2517677.309 2  -1961821.828 1
 91  5 14 21 32  0.0060000  0  5 15 06 02 19 13
  25965507.453      104609.442 2     81527.496 1
  22854228.044    -9317339.237 3  -7260231.875 3
  22632918.555     2630501.928 4   2049762.188 3
  25345745.607    24692192.715 2  19240650.654 1
  25056082.236    -2558162.841 2  -1993368.849 1
 91  5 14 21 32 15.0060000  0  5 15 06 02 19 13
  25965476.278      104454.189 2     81406.571 1
  22854062.861    -9318206.470 3  -7260907.613 3
  22636955.261     2651703.150 4   2066282.619 3
  25356705.417    24749751.087 2  19285501.249 1
  25048391.061    -2598587.602 2  -2024868.441 1
 91  5 14 21 32 30.0060000  0  5 15 06 02 19 13
  25965475.380      104419.445 2     81379.523 1
  22853910.869    -9319005.266 3  -7261530.041 3
  22641000.963     2672969.449 4   2082853.758 4
  25367669.729    24807369.854 2  19330398.891 1
  25040713.375    -2638949.202 2  -2056318.925 1
 91  5 14 21 32 45.0060000  0  5 15 06 02 19 13
  25965485.570      104511.138 2     81451.042 1
  22853775.360    -9319729.599 3  -7262094.442 3
  22645060.451     2694306.456 4   2099479.999 3
  25378641.231    24865054.804 2  19375348.105 1
  25033044.982    -2679241.533 2  -2087715.360 1
 91  5 14 21 33  0.0060000  0  5 15 06 02 19 13
  25965522.443      104728.335 2     81620.373 1
  22853649.448    -9320380.513 3  -7262601.639 3
  22649133.733     2715713.027 4   2116160.453 3
  25389631.622    24922804.599 2  19420347.896 1
  25025386.788    -2719465.414 2  -2119058.617 1
 91  5 14 21 33 15.0060000  0  5 15 06 02 19 13
  25965595.891      105068.207 2     81885.285 1
  22853537.025    -9320960.601 3  -7263053.643 3
  22653221.098     2737186.314 4   2132892.887 4
  25400636.707    24980616.412 2  19465395.923 1
  25017747.772    -2759623.219 2  -2150350.606 1
 91  5 14 21 33 30.0060000  0  5 15 06 02 19 13
  25965680.734      105524.726 2     82241.049 1
  22853440.795    -9321476.095 3  -7263455.312 3
  22657316.865     2758719.636 4   2149672.100 4
  25411647.183    25038483.638 2  19510487.187 1
  25010112.359    -2799721.234 2  -2181595.678 1
 91  5 14 21 33 45.0060000  0  5 15 06 02 19 13
  25965790.461      106100.978 2     82690.146 1
  22853354.155    -9321924.115 3  -7263804.403 3
  22661429.418     2780315.688 4   2166500.197 3
  25422674.150    25096408.903 2  19555623.661 1
  25002496.430    -2839756.482 2  -2212791.845 1
 91  5 14 21 34  0.0060000  0  5 15 06 02 19 13
  25965928.963      106796.032 2     83231.762 1
  22853283.098    -9322305.697 3  -7264101.725 3
  22665550.366     2801973.216 4   2183376.198 4
  25433707.408    25154390.893 2  19600804.319 1
  24994895.194    -2879729.543 2  -2243939.531 1
 91  5 14 21 34 15.0060000  0  5 15 06 02 19 13
  25966083.057      107610.742 2     83866.664 1
  22853221.943    -9322619.892 3  -7264346.543 3
  22669681.504     2823692.802 4   2200300.554 4
  25444745.168    25212430.251 2  19646029.686 1
  24987297.552    -2919639.286 2  -2275037.849 1
 91  5 14 21 34 30.0060000  0  5 15 06 02 19 13
  25966252.734      108544.672 2     84594.443 1
  22853174.880    -9322867.219 3  -7264539.254 3
  22673827.039     2845473.563 4   2217272.578 4
  25455803.014    25270526.230 2  19691299.154 1
  24979713.408    -2959486.411 2  -2306087.444 1
 91  5 14 21 34 45.0060000  0  5 15 06 02 19 13
  25966460.191      109597.222 2     85414.625 1
  22853138.898    -9323048.170 3  -7264680.253 3
  22677983.358     2867314.764 4   2234291.703 3
  25466868.057    25328677.934 2  19736612.134 1
  24972143.643    -2999271.224 2  -2337088.392 1
 91  5 14 21 35  0.0060000  0  5 15 06 02 19 13
  25966682.341      110766.906 2     86326.212 1
  22853117.312    -9323164.285 3  -7264770.708 3
  22682150.775     2889214.686 4   2251356.583 4
  25477952.278    25386883.488 2  19781966.954 1
  24964582.578    -3038994.765 2  -2368041.669 1
 91  5 14 21 35 15.0060000  0  5 15 06 02 19 13
  25966919.472      112054.943 2     87329.939 1
  22853109.224    -9323214.309 3  -7264809.670 3
  22686329.282     2911174.223 4   2268467.912 4
  25489032.006    25445143.807 2  19827364.491 1
  24957038.002    -3078655.827 2  -2398946.261 1
 91  5 14 21 35 30.0060000  0  5 15 06 02 19 13
  25967195.587      113459.734 2     88424.576 1
  22853112.522    -9323200.112 3  -7264798.578 3
  22690519.778     2933191.082 4   2285623.914 3
  25500129.725    25503456.845 2  19872803.131 1
  24949499.717    -3118256.237 2  -2429803.526 1
 91  5 14 21 35 45.0060000  0  5 15 06 02 19 13
  25967480.689      114980.871 2     89609.941 1
  22853126.011    -9323122.172 3  -7264737.834 3
  22694719.269     2955264.638 4   2302824.092 4
  25511232.845    25561821.849 2  19918282.242 1
  24941973.133    -3157796.100 2  -2460613.668 1
 91  5 14 21 36  0.0060000  0  5 15 06 02 19 13
  25967787.376      116617.556 2     90885.342 1
  22853152.692    -9322981.251 3  -7264628.008 3
  22698929.561     2977393.807 4   2320067.602 4
  25522343.451    25620237.664 2  19963800.977 1
  24934463.929    -3197276.211 2  -2491377.266 1
 91  5 14 21 36 15.0060000  0  5 15 06 02 19 13
  25968122.246      118371.201 2     92251.854 1
  22853190.167    -9322775.910 3  -7264467.993 3
  22703152.139     2999579.617 4   2337355.256 4
  25533469.649    25678705.346 2  20009360.086 1
  24926960.423    -3236694.975 2  -2522092.991 1
 91  5 14 21 36 30.0060000  0  5 15 06 02 19 13
  25968474.496      120238.107 2     93706.641 1
  22853241.732    -9322509.726 3  -7264260.568 3
  22707385.500     3021818.307 4   2354684.113 4
  25544609.335    25737221.089 2  20054956.708 1
  24919469.812    -3276055.660 2  -2552763.505 1
 91  5 14 21 36 45.0060000  0  5 15 06 02 19 13
  25968852.834      122215.704 2     95247.682 1
  22853305.286    -9322185.234 3  -7264007.695 3
  22711626.671     3044107.186 4   2372052.076 4
  25555752.617    25795782.032 2  20100588.508 1
  24911991.486    -3315360.769 2  -2583390.720 1
 91  5 14 21 37  0.0060000  0  5 15 06 02 19 13
  25969258.159      124306.196 2     96876.672 1
  22853381.133    -9321800.475 3  -7263707.866 3
  22715875.328     3066447.781 4   2389460.338 4
  25566905.496    25854389.910 2  20146256.860 1
  24904523.954    -3354607.946 2  -2613972.825 1
 91  5 14 21 37 15.0060000  0  5 15 06 02 19 13
  25969670.072      126510.636 2     98594.458 1
  22853463.873    -9321354.313 3  -7263360.202 3
  22720138.975     3088840.808 4   2406909.461 3
  25578070.974    25913045.275 2  20191962.223 1
  24897067.223    -3393796.240 2  -2644509.017 1
 91  5 14 21 37 30.0060000  0  5 15 06 02 19 13
  25970113.464      128829.262 2    100401.227 1
  22853560.713    -9320846.498 3  -7262964.492 3
  22724410.116     3111286.410 4   2424399.549 4
  25589238.834    25971748.266 2  20237704.655 1
  24889621.869    -3432925.156 2  -2674998.893
 91  5 14 21 37 45.0060000  0  5 15 06 02 19 13
  25970581.139      131261.214 2    102296.340 1
  22853669.829    -9320277.920 3  -7262521.433 3
  22728690.559     3133783.444 4   2441929.712 4
  25600423.194    26030497.701 2  20283483.421 1
  24882184.918    -3471995.164 2  -2705442.944 1
 91  5 14 21 38  0.0060000  0  5 15 06 02 19 13
  25971060.505      133807.870 2    104280.836 1
  22853790.053    -9319647.302 3  -7262030.029 3
  22732979.988     3156332.680 4   2459500.556 3
  25611612.649    26089294.438 2  20329298.915 1
  24874762.660    -3511004.935 2  -2735839.988 1
 91  5 14 21 38 15.0060000  0  5 15 06 02 19 13
  25971564.162      136465.564 2    106351.792 1
  22853920.162    -9318958.127 3  -7261492.997 3
  22737282.007     3178930.463 4   2477109.227 3
  25622812.294    26148134.762 2  20375148.434 1
  24867349.694    -3549957.906 2  -2766192.812 1
 91  5 14 21 38 30.0060000  0  5 15 06 02 19 13
  25972098.392      139238.857 2    108512.884 1
  22854061.360    -9318206.023 3  -7260906.925 3
  22741593.319     3201580.978 4   2494758.989 4
  25634017.035    26207022.849 2  20421035.149 1
  24859955.609    -3588849.448 2  -2796497.822 1
 91  5 14 21 38 45.0060000  0  5 15 06 02 19 13
  25972637.717      142124.047 2    110761.182 1
  22854215.454    -9317394.586 3  -7260274.614 3
  22745912.135     3224280.310 4   2512446.791 4
  25645227.177    26265954.637 2  20466955.891 1
  24852559.134    -3627682.971 2  -2826757.539 1
 91  5 14 21 39  0.0060000  0  5 15 06 02 19 13
  25973217.518      145118.774 2    113094.736 1
  22854382.741    -9316526.467 3  -7259598.147 3
  22750239.335     3247025.345 4   2530170.208 4
  25656449.910    26324927.098 2  20512908.368 1
  24845177.342    -3666461.502 2  -2856974.438 1
 91  5 14 21 39 15.0060000  0  5 15 06 02 19 13
  25973804.813      148223.143 2    115513.794 1
  22854559.616    -9315601.504 3  -7258877.377 3
  22754576.438     3269816.058 4   2547929.213 3
  25667681.934    26383940.276 2  20558892.554 1
  24837810.541    -3705184.418 2  -2887147.933 1
 91  5 14 21 39 30.0060000  0  5 15 06 02 19 13
  25974415.187      151443.952 2    118023.567 1
  22854745.792    -9314612.870 3  -7258106.998 3
  22758924.928     3292659.070 4   2565728.975 3
  25678917.554    26443000.707 2  20604913.552 1
  24830453.634    -3743844.576 2  -2917272.665 1
 91  5 14 21 39 45.0070000  0  5 15 06 02 19 13
  25975052.848      154779.446 2    120622.766 1
  22854945.147    -9313562.228 3  -7257288.303 3
  22763281.509     3315553.825 4   2583569.054 3
  25690166.665    26502110.094 2  20650972.710 1
  24823106.319    -3782446.248 2  -2947351.717 1
 91  5 14 21 40  0.0070000  0  5 15 06 02 19 13
  25975703.994      158229.098 2    123310.813 1
  22855155.605    -9312449.808 3  -7256421.470 3
  22767645.285     3338496.807 4   2601446.713 3
  25701419.081    26561260.191 2  20697063.546 1
  24815769.200    -3820983.986 2  -2977381.014 1
 91  5 14 21 40 15.0070000  0  5 15 06 02 19 13
  25976386.925      161794.945 2    126089.448 1
  22855381.045    -9311273.836 3  -7255505.114 3
  22772022.855     3361491.002 4   2619364.273 4
  25712681.983    26620456.328 2  20743190.334 1
  24808449.768    -3859458.777 2  -3007361.250 1
 91  5 14 21 40 30.0070000  0  5 15 06 02 19 13
  25977083.041      165477.962 2    128959.343 1
  22855616.387    -9310033.480 3  -7254538.587 3
  22776408.217     3384537.023 4   2637322.225 3
  25723962.275    26679699.086 2  20789353.394 1
  24801142.925    -3897869.526 2  -3037291.523 1
 91  5 14 21 40 45.0070000  0  5 15 06 02 19 13
  25977810.636      169280.680 2    131922.608
  22855865.812    -9308726.127 3  -7253519.862 3
  22780802.880     3407637.294 4   2655322.450 3
  25735252.453    26738990.624 2  20835554.486 1
  24793839.983    -3936213.667 2  -3067169.960 1
 91  5 14 21 41  0.0070000  0  5 15 06 02 19 13
  25978561.912      173205.341 2    134980.865 1
  22856128.429    -9307349.425 3  -7252447.099 3
  22785210.124     3430793.743 4   2673366.442 4
  25746529.446    26798333.012 2  20881795.200 1
  24786562.221    -3974488.720 2  -3096994.551 1
 91  5 14 21 41 15.0070000  0  5 15 06 02 19 13
  25979326.388      177248.700 2    138131.586 1
  22856401.839    -9305906.583 3  -7251322.787 3
  22789626.068     3454002.774 4   2691451.406 3
  25757845.119    26857722.741 2  20928072.775 1
  24779292.251    -4012697.512 2  -3126767.491 1
 91  5 14 21 41 30.0070000  0  5 15 06 02 19 13
  25980120.539      181412.356 2    141375.948 1
  22856687.848    -9304396.197 3  -7250145.847 3
  22794053.109     3477265.525 4   2709578.235 3
  25769156.882    26917160.859 2  20974388.127
  24772031.879    -4050838.507 2  -3156487.599 1
 91  5 14 21 41 45.0070000  0  5 15 06 02 19 13
  25980935.072      185697.162 2    144714.530 1
  22856989.737    -9302817.418 3  -7248915.614 3
  22798489.731     3500582.674 4   2727747.447 4
  25780471.054    26976647.897 2  21020741.488 1
  24764785.292    -4088910.683 2  -3186154.144 1
 91  5 14 21 42  0.0070000  0  5 15 06 02 19 13
  25981773.293      190103.050 2    148147.593 1
  22857304.818    -9301170.266 3  -7247632.101 3
  22802935.960     3523953.974 4   2745958.856 3
  25791797.213    27036183.526 2  21067132.801 1
  24757555.798    -4126914.018 2  -3215766.977 1
 91  5 14 21 42 15.0070000  0  5 15 06 02 19 13
  25982638.797      194634.857 2    151678.948 1
  22857631.294    -9299449.808 3  -7246291.467 3
  22807395.965     3547384.041 4   2764216.058 3
  25803144.654    27095772.502 2  21113565.662 1
  24750335.002    -4164843.200 2  -3245322.058 1
 91  5 14 21 42 30.0070000  0  5 15 06 02 19 13
  25983522.878      199293.119 2    155308.779 1
  22857974.557    -9297655.574 3  -7244893.353 3
  22811866.772     3570872.834 4   2782519.028 4
  25814490.000    27155414.744 2  21160040.000 1
  24743134.589    -4202697.877 2  -3274819.018 1
 91  5 14 21 42 45.0070000  0  5 15 06 02 19 13
  25984430.656      204079.714 2    159038.667 1
  22858328.910    -9295785.654 3  -7243436.246 3
  22816346.269     3594422.264 4   2800869.237 3
  25825849.734    27215111.980 2  21206557.199 1
  24735946.460    -4240475.866 2  -3304256.306 1
 91  5 14 21 43  0.0070000  0  5 15 06 02 19 13
  25985371.100      208994.198 2    162868.168 1
  22858697.956    -9293840.353 3  -7241920.406 3
  22820838.365     3618031.475 4   2819266.029 3
  25837217.870    27274863.526 2  21253116.720 1
  24728770.032    -4278177.461 2  -3333634.021 1
 91  5 14 21 43 15.0070000  0  5 15 06 02 19 13
  25986329.239      214035.150 2    166796.225 1
  22859083.187    -9291821.195 3  -7240347.027 3
  22825342.440     3641698.642 4   2837707.993 4
  25848601.284    27334667.395 2  21299717.006 1
  24721609.483    -4315804.100 2  -3362953.357 1
 91  5 14 21 43 30.0070000  0  5 15 06 02 19 13
  25987314.060      219201.964 2    170822.317 1
  22859483.111    -9289728.985 3  -7238716.720 3
  22829857.615     3665422.867 4   2856194.405 4
  25859993.397    27394522.734 2  21346357.435 1
  24714470.224    -4353356.407 2  -3392214.749 1
 91  5 14 21 43 45.0070000  0  5 15 06 02 19 13
  25988317.761      224495.166 2    174946.965 1
  22859892.022    -9287563.100 3  -7237029.002 3
  22834384.184     3689204.422 4   2874725.497 3
  25871391.208    27454429.798 2  21393038.105 1
  24707335.170    -4390833.339 2  -3421417.417 1
 91  5 14 21 44  0.0070000  0  5 15 06 02 19 13
  25989349.348      229917.674 2    179172.374 1
  22860318.034    -9285320.316 3  -7235281.355 3
  22838921.240     3713046.335 4   2893303.625 4
  25882799.514    27514391.531 2  21439761.376 1
  24700214.495    -4428231.751 2  -3450558.900 1
 91  5 14 21 44 15.0070000  0  5 15 06 02 19 13
  25990403.717      235469.380 2    183498.447 1
  22860761.121    -9283000.976 3  -7233474.070 3
  22843468.793     3736947.895 4   2911928.222 4
  25894219.801    27574407.031 2  21486526.576 1
  24693115.712    -4465551.797 2  -3479639.308 1
 91  5 14 21 44 30.0070000  0  5 15 06 02 19 13
  25991481.774      241149.541 2    187924.526 1
  22861215.612    -9280605.471 3  -7231607.436 3
  22848028.343     3760908.497 4   2930598.822 4
  25905648.794    27634475.549 2  21533333.097 1
  24686027.722    -4502793.797 2  -3508658.939 1
 91  5 14 21 44 45.0070000  0  5 15 06 02 19 13
  25992592.201      246959.761 2    192452.034 1
  22861685.983    -9278132.507 3  -7229680.436 3
  22852598.372     3784929.064 4   2949316.156 4
  25917093.974    27694598.069 2  21580181.669 1
  24678958.315    -4539956.385 2  -3537616.660 1
 91  5 14 21 45  0.0070000  0  5 15 06 02 19 13
  25993722.120      252898.557 2    197079.708 1
  22862172.844    -9275583.299 3  -7227694.020 3
  22857180.703     3809007.942 4   2968078.924 4
  25928548.741    27754773.253 2  21627071.319 1
  24671900.898    -4577040.551 2  -3566513.309 1
 91  5 14 21 45 15.0070000  0  5 15 06 02 19 13
  25994880.814      258963.738 2    201805.882 1
  22862671.405    -9272960.057 3  -7225649.925 3
  22861772.920     3833142.675 4   2986885.210 4
  25939999.609    27814998.477 2  21673999.935 1
  24664855.477    -4614048.385 2  -3595350.427 1
 91  5 14 21 45 30.0070000  0  5 15 06 02 19 13
  25996055.703      265155.181 2    206630.440 1
  22863186.745    -9270263.080 3  -7223548.367 3
  22866376.837     3857332.899 4   3005734.736 4
  25951474.166    27875273.052 2  21720967.002 1
  24657830.438    -4650979.877 2  -3624128.095 1
 91  5 14 21 45 45.0070000  0  5 15 06 02 19 13
  25997253.678      271473.483 2    211553.829 1
  22863713.480    -9267491.720 3  -7221388.844 3
  22870989.741     3881578.902 4   3024627.733 4
  25962948.425    27935597.340 2  21767972.858 1
  24650813.496    -4687834.492 2  -3652845.863 1
 91  5 14 21 46  0.0070000  0  5 15 06 02 19 13
  25998487.321      277919.079 2    216576.440 1
  22864255.205    -9264645.463 3  -7219170.978 3
  22875614.939     3905880.770 4   3043564.257 4
  25974438.574    27995971.426 2  21815017.446 1
  24643813.647    -4724611.548 2  -3681503.170 1
 91  5 14 21 46 15.0070000  0  5 15 06 02 19 13
  25999739.557      284493.621 2    221699.509 1
  22864813.123    -9261722.632 3  -7216893.432 3
  22880251.235     3930240.001 4   3062545.477 4
  25985942.804    28056396.803 2  21862102.036 1
  24636833.577    -4761309.164 2  -3710098.592 1
 91  5 14 21 46 30.0070000  0  5 15 06 02 19 13
  26001010.971      291195.103 2    226921.477 1
  22865380.325    -9258724.958 3  -7214557.568 3
  22884896.517     3954654.592 4   3081569.847 4
  25997450.342    28116871.353 2  21909224.921 1
  24629863.402    -4797928.862 2  -3738633.262 1
 91  5 14 21 46 45.0070000  0  5 15 06 02 19 13
  26002308.177      298025.875 2    232244.154 1
  22865966.120    -9255650.291 3  -7212161.713 3
  22889553.492     3979126.405 4   3100638.794 4
  26008972.267    28177396.904 2  21956387.582 1
  24622915.414    -4834468.213 2  -3767105.394 1
 91  5 14 21 47  0.0070000  0  5 15 06 02 19 13
  26003639.253      304986.014 2    237667.711
  22866564.505    -9252498.260 3  -7209705.571 3
  22894222.463     4003655.366 4   3119752.275 4
  26020494.785    28237973.473 2  22003589.941 1
  24615971.920    -4870926.964 2  -3795514.657 1
 91  5 14 21 47 15.0070000  0  5 15 06 02 19 13
  26004986.523      312079.424 2    243195.071 1
  22867179.983    -9249265.246 3  -7207186.330 3
  22898900.719     4028245.072 4   3138913.093 4
  26032029.597    28298604.311 2  22050834.594 1
  24609051.810    -4907301.330 2  -3823858.193 1
 91  5 14 21 47 30.0070000  0  5 15 06 02 19 13
  26006353.277      319308.758 2    248828.315 1
  22867809.849    -9245948.278 3  -7204601.664 3
  22903592.471     4052897.978 4   3158123.159 3
  26043584.800    28359292.046 2  22098123.626 1
  24602145.188    -4943588.259 2  -3852133.605 1
 91  5 14 21 47 45.0070000  0  5 15 06 02 19 13
  26007762.600      326676.225 2    254569.292 1
  22868458.892    -9242545.238 3  -7201949.936 3
  22908296.518     4077616.010 4   3177383.972 4
  26055143.597    28420038.571 2  22145458.436 1
  24595254.158    -4979785.580 2  -3880339.214 1
 91  5 14 21 48  0.0070000  0  5 15 06 02 19 13
  26009199.503      334178.301 2    260415.088 1
  22869122.332    -9239059.907 3  -7199234.078 3
  22913008.050     4102395.097 4   3196692.353 4
  26066709.296    28480839.636 2  22192835.721 1
  24588388.911    -5015896.746 2  -3908477.675 1
 91  5 14 21 48 15.0070000  0  5 15 06 02 19 13
  26010648.107      341816.015 2    266366.567 1
  22869801.669    -9235491.006 3  -7196453.106 3
  22917738.778     4127236.390 4   3216049.210 3
  26078287.280    28541696.226 2  22240256.347 1
  24581532.956    -5051920.560 2  -3936548.042 1
 91  5 14 21 48 30.0070000  0  5 15 06 02 19 13
  26012121.281      349585.934 2    272421.095 1
  22870495.682    -9231841.927 3  -7193609.646 3
  22922476.102     4152136.043 4   3235451.547 4
  26089884.145    28602604.768 2  22287717.391 1
  24574693.797    -5087860.066 2  -3964552.745 1
 91  5 14 21 48 45.0070000  0  5 15 06 02 19 13
  26013626.842      357488.733 2    278579.184 1
  22871204.091    -9228111.891 3  -7190703.123 3
  22927226.610     4177094.296 4   3254899.540 3
  26101484.317    28663565.508 2  22335219.150 1
  24567870.814    -5123714.414 2  -3992491.112 1
 91  5 14 21 49  0.0070000  0  5 15 06 02 19 13
  26015152.785      365525.688 2    284841.752 1
  22871932.594    -9224299.593 3  -7187732.481 3
  22931987.012     4202112.578 4   3274394.315 4
  26113090.779    28724579.573 2  22382762.461 1
  24561061.634    -5159481.938 2  -4020361.775 1
 91  5 14 21 49 15.0070000  0  5 15 06 02 19 13
  26016712.302      373698.380 2    291210.126 1
  22872672.474    -9220403.158 3  -7184696.278 3
  22936759.708     4227192.346 4   3293937.000 3
  26124711.342    28785648.351 2  22430348.356 1
  24554272.828    -5195161.004 2  -4048163.567 1
 91  5 14 21 49 30.0070000  0  5 15 06 02 19 13
  26018291.913      381999.405 2    297678.482 1
  22873427.955    -9216430.544 3  -7181600.727 3
  22941542.899     4252325.338 4   3313521.154 4
  26136344.486    28846763.606 2  22477970.520 1
  24547498.723    -5230759.413 2  -4075902.418 1
 91  5 14 21 49 45.0070000  0  5 15 06 02 19 13
  26019894.306      390427.414 2    304245.809 1
  22874196.323    -9212382.428 3  -7178446.332 3
  22946335.087     4277510.573 4   3333146.018 3
  26147976.129    28907924.174 2  22525627.954 1
  24540739.303    -5266277.616 2  -4103578.814 1
 91  5 14 21 50  0.0070000  0  5 15 06 02 19 13
  26021523.973      398983.373 2    310912.762 1
  22874985.378    -9208258.004 3  -7175232.475 3
  22951136.855     4302748.599 4   3352812.022 3
  26159629.664    28969130.646 2  22573321.206 1
  24534000.866    -5301714.643 2  -4131191.984 1
 91  5 14 21 50 15.0070000  0  5 15 06 02 19 13
  26023172.233      407666.915 2    317679.206 1
  22875783.726    -9204057.797 3  -7171959.570 3
  22955950.925     4328038.512 4   3372518.449 3
  26171276.000    29030382.084 2  22621049.489 1
  24527271.120    -5337070.974 2  -4158742.274 1
 91  5 14 21 50 30.0070000  0  5 15 06 02 19 13
  26024849.871      416482.278 2    324548.395 1
  22876595.562    -9199777.283 3  -7168624.092 3
  22960773.092     4353384.705 4   3392268.731 3
  26182939.726    29091682.723 2  22668816.087 1
  24520563.265    -5372341.791 2  -4186225.876 1
 91  5 14 21 50 45.0070000  0  5 15 06 02 19 13
  26026547.594      425423.444 2    331515.549 1
  22877428.985    -9195422.412 3  -7165230.671 3
  22965605.441     4378780.967 4   3412058.033 3
  26194624.435    29153026.327 2  22716616.143 1
  24513862.608    -5407533.094 2  -4213647.556 1
 91  5 14 21 51  0.0070000  0  5 15 06 02 19 13
  26028274.999      434491.060 2    338581.292 1
  22878269.902    -9190992.523 3  -7161778.799 3
  22970449.185     4404227.642 4   3431886.618 3
  26206303.752    29214413.362 2  22764450.030 1
  24507176.636    -5442644.073 2  -4241006.702 1
 91  5 14 21 51 15.0070000  0  5 15 06 02 19 13
  26030025.789      443685.575 2    345745.825 1
  22879124.910    -9186487.229 3  -7158268.170 3
  22975299.229     4429724.685 4   3451754.444 3
  26217992.659    29275843.669 2  22812317.679 1
  24500511.647    -5477674.195 2  -4268302.754 1
 91  5 14 21 51 30.0070000  0  5 15 06 02 19 13
  26031800.860      453006.591 2    353008.974 1
  22880000.606    -9181906.929 3  -7154699.095 3
  22980160.066     4455271.504 4   3471661.061 3
  26229689.662    29337316.433 2  22860218.397 1
  24493864.048    -5512623.729 2  -4295536.044 1
 91  5 14 21 51 45.0070000  0  5 15 06 02 19 13
  26033600.213      462455.513 2    360371.780 1
  22880885.890    -9177249.946 3  -7151070.259 3
  22985032.594     4480869.536 4   3491607.586 3
  26241395.957    29398833.003 2  22908153.217 1
  24487225.147    -5547490.860 2  -4322705.104 1
 91  5 14 21 52  0.0070000  0  5 15 06 02 19 13
  26035425.052      472036.709 2    367837.725 1
  22881785.868    -9172511.731 3  -7147378.135 3
  22989912.617     4506523.079 4   3511597.364 4
  26253113.647    29460397.608 2  22956125.543 1
  24480608.130    -5582270.942 2  -4349806.345 1
 91  5 14 21 52 15.0070000  0  5 15 06 02 19 13
  26037270.875      481745.586 2    375403.127 1
  22882702.632    -9167697.045 3  -7143626.422 3
  22994803.730     4532227.071 4   3531626.450 4
  26264839.426    29522005.275 2  23004131.370 1
  24474004.601    -5616968.403 2  -4376843.234 1
 91  5 14 21 52 30.0070000  0  5 15 06 02 19 13
  26039136.181      491588.370 2    383072.832 1
  22883635.285    -9162799.855 3  -7139810.412 3
  22999708.035     4557987.337 4   3551699.393 3
  26276570.911    29583661.857 2  23052175.345 1
  24467419.054    -5651577.012 2  -4403810.892 1
 91  5 14 21 52 45.0070000  0  5 15 06 02 19 13
  26041045.557      501561.144 2    390843.868 1
  22884581.131    -9157823.459 3  -7135932.690 3
  23004618.631     4583800.088 4   3571813.233 4
  26288311.077    29645363.396 2  23100254.255 1
  24460845.810    -5686100.354 2  -4430712.055 1
 91  5 14 21 53  0.0070000  0  5 15 06 02 19 13
  26042961.234      511665.546 2    398717.477 1
  22885542.271    -9152766.334 3  -7131992.063 3
  23009541.529     4609666.544 4   3591968.906 4
  26300072.236    29707111.140 2  23148369.305 1
  24454298.044    -5720536.644 2  -4457545.424 1
 91  5 14 21 53 15.0070000  0  5 15 06 02 19 13
  26044910.484      521905.098 2    406696.363 1
  22886523.488    -9147624.799 3  -7127985.661 3
  23014474.907     4635590.185 4   3612169.153 3
  26311822.602    29768908.282 2  23196522.727 1
  24447760.765    -5754882.128 2  -4484308.025 1
 91  5 14 21 53 30.0070000  0  5 15 06 02 19 13
  26046884.915      532276.543 2    414778.054 1
  22887514.303    -9142402.293 3  -7123916.162 3
  23019416.686     4661567.461 4   3632411.191 3
  26323594.257    29830751.392 2  23244712.023 1
  24441240.578    -5789139.940 2  -4511002.301 1
 91  5 14 21 53 45.0070000  0  5 15 06 02 19 13
  26048884.230      542778.755 2    422961.589 1
  22888526.704    -9137099.717 3  -7119784.275 3
  23024370.463     4687597.009 4   3652693.961 4
  26335370.999    29892638.905 2  23292936.002 1
  24434741.384    -5823310.933 2  -4537628.932 1
 91  5 14 21 54  0.0070000  0  5 15 06 02 19 13
  26050903.334      553416.765 2    431251.005 1
  22889549.897    -9131712.038 3  -7115586.079 3
  23029335.625     4713683.649 4   3673021.215 3
  26347160.636    29954575.511 1  23341198.119 1
  24428252.372    -5857390.060 2  -4564183.935 1
 91  5 14 21 54 15.0070000  0  5 15 06 02 19 13
  26052955.113      564189.631 2    439645.393 1
  22890590.776    -9126240.039 3  -7111322.168 3
  23034310.683     4739826.316 4   3693392.134 3
  26358951.478    30016560.160 2  23389497.672 1
  24421787.651    -5891378.047 2  -4590667.991 1
 91  5 14 21 54 30.0070000  0  5 15 06 02 19 13
  26055032.675      575100.598 2    448147.545 1
  22891651.436    -9120680.259 3  -7106989.866 3
  23039297.126     4766028.192 4   3713809.184 3
  26370749.509    30078596.008 2  23437837.169 1
  24415337.911    -5925271.090 2  -4617078.037 1
 91  5 14 21 54 45.0070000  0  4 15 06 02 13
  26057140.513      586149.389 2    456757.012 1
  22892724.397    -9115033.072 3  -7102589.452 3
  23044293.167     4792288.734 4   3734271.946 3
  24408908.867    -5959069.540 2  -4643414.377 1
 91  5 14 21 55  0.0070000  0  4 15 06 02 13
  26059265.443      597336.628 2    465474.347 1
  22893815.943    -9109297.868 3  -7098120.453 3
  23049300.899     4818608.111 4   3754780.554 3
  24402492.404    -5992772.764 2  -4669676.548 1
 91  5 14 21 55 15.0070000  0  4 15 06 02 13
  26061427.246      608664.725 2    474301.469 1
  22894925.175    -9103472.088 3  -7093580.871 3
  23054322.723     4844988.536 4   3775336.734 3
  24396093.933    -6026378.104 2  -4695862.348 1
 91  5 14 21 55 30.0070000  0  4 15 06 02 13
  26063602.843      620129.492 2    483235.097 1
  22896046.997    -9097559.746 3  -7088973.843 3
  23059354.144     4871425.851 4   3795937.242 3
  24389721.550    -6059889.336 2  -4721974.890 1
 91  5 14 21 55 45.0070000  0  4 15 06 02 13
  26065815.915      631728.604 2    492273.362 1
  22897190.109    -9091563.250 3  -7084301.247 3
  23064395.748     4897917.344 4   3816579.965 3
  24383357.857    -6093308.529 2  -4748015.704 1
 91  5 14 21 56  0.0070000  0  4 15 06 02 13
  26068045.171      643467.275 2    501420.427 1
  22898349.998    -9085477.214 3  -7079558.868 3
  23069444.855     4924467.979 4   3837268.778 3
  24377016.640    -6126630.451 2  -4773980.760 1
 91  5 14 21 56 15.0070000  0  4 15 06 02 13
  26070305.001      655342.931 2    510674.193 1
  22899521.589    -9079304.072 3  -7074748.620 3
  23074511.351     4951075.226 4   3858001.700 3
  24370697.017    -6159857.364 2  -4799871.743 1
 91  5 14 21 56 30.0070000  0  4 15 06 02 13
  26072588.824      667354.045 2    520033.543 1
  22900714.468    -9073045.288 3  -7069871.636 3
  23079582.934     4977737.447 4   3878777.452 4
  24364390.883    -6192990.725 2  -4825689.834 1
 91  5 14 21 56 45.0070000  0  4 15 06 02 13
  26074905.018      679500.759 2    529498.531 1
  22901921.430    -9066701.012 3  -7064928.044 3
  23084665.615     5004454.176 4   3899595.678 3
  24358103.038    -6226030.411 2  -4851434.925 1
 91  5 14 21 57  0.0070000  0  4 15 06 02 13
  26077237.405      691785.073 2    539070.774 1
  22903145.484    -9060268.546 3  -7059915.724 3
  23089760.887     5031227.659 4   3920458.135 3
  24351835.277    -6258973.677 2  -4877104.910 1
 91  5 14 21 57 15.0070000  0  4 15 06 02 13
  26079600.365      704207.570 2    548750.644 1
  22904388.725    -9053747.230 3  -7054834.167 3
  23094864.858     5058058.138 4   3941365.000 3
  24345588.204    -6291819.755 2  -4902699.148 1
 91  5 14 21 57 30.0070000  0  4 15 06 02 13
  26081996.010      716766.679 2    558537.005 1
  22905643.657    -9047138.861 3  -7049684.786 3
  23099985.310     5084943.731 4   3962314.809 3
  24339354.018    -6324570.406 2  -4928219.036 1
 91  5 14 21 57 45.0070000  0  4 15 06 02 13
  26084406.644      729463.384 2    568430.575 1
  22906917.174    -9040442.281 3  -7044466.672 3
  23105111.163     5111885.315 4   3983308.249 3
  24333134.525    -6357224.189 2  -4953663.425 1
 91  5 14 21 58  0.0070000  0  4 15 06 02 13
  26086854.150      742298.765 2    578432.222 1
  22908210.776    -9033656.395 3  -7039178.957 3
  23110247.809     5138883.834 4   4004346.061 3
  24326941.713    -6389779.898 2  -4979031.422 1
 91  5 14 21 58 15.0070000  0  4 15 06 02 13
  26089313.645      755267.043 2    588537.395 1
  22909516.969    -9026786.664 3  -7033825.917 3
  23115396.147     5165933.417 4   4025423.656 3
  24320763.882    -6422243.292 2  -5004327.468 1
 91  5 14 21 58 30.0070000  0  4 15 06 02 13
  26091811.216      768369.261 2    598746.947 1
  22910840.559    -9019832.063 3  -7028406.743 3
  23120553.175     5193034.971 4   4046541.743 3
  24314602.254    -6454612.905 2  -5029550.457 1
 91  5 14 21 58 45.0070000  0  4 15 06 02 13
  26094330.373      781604.678 2    609060.282 1
  22912180.029    -9012793.243 3  -7022921.945 3
  23125719.495     5220187.488 4   4067699.549 3
  24308461.906    -6486889.217 2  -5054700.725 1
 91  5 14 21 59  0.0070000  0  4 15 06 02 13
  26096875.313      794971.296 2    619475.881 1
  22913535.387    -9005671.978 3  -7017372.898 3
  23130895.718     5247388.789 4   4088895.369 3
  24302339.837    -6519074.218 2  -5079779.839 1
 91  5 14 21 59 15.0070000  0  4 15 06 02 13
  26099443.034      808465.354 2    629990.779 1
  22914906.643    -8998472.150 3  -7011762.635 3
  23136080.623     5274634.980 4   4110126.166 3
  24296229.173    -6551171.072 2  -5104790.258 2
 91  5 14 21 59 30.0070000  0  4 15 06 02 13
  26102035.639      822089.941 2    640607.352 1
  22916291.684    -8991190.434 3  -7006088.562 3
  23141274.226     5301928.961 4   4131394.198 3
  24290139.788    -6583176.765 2  -5129729.682 1
 91  5 14 21 59 45.0070000  0  4 15 06 02 13
  26104654.027      835847.050 2    651327.206 1
  22917692.910    -8983824.613 3  -7000348.964 3
  23146476.826     5329272.559 4   4152700.895 3
  24284066.589    -6615089.000 2  -5154596.273 1
 91  5 14 22  0  0.0070000  0  4 15 06 02 13
  26107295.798      849734.599 2    662148.682 1
  22919112.128    -8976376.787 3  -6994545.467 3
  23151689.921     5356663.551 4   4174044.523 3
  24278011.084    -6646909.914 2  -5179391.685 1
 91  5 14 22  0 15.0070000  0  4 15 06 02 13
  26109963.648      863754.306 2    673073.171 1
  22920543.342    -8968845.438 3  -6988676.869 3
  23156911.707     5384103.361 4   4195426.192 3
  24271972.061    -6678637.542 2  -5204114.414 1
 91  5 14 22  0 30.0070000  0  4 15 06 02 13
  26112653.983      877907.909 2    684101.981 1
  22921991.039    -8961228.488 3  -6982741.585 3
  23162142.183     5411593.581 4   4216847.136 3
  24265953.132    -6710269.635 2  -5228762.723 1
 91  5 14 22  0 45.0070000  0  4 15 06 02 13
  26115374.603      892193.405 2    695233.551 1
  22923454.327    -8953527.713 3  -6976740.977 3
  23167384.350     5439132.035 4   4238305.675 3
  24259956.679    -6741808.143 3  -5253338.063 1
 91  5 14 22  1  0.0070000  0  4 15 06 02 13
  26118121.302      906613.213 2    706469.802 1
  22924939.497    -8945740.573 3  -6970673.067 3
  23172634.318     5466720.982 4   4259803.558 3
  24253971.324    -6773250.299 2  -5277838.367 1
 91  5 14 22  1 15.0070000  0  4 15 06 02 13
  26120887.188      921163.603 2    717807.812 1
  22926437.258    -8937870.662 3  -6964540.657 3
  23177892.976     5494356.789 4   4281337.940 3
  24248000.959    -6804599.598 2  -5302266.289 1
 91  5 14 22  1 30.0070000  0  4 15 06 02 13
  26123686.351      935847.595 2    729249.922 1
  22927952.408    -8929914.880 3  -6958341.348 3
  23183160.630     5522042.296 4   4302911.070 3
  24242057.275    -6835852.759 2  -5326619.319 1
 91  5 14 22  1 45.0070000  0  4 15 06 02 13
  26126499.902      950663.589 2    740794.878 1
  22929481.649    -8921874.774 3  -6952076.330 3
  23188436.380     5549775.672 4   4324521.492 3
  24236127.377    -6867011.339 3  -5350898.657 1
 91  5 14 22  2  0.0070000  0  4 15 06 02 13
  26129349.130      965609.900 2    752441.376 1
  22931024.685    -8913752.073 3  -6945746.938 3
  23193724.721     5577554.767 4   4346167.542 3
  24230212.172    -6898076.916 2  -5375105.516 1
 91  5 14 22  2 15.0070000  0  4 15 06 02 13
  26132216.942      980691.220 2    764193.052 1
  22932588.695    -8905541.528 3  -6939349.105 3
  23199020.548     5605384.406 4   4367852.970 3
  24224323.046    -6929044.326 2  -5399235.865 1
 91  5 14 22  2 30.0070000  0  4 15 06 02 13
  26135111.436      995906.410 2    776049.075 1
  22934167.705    -8897244.413 3  -6932883.817 3
  23204324.777     5633263.282 4   4389576.773 3
  24218449.818    -6959914.532 3  -5423290.497 1
 91  5 14 22  2 45.0070000  0  4 15 06 02 13
  26138034.112     1011254.430 2    788008.568 1
  22935761.703    -8888861.977 3  -6926352.037 3
  23209637.706     5661189.942 4   4411337.807 3
  24212590.672    -6990688.856 3  -5447270.403 1
 91  5 14 22  3  0.0070000  0  4 15 06 02 13
  26140973.880     1026734.660 2    800071.129 1
  22937373.388    -8880394.329 3  -6919753.857 3
  23214962.317     5689164.014 4   4433135.774 3
  24206752.518    -7021367.137 2  -5471175.455 1
 91  5 14 22  3 15.0080000  0  4 15 06 02 13
  26143952.016     1042350.086 2    812239.013 1
  22939003.957    -8871838.807 3  -6913087.215 3
  23220294.723     5717189.199 4   4454973.582 3
  24200935.037    -7051949.347 3  -5495005.673 1
 91  5 14 22  3 30.0080000  0  4 15 06 02 13
  26146948.742     1058100.273 2    824511.872 1
  22940647.724    -8863194.903 3  -6906351.702 3
  23225637.927     5745262.943 4   4476849.232 3
  24195133.459    -7082429.654 3  -5518756.459 1
 91  5 14 22  3 45.0080000  0  4 15 06 02 13
  26149964.960     1073987.007 2    836891.196 1
  22942310.669    -8854461.101 3  -6899546.129 3
  23230991.322     5773387.865 4   4498764.750 3
  24189350.763    -7112809.092 3  -5542428.667 1
 91  5 14 22  4  0.0080000  0  4 15 06 02 13
  26153020.441     1090008.468 2    849375.475 1
  22943987.704    -8845639.055 3  -6892671.807 3
  23236352.212     5801562.135 4   4520718.717 3
  24183588.151    -7143088.984 3  -5566023.314 1
 91  5 14 22  4 15.0080000  0  4 15 06 02 13
  26156095.413     1106167.293 2    861966.757 1
  22945683.333    -8836726.223 3  -6885726.734 3
  23241722.988     5829788.137 4   4542713.011 3
  24177850.424    -7173266.757 3  -5589538.358 1
 91  5 14 22  4 30.0080000  0  4 15 06 02 13
  26159191.370     1122463.578 2    874665.197 1
  22947396.945    -8827722.284 3  -6878710.673 3
  23247102.462     5858065.827 4   4564747.567 3
  24172126.185    -7203342.282 3  -5612973.725 1
 91  5 14 22  4 45.0080000  0  4 15 06 02 13
  26162327.794     1138894.765 2    887468.778 1
  22949125.249    -8818629.695 3  -6871625.526 3
  23252495.435     5886392.624 4   4586820.382 3
  24166418.140    -7233317.597 3  -5636331.052 1
 91  5 14 22  5  0.0080000  0  4 15 06 02 13
  26165475.019     1155464.751 2    900380.453 1
  22950876.640    -8809444.446 3  -6864468.181 3
  23257894.393     5914772.093 4   4608934.258 3
  24160736.166    -7263188.535 3  -5659607.000 1
 91  5 14 22  5 15.0080000  0  4 15 06 02 13
  26168656.420     1172171.888 2    913399.002 1
  22952638.816    -8800167.681 3  -6857239.528 3
  23263305.653     5943202.642 4   4631087.935 3
  24155072.794    -7292956.505 3  -5682802.744 1
 91  5 14 22  5 30.0080000  0  4 15 06 02 13
  26171859.696     1189016.409 2    926524.605 1
  22954424.985    -8790799.280 3  -6849939.474 3
  23268725.900     5971684.229 4   4653281.376 3
  24149425.903    -7322621.110 3  -5705917.914 1
 91  5 14 22  5 45.0080000  0  4 15 06 02 13
  26175089.059     1206002.565 2    939760.586 1
  22956225.237    -8781334.935 3  -6842564.646 3
  23274155.736     6000221.022 4   4675517.836 3
  24143801.498    -7352177.874 3  -5728949.107 1
 91  5 14 22  6  0.0080000  0  4 15 06 02 13
  26178350.802     1223129.248 2    953106.095 1
  22958042.275    -8771775.579 3  -6835115.791 3
  23279598.773     6028811.925 4   4697796.462 3
  24138199.271    -7381627.528 3  -5751896.787 1
 91  5 14 22  6 15.0080000  0  4 15 06 02 13
  26181636.826     1240398.072 2    966562.333 1
  22959884.207    -8762119.509 3  -6827591.581 3
  23285047.193     6057458.336 4   4720118.340 3
  24132614.442    -7410968.224 3  -5774759.568 1
 91  5 14 22  6 30.0080000  0  4 15 06 02 13
  26184950.736     1257807.479 2    980128.153 1
  22961736.617    -8752367.877 3  -6819992.900 3
  23290508.213     6086158.736 4   4742482.292 3
  24127049.088    -7440201.446 3  -5797538.620 1
 91  5 14 22  6 45.0080000  0  4 15 06 02 13
  26188288.325     1275362.120 2    993807.105 1
  22963608.223    -8742516.021 3  -6812316.124 3
  23295983.026     6114917.498 4   4764891.716 3
  24121508.330    -7469322.419 3  -5820230.206 1
 91  5 14 22  7  0.0080000  0  4 15 06 02 13
  26191662.185     1293059.688 2   1007597.438 1
  22965504.111    -8732566.146 3  -6804562.971 3
  23301463.834     6143732.207 4   4787344.735 3
  24115991.845    -7498332.763 3  -5842835.574 2
 91  5 14 22  7 15.0080000  0  4 15 06 02 13
  26195054.944     1310905.952 2   1021503.631 1
  22967417.091    -8722512.402 3  -6796728.877 3
  23306962.023     6172608.462 4   4809845.716 3
  24110493.656    -7527226.868 3  -5865350.378 2
 91  5 14 22  7 30.0080000  0  4 15 06 02 13
  26198480.369     1328901.416 2   1035526.092 1
  22969351.352    -8712354.361 3  -6788813.514 3
  23312465.918     6201546.503 4   4832394.833 3
  24105014.349    -7556004.089 3  -5887774.113 1
 91  5 14 22  7 45.0080000  0  4 15 06 02 13
  26201933.375     1347039.735 2   1049659.883 1
  22971301.501    -8702097.701 3  -6780821.303 3
  23317983.895     6230540.196 4   4854987.318 3
  24099558.425    -7584670.441 3  -5910111.433 1
 91  5 14 22  8  0.0080000  0  4 15 06 02 13
  26205408.577     1365326.933 2   1063909.649 1
  22973272.930    -8691736.359 3  -6772747.528 3
  23323513.267     6259595.447 4   4877627.769 3
  24094125.588    -7613219.432 3  -5932357.315 1
 91  5 14 22  8 15.0080000  0  4 15 06 02 13
  26208923.635     1383761.600 2   1078274.359 1
  22975265.955    -8681271.964 3  -6764593.458 3
  23329054.033     6288710.486 4   4900314.819 3
  24088714.031    -7641652.327 3  -5954512.745 1
 91  5 14 22  8 30.0080000  0  4 15 06 02 13
  26212454.896     1402343.635 2   1092753.924 1
  22977275.766    -8670704.188 3  -6756358.817 3
  23334606.492     6317885.264 4   4923048.409 3
  24083324.365    -7669969.063 3  -5976577.662 1
 91  5 14 22  8 45.0080000  0  4 15 06 02 13
  26216016.730     1421071.779 2   1107347.221 1
  22979305.654    -8660034.196 3  -6748044.533 3
  23340167.938     6347118.716 4   4945827.719 3
  24077960.770    -7698170.761 3  -5998552.921 2
 91  5 14 22  9  0.0080000  0  4 15 06 02 13
  26219604.949     1439942.721 2   1122051.895 1
  22981355.941    -8649265.261 3  -6739653.157 3
  23345741.380     6376407.156 4   4968649.879 3
  24072616.074    -7726260.514 3  -6020440.953 1
 91  5 14 22  9 15.0080000  0  4 15 06 02 13
  26223230.039     1458956.513 2   1136867.834 1
  22983424.211    -8638396.922 3  -6731184.317 3
  23351325.912     6405750.647 4   4991514.936 3
  24067291.158    -7754237.736 3  -6042241.318 1
 91  5 14 22  9 30.0080000  0  4 15 06 02 13
  26226871.019     1478114.158 2   1151795.888 1
  22985513.159    -8627428.291 3  -6722637.325 3
  23356921.543     6435149.831 4   5014423.389 3
  24061989.633    -7782101.551 3  -6063953.291 1
 91  5 14 22  9 45.0080000  0  4 15 06 02 13
  26230551.863     1497414.107 2   1166834.810 1
  22987618.301    -8616360.719 3  -6714013.240 3
  23362524.363     6464603.060 4   5037373.951 3
  24056707.286    -7809853.349 3  -6085578.007 1
 91  5 14 22 10  0.0080000  0  4 15 06 02 13
  26234241.711     1516856.324 2   1181984.607 1
  22989742.332    -8605193.966 3  -6705311.868 3
  23368140.069     6494110.334 4   5060366.633 3
  24051449.230    -7837492.478 3  -6107114.898 1
 91  5 14 22 10 15.0080000  0  4 15 06 02 13
  26237976.529     1536443.435 2   1197247.297 1
  22991887.051    -8593925.128 3  -6696530.951 3
  23373768.375     6523674.294 4   5083403.480 3
  24046210.352    -7865016.187 3  -6128561.877 2
 91  5 14 22 10 30.0080000  0  4 15 06 02 13
  26241728.727     1556171.001 2   1212619.438 1
  22994050.346    -8582558.484 3  -6687673.818 3
  23379400.276     6553290.431 4   5106480.983 3
  24040996.061    -7892428.535 3  -6149922.074 2
 91  5 14 22 10 45.0080000  0  4 15 06 02 13
  26245509.413     1576038.602 2   1228100.697 1
  22996233.438    -8571094.457 3  -6678740.808 3
  23385046.573     6582958.107 4   5129598.653 3
  24035798.863    -7919729.886 3  -6171195.777 2
 91  5 14 22 11  0.0080000  0  4 15 06 02 13
  26249309.878     1596048.873 2   1243693.118 1
  22998432.715    -8559530.631 3  -6669730.024 3
  23390702.756     6612679.721 4   5152758.353 3
  24030623.844    -7946917.707 3  -6192381.011 1
 91  5 14 22 11 15.0080000  0  4 15 06 02 13
  26253150.523     1616191.863 2   1259389.022 1
  23000650.577    -8547876.430 3  -6660648.829 3
  23396367.036     6642445.355 4   5175952.345 3
  24025470.114    -7974001.331 3  -6213485.063 1
 91  5 14 22 11 30.0080000  0  4 15 06 02 13
  26257007.056     1636470.809 2   1275190.744 1
  23002884.336    -8536128.067 3  -6651494.255 3
  23402040.005     6672258.440 4   5199183.309 3
  24020338.267    -8000976.968 3  -6234504.963 1
 91  5 14 22 11 45.0080000  0  4 15 06 02 13
  26260892.059     1656883.486 2   1291096.731 1
  23005140.570    -8524287.948 3  -6642268.185 3
  23407720.173     6702116.483 4   5222449.315 3
  24015227.403    -8027846.866 3  -6255442.485 1
 91  5 14 22 12  0.0080000  0  4 15 06 02 13
  26264799.259     1677430.038 2   1307107.079 1
  23007408.802    -8512355.853 3  -6632970.449 3
  23413412.033     6732019.573 4   5245750.424 3
  24010132.428    -8054610.741 3  -6276297.368 1
 91  5 14 22 12 15.0080000  0  4 15 06 02 13
  26268739.431     1698112.047 2   1323222.923 1
  23009700.120    -8500330.026 3  -6623599.669 3
  23419111.684     6761969.058 4   5269087.677 3
  24005057.844    -8081266.924 3  -6297068.354 1
 91  5 14 22 12 30.0080000  0  4 15 06 02 13
  26272695.491     1718921.905 2   1339438.442 1
  23012002.519    -8488217.833 3  -6614161.591 3
  23424817.033     6791957.366 4   5292455.181 3
  24000008.144    -8107822.676 3  -6317761.083 1
 91  5 14 22 12 45.0080000  0  4 15 06 02 13
  26276679.733     1739865.598 2   1355758.211 1
  23014323.817    -8476013.202 3  -6604651.487 3
  23430534.675     6821990.518 4   5315857.639 3
  23994974.628    -8134271.517 3  -6338370.466 1
 91  5 14 22 13  0.0080000  0  4 15 06 02 13
  26280696.651     1760941.983 2   1372181.356 1
  23016666.090    -8463716.699 3  -6595069.795 3
  23436255.023     6852067.219 4   5339294.032 3
  23989961.198    -8160614.358 3  -6358897.282 2
 91  5 14 22 13 15.0080000  0  4 15 06 02 13
  26284724.668     1782153.220 2   1388709.583 1
  23019021.564    -8451326.323 3  -6585414.944 3
  23441987.951     6882189.356 4   5362765.818 3
  23984966.955    -8186848.936 3  -6379339.730 1
 91  5 14 22 13 30.0080000  0  4 15 06 02 13
  26288787.454     1803495.725 2   1405340.091 1
  23021398.615    -8438845.865 3  -6575689.911 3
  23447727.773     6912353.253 4   5386270.150 3
  23979994.594    -8212978.593 3  -6399700.428 2
 91  5 14 22 13 45.0080000  0  4 15 06 02 13
  26292871.825     1824971.000 2   1422074.124 1
  23023789.164    -8426272.980 3  -6565892.855 3
  23453477.192     6942560.605 4   5409808.346 3
  23975041.428    -8239001.514 3  -6419977.944 2
 91  5 14 22 14  0.0080000  0  4 15 06 02 13
  26296988.576     1846577.762 2   1438910.533 1
  23026199.790    -8413608.970 3  -6556024.786 3
  23459231.715     6972810.282 4   5433379.523 3
  23970111.637    -8264918.600 3  -6440173.020 1
 91  5 14 22 14 15.0080000  0  4 15 06 02 13
  26301119.714     1868314.446 2   1455848.263 1
  23028628.110    -8400855.252 3  -6546086.818 3
  23464996.421     7003100.419 4   5456982.214 3
  23965199.837    -8290731.375 3  -6460286.794 1
 91  5 14 22 14 30.0080000  0  4 15 06 02 13
  26305284.732     1890179.805 2   1472886.179 1
  23031070.817    -8388013.225 3  -6536080.036 3
  23470769.520     7033429.613 4   5480615.347 3
  23960305.426    -8316441.094 3  -6480320.260 1
 91  5 14 22 14 45.0080000  0  4 15 06 02 13
  26309470.734     1912177.104 2   1490026.967 1
  23033533.017    -8375079.145 3  -6526001.531 3
  23476547.427     7063800.913 4   5504281.291 3
  23955437.094    -8342043.835 3  -6500270.404 1
 91  5 14 22 15  0.0080000  0  4 15 06 02 13
  26313675.321     1934306.910 2   1507270.986 1
  23036012.597    -8362052.113 3  -6515850.595 3
  23482335.516     7094215.264 4   5527980.785 3
  23950580.158    -8367538.831 3  -6520136.554 1
 91  5 14 22 15 15.0080000  0  4 15 06 02 13
  26317917.983     1956568.985 2   1524618.052 1
  23038505.674    -8348932.470 3  -6505627.487 3
  23488131.108     7124672.173 4   5551713.437 3
  23945752.005    -8392925.992 3  -6539918.691 2
 91  5 14 22 15 30.0080000  0  4 15 06 02 13
  26322180.138     1978961.680 2   1542066.847 1
  23041022.729    -8335721.284 3  -6495333.053 3
  23493933.890     7155169.916 4   5575477.910 3
  23940941.233    -8418206.807 3  -6559617.940 1
 91  5 14 22 15 45.0080000  0  4 15 06 02 13
  26326468.067     2001492.097 2   1559623.121 1
  23043557.478    -8322411.828 3  -6484962.044 3
  23499746.863     7185715.336 4   5599279.532 3
  23936150.546    -8443373.985 3  -6579228.673 1
 91  5 14 22 16  0.0080000  0  4 15 06 02 13
  26330782.083     2024162.822 2   1577288.592 1
  23046108.708    -8309000.951 3  -6474512.002 3
  23505567.331     7216311.296 4   5623120.543 3
  23931383.845    -8468424.651 3  -6598748.595 2
 91  5 14 22 16 15.0080000  0  4 15 06 02 13
  26335126.071     2046974.014 2   1595063.625 1
  23048676.429    -8295488.594 3  -6463982.886 3
  23511401.593     7246957.754 4   5647000.893 3
  23926639.331    -8493358.697 3  -6618177.651 2
 91  5 14 22 16 30.0080000  0  4 15 06 02 13
  26339485.650     2069928.264 2   1612950.018 1
  23051268.441    -8281871.800 3  -6453372.395 3
  23517243.647     7277657.264 4   5670922.595 3
  23921920.600    -8518172.897 3  -6637513.322 2
 91  5 14 22 16 45.0080000  0  4 15 06 02 13
  26343887.807     2093025.760 2   1630948.108 1
  23053880.232    -8268150.190 3  -6442680.229 3
  23523094.696     7308409.845 4   5694885.645 3
  23917220.751    -8542866.945 3  -6656755.377 2
 91  5 14 22 17  0.0080000  0  4 15 06 02 13
  26348305.548     2116261.918 2   1649054.213 1
  23056508.209    -8254328.033 3  -6431909.706 3
  23528957.742     7339211.145 4   5718886.650 3
  23912539.494    -8567444.778 3  -6675906.869 2
 91  5 14 22 17 15.0080000  0  4 15 06 02 13
  26352747.571     2139638.650 2   1667269.867 1
  23059159.578    -8240403.432 3  -6421059.364 3
  23534828.275     7370063.119 4   5742927.155 3
  23907885.216    -8591904.421 3  -6694966.264 2
 91  5 14 22 17 30.0080000  0  4 15 06 02 13
  26357233.071     2163155.458 2   1685594.657 1
  23061828.632    -8226376.424 3  -6410129.229 3
  23540708.710     7400965.138 4   5767006.649 3
  23903252.820    -8616246.117 3  -6713933.739 2
 91  5 14 22 17 45.0080000  0  4 15 06 02 13
  26361733.552     2186810.309 2   1704027.045 1
  23064518.967    -8212249.059 3  -6399120.884 3
  23546596.632     7431915.150 4   5791123.538 3
  23898644.409    -8640471.759 3  -6732810.804 2
 91  5 14 22 18  0.0080000  0  4 15 06 02 13
  26366259.222     2210601.264 2   1722565.456 1
  23067224.292    -8198023.042 3  -6388035.666 3
  23552496.542     7462911.014 4   5815276.152 3
  23894056.389    -8664583.081 3  -6751598.787 1
 91  5 14 22 18 15.0080000  0  4 15 06 02 13
  26370812.769     2234530.672 2   1741211.762 1
  23069952.101    -8183695.803 3  -6376871.580 3
  23558402.760     7493955.102 4   5839466.348 3
  23889492.049    -8688577.221 3  -6770295.448 1
 91  5 14 22 18 30.0080000  0  4 15 06 02 13
  26375394.498     2258597.768 2   1759965.357 1
  23072698.800    -8169268.131 3  -6365629.236 3
  23564320.661     7525046.564 4   5863693.456 3
  23884947.795    -8712455.088 3  -6788901.509 2
 91  5 14 22 18 45.0080000  0  4 15 06 02 13
  26380000.510     2282801.741 2   1778825.676 1
  23075461.990    -8154740.332 3  -6354308.875 3
  23570247.261     7556184.670 4   5887956.916 3
  23880423.930    -8736216.910 3  -6807417.153 2
 91  5 14 22 19  0.0080000  0  4 15 06 02 13
  26384631.099     2307143.299 2   1797793.121 1
  23078246.163    -8140111.896 3  -6342910.084 3
  23576180.449     7587369.725 4   5912256.961 3
  23875924.645    -8759861.986 3  -6825841.810 2
 91  5 14 22 19 15.0080000  0  4 15 06 02 13
  26389288.973     2331622.767 2   1816868.023 1
  23081048.023    -8125381.949 3  -6331432.203 3
  23582122.640     7618602.394 4   5936594.112 3
  23871449.336    -8783389.701 3  -6844175.030 2
 91  5 14 22 19 30.0080000  0  4 15 06 02 13
  26393973.230     2356238.983 2   1836049.517
  23083869.967    -8110551.456 3  -6319875.975 3
  23588075.616     7649881.607 4   5960967.521 3
  23866995.325    -8806800.651 3  -6862417.248 2
 91  5 14 22 19 45.0080000  0  4 15 06 02 13
  26398682.372     2380993.558 2   1855338.823 1
  23086710.200    -8095618.756 3  -6308240.093 3
  23594038.487     7681208.700 4   5985378.259 3
  23862558.092    -8830093.288 3  -6880567.302 2
 91  5 14 22 20  0.0080000  0  4 15 06 02 13
  26403421.790     2405884.868 2   1874734.613 1
  23089573.824    -8080585.261 3  -6296525.680 3
  23600006.156     7712582.048 4   6009825.005 3
  23858150.848    -8853268.772 3  -6898626.050 2
 91  5 14 22 20 15.0080000  0  4 15 06 02 13
  26408181.294     2430918.235 2   1894241.173 1
  23092451.531    -8065445.292 3  -6284728.293 3
  23605985.813     7744007.298 4   6034312.211 3
  23853762.188    -8876321.475 3  -6916589.120 2
 91  5 14 22 20 30.0080000  0  4 15 06 02 13
  26412970.183     2456095.377 2   1913859.733 1
  23095355.919    -8050196.938 3  -6272846.460 3
  23611977.171     7775485.879 4   6058840.970 3
  23849400.200    -8899249.484 3  -6934455.033 2
 91  5 14 22 20 45.0080000  0  4 15 06 02 13
  26417790.841     2481419.287 2   1933592.663 1
  23098276.797    -8034837.191 3  -6260877.828 3
  23617978.711     7807020.806 4   6083413.637 3
  23845062.504    -8922049.305 3  -6952221.079 2
 91  5 14 22 21  0.0080000  0  4 15 06 02 13
  26422642.385     2506890.777 2   1953440.565 1
  23101222.856    -8019364.906 3  -6248821.490 3
  23623989.848     7838612.991 4   6108030.925 3
  23840747.597    -8944719.979 3  -6969886.462 2
 91  5 14 22 21 15.0080000  0  4 15 06 02 13
  26427513.413     2532509.487 2   1973403.222 1
  23104186.601    -8003780.215 3  -6236677.576 3
  23630012.381     7870261.979 4   6132692.474 3
  23836459.363    -8967261.602 3  -6987451.297 2
 91  5 14 22 21 30.0080000  0  4 15 06 02 13
  26432422.813     2558276.836 2   1993481.685 1
  23107176.434    -7988081.558 3  -6224444.852 3
  23636047.207     7901969.082 4   6157399.303 3
  23832195.115    -8989672.451 3  -7004914.228 2
 91  5 14 22 21 45.0080000  0  4 15 06 02 13
  26437349.603     2584193.204 2   2013676.258 1
  23110184.555    -7972268.337 3  -6212122.854 3
  23642091.020     7933734.688 4   6182151.727 3
  23827952.748    -9011951.993 3  -7022274.845 2
 91  5 14 22 22  0.0080000  0  4 15 06 02 13
  26442318.064     2610259.060 2   2033987.293 1
  23113213.651    -7956339.993 3  -6199711.153 3
  23648146.830     7965559.331 4   6206950.139 3
  23823732.876    -9034099.775 3  -7039532.807 2
